ECMWFNIL_850_spd_000.txt.gz
Wind_Speed
24 25 25 26 27 29 30 31 32 33 34 34 34 34 32 31 29 26 25 24 23 24 26 30 34 34 33 34 37 38 38 39 41 43 47 49 47 43 42 43 45 46
24 24 25 26 27 28 30 31 32 33 34 35 35 35 34 33 31 29 27 26 25 24 24 28 33 36 35 34 35 38 38 39 42 44 45 48 48 46 43 44 47 47
24 24 24 25 26 27 28 30 31 32 33 34 34 35 35 34 33 31 29 28 27 25 24 26 31 36 38 36 34 37 38 38 42 45 46 47 50 49 46 46 48 48
24 24 25 25 26 26 28 29 30 30 30 32 33 33 34 35 35 33 30 28 27 26 25 25 29 34 39 39 37 37 38 37 40 45 47 48 49 49 47 47 48 48
25 26 26 26 26 27 28 29 30 30 29 30 30 31 32 34 36 36 34 31 29 28 27 26 28 32 37 40 40 39 39 38 39 43 47 49 49 49 48 48 49 49
27 27 28 29 29 28 29 29 30 30 30 29 29 29 31 33 36 37 37 35 32 30 28 27 28 31 35 39 40 41 41 40 40 42 45 47 50 52 52 50 51 49
29 29 30 31 31 31 31 30 30 30 30 30 30 30 31 33 36 37 38 38 36 33 30 28 28 30 34 38 41 42 43 43 42 43 45 45 48 52 54 53 54 52
31 31 31 32 33 33 32 31 31 31 31 31 31 31 32 33 35 37 37 37 38 36 32 28 28 30 32 36 40 42 43 45 45 44 45 47 48 51 54 56 57 55
32 32 32 33 33 34 34 32 32 32 32 32 32 32 33 34 36 36 36 37 38 37 34 31 29 31 32 34 39 42 43 45 47 45 44 47 50 52 55 57 57 56
33 33 33 33 33 34 34 34 34 34 34 34 34 34 35 36 37 38 37 38 38 39 38 36 33 33 34 35 36 40 43 44 46 48 46 47 50 53 55 56 57 56
32 32 32 33 34 34 35 35 35 35 36 36 37 37 37 38 39 40 40 40 41 41 41 41 38 35 36 37 36 37 41 43 44 48 48 47 49 52 54 55 55 54
31 31 33 34 35 35 36 36 37 37 38 38 39 39 40 40 41 42 43 44 44 43 43 44 42 39 37 38 37 37 39 42 43 46 49 48 49 51 53 55 55 55
31 32 33 35 36 36 38 39 39 40 40 40 40 40 41 41 41 42 44 46 46 46 46 45 44 42 39 39 39 38 39 42 43 45 49 49 49 51 53 55 57 57
31 33 34 36 37 38 40 41 41 41 42 41 39 39 39 40 40 41 43 45 47 48 47 45 44 43 41 41 41 39 39 42 43 45 48 48 48 51 54 56 58 59
32 34 36 38 39 40 42 42 42 42 42 41 40 38 38 38 38 38 40 43 45 46 46 44 43 42 41 42 43 41 40 42 43 44 48 49 48 50 54 56 58 60
33 35 37 39 41 42 42 42 42 41 41 41 39 38 38 37 36 36 38 40 40 41 41 41 42 43 42 42 44 43 41 42 43 43 46 49 49 50 53 56 58 59
34 35 37 41 42 42 41 41 41 41 41 41 39 38 38 37 36 35 35 37 37 37 37 38 40 41 42 43 44 44 42 41 43 43 45 48 50 51 54 56 57 59
34 36 38 41 41 40 39 40 41 42 42 42 40 38 38 37 36 34 33 34 36 35 36 37 38 39 41 43 44 44 42 41 42 43 44 47 50 52 55 56 56 58
34 36 38 39 38 37 38 40 42 43 43 43 41 39 37 35 34 33 32 33 35 35 35 36 36 37 40 43 43 43 42 41 42 43 44 48 51 53 54 55 55 57
33 35 37 37 37 38 39 40 42 44 44 44 42 39 37 34 32 30 29 32 34 33 32 33 34 36 40 42 42 42 42 42 42 43 45 47 50 52 53 53 54 55
34 36 37 39 38 38 39 41 43 45 45 44 42 39 36 33 31 29 27 29 32 32 32 33 34 36 40 41 39 40 42 42 42 43 44 46 49 52 52 52 52 52
36 37 39 39 38 37 39 41 43 44 44 43 41 38 35 32 29 27 26 26 30 31 32 34 35 37 38 37 36 39 41 41 42 43 44 45 48 51 53 52 50 49
36 38 40 39 35 36 39 41 42 43 42 41 39 37 33 29 26 25 24 25 28 29 31 35 36 36 36 34 33 36 40 40 41 43 44 45 48 52 56 54 50 49
35 39 41 36 34 36 37 38 37 38 38 38 37 35 33 27 24 24 24 25 29 30 31 35 37 36 37 34 31 34 39 39 40 44 45 46 48 53 57 55 52 52
35 40 39 34 33 35 34 32 32 32 33 34 33 34 33 26 22 24 24 24 27 28 28 32 34 36 39 36 31 33 39 39 40 44 47 48 50 51 52 55 56 56
35 39 37 33 33 34 30 27 28 28 28 27 27 31 30 22 17 19 22 23 25 26 27 30 32 35 39 38 33 35 40 40 40 44 48 51 52 50 51 55 57 57

ECMWFNIL_850_spd_003.txt.gz
Wind_Speed
18 20 21 22 22 22 23 24 25 26 26 26 26 25 24 24 24 25 25 24 22 20 19 21 25 29 32 36 38 37 35 33 34 35 37 39 41 46 48 49 51 50
19 20 22 23 23 23 23 24 25 27 28 28 27 26 25 24 24 24 24 24 23 23 21 20 22 26 30 34 37 39 38 36 37 37 38 40 40 42 47 50 51 51
19 21 23 24 24 24 24 25 26 27 29 30 29 28 27 25 24 24 24 23 24 25 25 23 21 23 27 31 35 39 41 39 38 37 37 39 41 42 45 48 50 51
21 22 24 25 26 26 26 26 27 28 29 31 32 31 29 27 25 24 24 24 25 26 27 27 25 22 23 27 32 37 41 42 40 38 37 37 38 41 44 46 50 52
22 24 25 26 27 27 27 28 29 30 30 31 33 33 31 29 27 26 26 26 26 26 27 28 28 26 23 24 29 35 40 43 42 40 39 40 38 38 42 45 48 50
24 26 27 28 28 28 29 29 30 31 31 31 32 33 32 31 29 28 27 28 28 28 28 28 29 29 28 25 26 31 37 41 43 42 40 42 43 40 40 44 47 48
26 27 29 29 30 30 30 30 31 31 31 31 32 32 32 32 31 30 29 29 30 30 29 28 28 29 31 30 26 27 33 37 41 43 41 41 44 45 42 43 45 46
27 28 29 30 30 31 31 31 31 31 31 32 32 32 32 32 32 31 31 31 31 32 31 30 29 29 30 32 29 26 30 35 38 43 44 42 43 47 47 44 43 45
28 28 29 30 30 30 30 31 31 31 31 32 31 32 32 32 32 32 32 32 33 34 33 32 31 31 31 32 31 27 27 31 34 38 43 45 45 46 48 46 43 44
27 28 29 29 28 28 29 30 30 29 30 31 31 32 32 32 32 32 32 33 34 35 36 35 34 34 33 33 33 31 28 28 30 34 38 43 47 47 47 47 45 45
26 27 28 27 26 26 27 27 27 27 28 28 29 31 32 32 33 33 32 33 34 36 37 37 37 36 35 35 35 35 33 30 29 32 35 39 44 48 48 47 45 45
26 27 26 25 25 26 25 25 26 27 27 27 28 29 31 31 32 32 33 34 35 36 37 38 38 37 37 36 35 36 37 36 34 33 34 36 40 45 50 49 45 45
27 26 25 24 24 24 24 25 26 27 27 28 30 29 29 30 31 32 34 35 36 37 38 38 39 39 39 38 37 36 37 39 40 38 35 35 37 41 47 51 49 45
27 26 24 23 23 22 24 25 26 28 29 30 30 29 27 28 29 31 32 34 36 37 38 39 40 40 40 40 39 38 36 37 39 39 38 37 37 38 41 48 52 49
28 27 24 23 23 23 26 27 28 30 30 30 29 28 27 28 29 30 31 32 35 37 38 40 41 42 43 42 41 40 37 35 36 38 39 40 38 38 40 44 50 53
27 26 23 21 22 25 28 30 31 31 31 31 30 28 29 30 31 31 31 33 35 37 38 40 42 44 45 44 42 42 38 34 35 37 40 41 39 39 41 42 46 53
24 23 21 21 22 25 28 31 33 33 33 34 34 33 32 32 32 33 34 35 35 36 36 39 43 45 46 45 44 43 40 36 35 36 39 41 39 38 41 42 43 49
20 21 21 22 25 29 33 36 36 36 35 35 36 35 33 31 33 35 35 34 35 36 36 39 43 45 45 45 44 43 42 39 38 37 37 40 40 39 41 43 43 46
20 24 24 25 29 33 37 38 37 36 35 34 35 34 32 32 35 36 35 34 35 37 38 40 43 44 44 44 44 43 41 39 39 40 39 39 41 40 41 43 44 45
23 26 25 26 30 34 35 36 35 35 36 35 35 34 34 36 38 38 37 36 36 37 38 39 41 42 42 43 43 43 40 37 39 42 42 40 41 41 43 45 43 43
24 24 22 25 31 34 35 35 35 36 38 37 36 36 37 39 40 39 38 37 36 35 36 38 38 38 40 42 43 42 39 36 38 43 44 42 40 41 44 44 42 42
21 20 22 27 32 35 36 36 37 38 39 37 36 37 39 40 41 40 38 37 35 34 35 37 36 35 37 40 41 39 36 36 38 43 45 43 40 41 43 42 41 43
19 20 23 29 35 38 38 38 38 39 39 38 37 40 41 41 42 42 39 37 36 34 34 36 34 32 34 36 36 35 33 34 39 42 45 44 41 41 42 41 42 45
19 21 26 32 38 40 40 39 38 39 39 39 39 40 39 39 39 40 40 38 36 35 34 33 32 29 30 33 34 33 31 33 38 42 44 44 43 42 42 42 43 44
18 22 28 34 39 42 41 39 38 39 39 39 38 36 35 36 36 38 39 37 33 31 30 30 30 29 30 33 34 33 32 33 37 41 43 43 43 43 43 44 43 41
19 23 28 33 39 43 43 39 37 38 38 37 35 32 31 33 34 36 36 31 27 26 27 28 29 30 32 33 33 32 31 34 38 42 43 43 44 44 44 43 42 39

ECMWFNIL_850_spd_006.txt.gz
Wind_Speed
14 13 12 12 12 12 12 12 14 16 18 20 22 24 25 27 26 25 23 21 20 19 19 18 18 17 17 20 26 31 35 36 36 34 33 34 36 38 41 43 45 45
15 14 13 13 14 14 14 15 15 16 18 20 23 25 27 29 29 29 27 24 22 21 21 20 20 20 17 16 19 25 31 37 41 39 36 34 34 36 39 41 45 46
16 15 15 15 16 17 18 18 18 18 20 21 23 25 28 30 31 30 28 26 25 23 22 21 20 19 18 17 17 19 23 28 37 42 43 39 34 34 38 41 45 47
17 16 16 17 18 19 20 21 21 22 22 22 23 25 27 29 30 30 27 25 25 25 24 22 22 21 22 22 19 19 20 21 26 33 42 45 41 36 37 40 44 45
17 18 18 19 20 22 23 23 24 25 24 25 25 25 26 26 25 25 22 19 20 24 25 24 24 23 22 22 22 21 21 21 22 24 32 41 45 43 37 36 40 42
18 18 19 21 22 23 25 25 26 26 26 25 23 22 23 22 21 20 18 17 17 20 22 24 24 25 23 22 23 23 21 21 22 22 25 31 40 46 42 36 37 40
18 19 20 22 24 25 26 26 26 25 22 19 18 18 19 21 21 19 17 18 19 18 20 21 22 23 25 24 24 24 22 23 24 25 25 27 32 41 44 40 37 38
19 20 22 23 24 25 27 27 26 22 17 15 17 16 17 19 20 19 17 18 19 19 19 20 20 21 22 23 25 25 24 24 24 25 27 27 29 34 40 41 40 40
19 21 22 24 25 26 26 26 25 20 16 16 18 16 17 18 18 19 18 19 20 20 20 20 21 21 20 22 24 26 27 26 25 26 28 29 30 32 35 38 40 41
20 21 22 24 25 25 26 25 25 22 18 18 18 18 18 18 18 19 20 20 21 21 21 21 21 22 22 22 23 25 28 29 28 28 29 29 30 31 32 35 39 42
20 21 23 24 25 25 25 26 25 23 19 18 18 19 19 18 18 19 20 21 21 21 22 22 22 23 23 23 23 24 26 30 30 30 31 31 31 31 32 34 37 41
20 21 23 24 24 24 24 24 23 20 18 18 18 18 19 20 20 20 20 22 23 22 23 23 23 24 24 25 25 24 26 29 31 32 32 33 33 32 32 34 36 38
19 21 22 23 23 23 22 20 19 18 18 19 19 19 21 22 22 22 22 22 23 23 24 24 24 25 24 25 26 25 26 28 31 32 33 34 34 32 32 34 36 37
19 20 21 22 21 20 18 18 18 18 19 20 20 20 21 22 23 23 22 22 23 24 24 24 24 25 25 25 26 26 27 28 30 32 33 34 35 34 32 34 36 36
18 20 20 19 18 16 17 17 18 19 20 21 21 21 21 21 22 23 23 23 24 24 25 25 25 26 26 25 25 27 28 28 29 32 34 34 35 36 34 33 35 36
18 17 16 15 15 16 17 18 19 20 21 22 23 23 22 22 22 23 24 24 24 25 26 26 26 26 27 29 31 31 31 29 27 30 33 33 34 36 36 35 36 37
16 14 13 14 15 16 17 19 20 21 22 23 23 23 22 22 23 24 24 25 25 25 26 26 25 27 29 32 35 37 36 34 31 30 32 33 34 36 37 37 37 36
14 13 13 14 15 17 18 19 20 21 22 23 22 22 22 23 23 23 24 25 25 26 27 27 27 29 32 34 37 39 39 39 38 35 34 33 34 35 37 38 37 36
13 12 13 14 15 16 18 19 21 21 21 22 22 22 23 23 24 24 25 25 26 27 28 29 29 31 33 37 39 40 40 40 40 39 37 36 35 35 36 37 37 36
12 12 13 14 14 16 18 20 22 22 21 21 21 22 23 24 25 26 27 27 27 28 28 29 30 31 34 37 39 41 41 42 42 41 40 39 39 39 38 36 37 37
11 12 13 13 15 17 19 21 22 22 22 21 21 22 23 24 25 26 28 29 29 29 29 30 31 33 36 39 41 42 42 42 43 43 41 40 40 41 43 40 36 37
11 12 13 14 17 19 20 22 23 23 23 22 22 23 23 24 27 29 30 32 31 30 31 32 32 33 36 40 41 41 41 42 42 43 42 41 40 40 43 44 39 36
11 12 13 15 18 20 21 22 22 22 23 23 23 24 25 28 31 31 30 30 30 30 32 34 34 33 35 38 39 39 40 41 41 41 41 41 41 39 40 44 45 39
12 13 14 16 19 21 22 23 24 24 24 24 23 25 28 31 31 29 29 28 30 33 36 37 38 37 37 39 38 37 38 40 40 39 39 39 41 40 38 40 45 43
12 13 14 17 20 21 23 25 28 28 26 24 23 25 29 30 28 27 28 30 32 35 38 38 39 39 38 38 38 36 37 39 39 39 39 38 38 38 36 37 40 42
13 13 15 18 21 22 23 25 29 30 28 26 26 28 28 27 26 25 29 33 34 34 34 36 37 37 35 35 36 36 37 38 39 39 39 37 35 35 35 34 36 38

ECMWFNIL_850_spd_009.txt.gz
Wind_Speed
19 17 16 14 13 13 12 12 12 13 14 14 15 16 17 19 21 23 24 25 26 26 24 22 22 22 22 22 21 21 22 24 25 28 32 33 31 31 34 35 34 35
20 19 17 16 15 15 15 14 14 14 15 16 17 18 19 21 23 25 27 28 29 30 28 26 24 23 22 23 24 24 22 23 26 27 30 34 34 33 34 36 36 37
22 20 19 18 16 16 16 16 16 17 18 19 20 21 22 23 25 26 28 30 31 30 29 27 25 24 23 22 23 24 22 21 24 26 26 29 33 35 34 33 34 37
23 22 21 19 18 18 18 18 18 19 20 21 22 23 24 25 26 28 29 29 29 29 26 25 25 24 23 22 21 22 23 23 23 23 25 26 28 32 35 35 34 34
23 23 22 21 20 20 19 19 20 21 22 23 24 25 26 27 28 29 28 25 24 24 23 22 23 23 22 22 22 21 23 26 26 23 25 27 26 28 31 35 37 37
24 23 22 22 21 21 21 21 21 22 23 24 25 26 27 28 28 27 25 22 21 22 21 21 21 22 23 23 22 21 22 25 26 24 25 27 27 27 27 30 34 38
24 23 22 21 21 21 22 22 23 23 24 25 25 26 27 27 27 26 24 22 22 21 21 22 21 22 22 22 22 22 22 24 25 25 26 27 28 28 28 28 29 32
24 23 22 21 21 21 22 22 23 24 24 24 25 24 24 23 24 25 24 23 22 22 22 22 22 22 22 22 23 23 24 24 25 26 26 27 28 29 29 30 30 30
23 22 21 21 20 21 22 23 23 23 23 23 23 22 21 21 22 23 23 23 22 23 23 23 23 23 23 24 24 24 25 25 26 27 27 27 28 29 29 30 31 32
21 20 20 20 20 21 22 22 22 23 22 22 23 22 21 21 22 21 22 23 23 24 24 24 24 23 24 25 25 26 26 26 27 27 28 28 28 29 30 30 31 32
20 19 19 20 20 21 21 22 23 22 22 23 22 21 21 21 21 21 22 23 23 24 24 24 24 24 25 26 26 27 27 27 27 27 28 29 29 30 30 31 32 32
18 18 18 19 20 21 22 23 23 23 23 22 21 21 21 21 21 22 22 23 23 24 25 26 25 25 26 26 27 27 28 29 29 29 29 30 30 31 31 32 33 33
15 16 17 19 20 21 22 23 23 23 22 22 20 21 21 22 22 23 23 24 24 25 26 26 26 26 26 27 27 27 28 30 31 31 31 31 32 33 33 33 34 34
14 15 17 19 21 22 23 23 22 21 20 20 21 21 22 22 23 24 24 24 24 25 26 26 26 27 27 27 27 27 28 30 31 32 32 33 33 34 34 35 35 35
14 16 19 20 20 20 20 19 19 19 20 21 21 21 22 23 23 24 25 25 26 26 26 26 27 28 28 27 28 27 27 28 29 31 32 33 34 34 35 35 35 36
13 15 17 17 18 17 16 17 18 19 20 20 20 21 22 23 24 25 26 26 27 27 27 27 28 28 28 28 30 31 30 29 29 29 30 32 33 34 35 35 34 35
12 13 14 14 15 15 16 17 17 18 19 19 20 22 23 23 24 25 25 26 27 27 28 27 27 28 28 29 31 34 35 34 32 30 30 31 32 33 34 35 35 35
12 12 13 14 14 15 16 16 17 18 18 19 21 23 23 24 24 25 25 26 27 28 28 29 29 28 30 33 33 34 36 38 37 35 32 31 33 34 33 34 35 35
11 12 13 14 14 15 15 16 17 18 18 19 22 23 23 24 25 25 26 26 27 28 29 30 30 30 32 35 37 37 37 39 42 42 38 36 35 35 35 35 35 35
11 12 13 14 14 15 16 17 17 17 18 20 23 23 23 23 24 25 26 26 27 28 28 30 30 30 32 34 36 39 39 40 42 43 41 40 39 37 37 37 36 36
11 12 13 14 15 16 16 17 17 18 19 22 23 22 22 22 23 25 25 26 26 27 28 30 29 29 31 34 36 38 39 41 45 45 43 41 40 39 40 39 39 38
11 12 13 14 15 16 17 17 18 18 21 23 24 22 22 23 24 25 26 26 27 28 29 31 31 30 31 34 35 37 37 39 43 44 44 43 41 40 41 41 41 41
11 13 14 15 16 17 17 18 18 19 22 25 25 23 23 25 26 26 25 26 28 28 29 32 32 31 31 33 35 36 36 38 38 37 38 40 41 40 40 41 42 43
12 13 14 15 16 17 17 18 19 20 23 27 27 25 24 26 26 26 26 27 28 29 30 33 34 32 32 34 35 36 38 40 40 38 38 39 39 40 40 41 43 44
12 13 15 15 16 17 18 19 20 21 25 27 24 23 25 26 25 26 28 28 28 29 30 33 35 35 35 36 37 38 38 40 40 41 43 42 39 39 39 40 41 43
12 13 14 15 16 17 18 19 19 21 25 26 23 22 24 25 24 27 29 29 28 29 30 31 34 36 37 38 38 38 37 38 39 42 44 43 41 39 38 39 40 40

ECMWFNIL_850_spd_012.txt.gz
Wind_Speed
20 20 19 19 18 17 17 16 14 14 15 15 15 16 16 17 18 19 21 22 23 24 25 26 27 27 25 23 23 23 24 25 26 27 27 28 29 29 30 30 28 28
21 21 20 20 19 18 18 17 16 16 17 17 18 18 19 20 20 21 22 23 24 26 28 28 27 27 26 24 22 22 24 26 27 28 27 28 29 30 30 31 32 30
20 21 22 21 20 19 19 19 18 18 18 19 19 20 21 21 23 24 24 24 26 28 28 27 25 24 24 22 21 21 24 26 26 26 26 26 27 29 31 31 32 32
20 21 22 22 21 20 20 20 20 20 20 20 21 22 22 23 24 25 25 26 27 28 27 25 23 23 22 22 21 20 21 25 26 24 23 24 25 27 29 29 29 31
20 21 22 22 22 21 21 21 21 21 21 22 22 23 23 24 25 26 26 27 27 27 26 24 23 22 22 21 21 22 22 23 25 25 23 24 26 26 25 26 28 29
20 21 22 22 22 22 22 22 22 22 23 23 23 23 24 25 26 27 27 26 26 25 25 24 23 22 22 21 21 22 23 24 24 25 24 24 25 26 24 24 26 27
21 21 22 22 23 23 23 22 22 22 23 23 23 24 25 25 26 26 26 26 26 25 25 24 23 22 21 21 21 22 23 24 24 24 24 23 23 25 25 24 25 26
21 22 22 23 23 24 23 22 22 22 22 23 23 24 25 25 26 26 25 26 26 26 25 24 24 23 21 21 22 22 23 23 23 23 24 25 25 26 26 25 25 27
21 22 23 23 24 24 24 23 22 22 21 22 23 24 24 24 24 24 24 25 26 26 25 24 24 23 22 22 22 22 23 24 24 24 25 26 27 28 29 27 27 27
22 22 23 23 24 24 23 22 21 20 20 21 22 23 23 23 23 23 24 25 26 26 25 24 24 24 23 23 23 23 23 24 25 26 26 27 27 28 30 30 29 29
21 22 22 23 23 23 22 21 20 19 20 20 21 22 22 22 23 23 24 24 25 25 25 25 25 24 23 23 23 23 24 25 25 26 27 28 28 28 29 29 31 31
21 21 21 21 21 21 20 19 19 19 19 19 20 21 21 22 23 23 23 24 24 25 25 25 25 25 24 24 24 24 25 25 26 27 28 29 30 30 30 30 30 31
20 20 20 19 19 19 18 18 18 18 18 19 19 20 20 22 23 24 24 24 25 25 25 25 26 25 25 25 25 26 26 26 27 28 28 29 30 31 31 32 32 32
19 18 18 17 17 17 17 17 17 18 18 18 19 20 21 22 23 24 24 24 24 25 25 25 26 26 26 26 26 26 26 26 27 28 28 29 30 31 32 32 33 33
17 16 16 16 17 18 18 18 18 18 18 19 20 21 22 22 22 22 22 23 24 25 26 26 27 28 28 28 27 27 27 27 27 27 27 27 28 30 32 33 33 35
17 16 17 17 17 17 17 17 17 18 19 20 21 21 21 21 21 21 22 24 25 25 26 27 28 29 29 29 29 29 30 32 32 32 31 30 29 30 31 32 33 34
17 16 16 16 16 15 15 16 16 18 19 19 20 20 21 20 21 22 24 25 25 26 27 27 28 29 29 29 29 30 32 33 36 37 37 37 37 36 35 34 33 34
15 14 14 13 13 13 15 16 17 18 19 19 20 20 20 21 22 25 26 26 26 27 28 29 30 30 30 30 30 31 33 34 37 38 40 41 42 42 41 40 37 36
13 12 12 11 12 14 15 16 18 19 19 20 20 20 21 22 24 26 26 26 26 27 29 30 30 30 30 31 32 33 34 35 38 39 41 42 43 43 44 43 41 40
11 11 11 11 13 14 15 17 19 19 20 20 19 20 22 25 28 30 29 27 26 27 29 30 31 31 31 31 33 34 34 36 39 41 42 44 44 45 44 44 43 42
10 9 10 11 13 14 16 18 18 19 19 19 19 21 24 28 31 32 31 29 28 28 29 32 32 32 32 31 31 32 33 35 39 42 44 46 47 47 47 47 46 46
8 8 10 12 13 15 16 16 17 17 18 19 20 23 27 30 32 31 30 31 30 29 30 33 33 33 32 32 32 33 34 36 38 41 43 46 47 47 47 47 48 49
7 8 10 12 13 14 15 15 16 17 18 18 21 24 27 28 29 31 31 31 30 29 31 33 34 33 33 33 34 35 37 39 41 42 44 46 47 47 45 44 44 44
6 8 10 12 12 13 14 15 16 17 18 20 23 26 28 28 29 31 31 29 28 29 31 33 34 34 33 34 34 34 36 38 40 42 44 46 47 47 46 45 44 42
8 9 10 10 11 12 13 15 17 18 19 20 22 26 28 30 31 33 31 29 29 30 30 31 33 33 32 33 34 34 35 38 40 42 45 45 46 47 47 46 46 44
7 7 8 9 10 11 14 16 17 17 18 21 23 26 28 30 30 31 31 29 29 30 30 30 31 32 32 32 34 34 35 38 40 43 45 45 45 45 46 46 46 46

ECMWFNIL_850_spd_015.txt.gz
Wind_Speed
15 15 15 15 15 15 15 14 13 12 11 10 9 9 9 10 11 13 14 15 17 17 18 18 19 20 19 18 16 16 17 19 20 21 23 26 28 29 29 28 28 29
15 15 15 15 16 17 17 16 15 14 13 12 11 11 11 12 13 14 15 16 17 18 19 20 20 20 20 18 17 16 15 16 19 21 23 25 27 29 30 30 29 29
15 14 14 14 15 16 17 18 17 16 14 13 13 13 13 14 15 15 16 17 18 19 20 21 21 21 21 19 18 17 17 17 16 17 21 24 26 27 28 29 29 28
14 13 13 13 14 15 17 18 18 17 15 14 14 15 15 16 16 17 18 19 19 20 21 21 22 23 22 21 19 19 19 19 18 16 17 20 23 25 25 25 27 27
14 13 13 12 13 15 17 18 18 17 16 16 16 16 17 17 17 18 19 19 20 21 22 22 23 23 23 22 20 20 20 20 20 19 19 19 20 23 25 25 25 27
15 14 13 13 13 14 16 17 18 17 17 17 17 17 18 17 18 18 19 20 21 22 22 23 23 23 23 22 21 21 21 21 21 20 21 22 21 20 23 25 24 25
16 14 14 14 14 15 16 17 18 18 18 18 18 18 18 18 19 19 20 20 21 22 23 23 24 24 24 23 22 22 21 21 22 22 22 23 23 22 21 22 23 23
16 16 15 15 15 16 17 17 18 18 18 18 18 18 18 18 19 19 20 21 22 23 23 24 24 25 24 23 22 23 23 23 22 22 22 22 23 24 23 23 24 25
18 17 17 17 17 17 18 18 18 18 18 18 18 18 18 18 19 20 21 22 22 22 23 23 24 24 24 23 22 24 25 25 23 22 23 23 23 24 24 24 25 25
19 19 18 18 18 18 19 18 18 18 18 18 18 18 18 18 19 20 21 21 22 23 23 24 24 24 23 23 24 25 26 26 24 23 23 23 24 24 25 25 26 27
20 20 20 19 19 19 19 19 18 18 18 17 16 16 17 18 19 20 20 21 22 23 24 24 24 23 23 24 25 27 28 28 26 24 24 25 25 25 25 25 26 27
22 22 21 20 19 19 18 18 18 17 16 15 15 15 16 18 19 19 20 21 22 23 24 24 23 23 24 25 26 27 28 28 26 26 26 27 28 28 28 27 26 26
22 22 21 20 19 18 18 17 16 15 14 13 14 15 16 17 18 19 20 22 23 23 22 21 20 21 21 22 23 24 25 26 27 27 28 29 28 28 28 29 29 28
22 21 20 19 18 17 17 16 15 13 13 13 14 15 16 17 18 20 21 21 21 21 22 22 23 23 24 24 23 22 22 23 25 27 29 30 30 29 29 29 29 29
21 21 20 18 17 17 16 15 14 12 13 13 14 15 16 17 19 20 20 21 22 23 25 26 27 28 29 30 30 29 28 27 28 29 31 33 34 34 34 33 32 31
21 21 19 18 17 16 15 14 13 12 13 13 14 15 16 18 19 19 20 22 24 26 28 29 31 32 32 33 34 34 35 34 34 34 34 35 37 38 38 38 37 36
22 21 19 18 17 16 15 13 12 12 12 13 14 16 17 18 19 20 22 24 26 28 30 32 33 34 35 37 36 33 33 35 37 38 37 37 38 39 40 41 41 40
22 21 18 17 16 14 12 11 10 11 12 14 16 17 19 20 21 23 24 26 28 29 31 33 34 37 39 39 36 31 29 30 33 36 38 39 40 41 42 43 43 43
22 20 17 16 14 11 10 9 10 12 14 17 18 19 20 21 22 23 25 26 28 29 32 35 37 39 40 38 35 31 30 30 31 33 35 37 39 41 43 44 44 44
20 17 15 13 11 9 9 11 12 14 16 18 19 19 20 21 22 24 25 27 29 32 35 38 39 40 39 36 33 31 31 31 32 34 35 36 37 38 40 42 43 44
17 14 12 11 10 10 11 12 13 14 16 17 18 18 18 20 22 24 26 29 32 35 37 39 40 40 38 35 33 32 32 32 34 35 37 39 40 40 41 42 42 43
15 14 12 10 10 10 10 11 13 14 15 15 15 16 17 20 22 25 28 31 34 36 38 40 40 39 37 35 34 33 34 34 35 36 38 39 40 41 41 42 42 43
16 13 10 9 9 10 10 11 12 12 13 14 16 17 19 22 25 27 30 33 35 37 38 39 39 37 35 35 33 31 31 32 32 34 36 38 40 41 41 42 42 42
13 10 8 9 10 10 10 10 11 13 15 17 18 19 21 23 25 28 31 33 35 36 37 37 37 35 32 31 30 29 30 30 32 34 37 39 41 42 42 43 44 43
11 10 10 10 9 9 9 10 12 14 15 16 17 19 21 24 26 28 30 31 31 32 32 33 33 32 31 29 28 28 29 30 33 36 38 40 40 41 42 42 43 43
9 9 8 7 7 7 8 9 10 10 12 14 17 20 22 24 25 26 27 28 29 31 32 32 33 33 32 29 28 27 28 30 33 36 37 38 38 39 41 41 42 42

ECMWFNIL_850_spd_018.txt.gz
Wind_Speed
18 16 15 14 13 12 12 12 11 11 10 9 7 7 6 6 6 6 7 8 9 10 11 12 12 13 13 14 15 14 14 13 14 14 15 17 20 22 24 25 26 26
19 17 16 15 15 15 14 14 14 13 12 11 10 9 8 7 7 7 8 9 10 11 12 12 13 13 14 15 16 16 16 14 13 14 15 16 17 19 22 24 26 27
20 18 16 16 16 15 16 16 15 15 14 14 13 11 10 10 10 10 10 10 11 11 12 12 13 13 14 16 17 18 18 18 16 14 15 16 16 17 18 20 23 25
21 19 17 16 15 15 16 17 17 17 16 16 14 13 12 12 12 11 11 11 11 12 12 13 13 13 14 16 17 18 18 18 18 17 16 16 16 17 17 18 20 22
21 19 17 16 15 15 15 16 16 17 17 17 15 14 14 14 13 12 12 12 12 12 12 13 13 14 14 16 17 18 18 18 17 17 18 18 18 18 19 19 20 20
22 19 18 16 15 14 15 15 15 16 17 17 16 16 16 15 14 13 12 12 12 12 12 12 13 14 15 16 17 18 18 17 17 16 18 20 20 21 21 20 20 20
23 20 19 17 15 15 15 15 16 17 17 17 17 17 17 16 15 14 13 13 12 12 12 13 14 14 15 16 18 18 18 17 17 18 19 20 21 21 21 21 20 20
23 21 20 19 17 17 16 16 16 17 17 18 18 18 18 16 15 14 13 13 12 12 12 13 14 15 16 17 18 19 18 18 18 19 21 22 22 22 21 21 21 22
24 23 22 21 19 18 17 17 17 17 18 18 18 18 18 16 15 14 13 13 13 13 13 14 15 17 18 19 19 19 19 19 20 22 23 23 23 22 22 22 22 23
25 24 24 22 20 19 18 18 18 17 18 18 18 18 16 15 14 13 13 13 13 13 14 15 17 18 19 19 19 19 19 20 21 22 22 22 21 22 22 23 23 24
27 26 25 23 21 20 19 18 18 17 17 17 16 15 14 14 13 13 13 13 13 14 15 17 18 20 21 20 20 20 20 22 22 23 23 22 22 21 21 22 24 25
29 28 27 24 22 20 20 19 18 17 16 15 14 13 13 13 13 13 13 13 14 16 17 19 21 21 21 21 21 21 22 24 25 26 27 27 26 25 24 23 24 24
30 29 27 25 22 21 20 18 17 16 14 13 12 12 12 12 13 13 13 14 16 18 20 22 22 22 21 21 22 23 25 26 27 28 30 30 30 30 29 28 27 26
30 29 27 24 22 21 19 17 16 14 13 12 11 11 11 12 12 13 14 16 18 20 22 23 23 22 23 23 25 26 27 29 30 32 33 33 33 33 33 33 32 31
30 29 27 25 22 20 18 16 15 14 12 11 11 11 11 12 13 14 15 18 20 22 23 24 24 24 25 26 27 29 31 32 34 35 35 34 33 33 35 36 37 37
30 29 27 25 22 20 18 15 14 13 11 10 10 11 11 12 13 15 17 19 21 23 24 24 25 26 27 28 29 31 34 36 36 37 35 32 31 32 33 35 36 38
31 30 27 24 21 18 17 15 13 11 10 10 11 11 12 14 15 16 18 20 22 23 24 25 26 27 28 29 32 35 36 37 37 37 35 32 31 30 31 32 33 36
30 29 25 22 20 17 15 13 11 10 10 11 12 12 14 15 16 17 19 21 22 23 23 25 26 27 29 32 35 37 37 38 38 37 35 34 33 32 32 32 33 33
29 28 23 20 19 16 13 11 10 10 10 11 12 13 15 16 17 19 20 21 21 21 23 25 27 30 33 35 37 38 38 38 37 36 36 36 36 35 35 35 35 35
28 26 21 19 17 14 12 10 10 10 10 11 13 14 16 17 18 19 19 19 20 22 24 27 29 32 35 37 38 39 39 38 38 37 37 37 38 38 38 38 38 38
26 24 21 18 15 12 11 10 10 10 10 12 14 16 17 18 18 18 19 20 22 24 27 30 32 34 36 37 38 38 37 37 37 37 37 38 38 38 38 38 37 37
24 22 19 17 14 12 11 11 11 12 13 15 16 16 18 18 18 19 20 22 24 26 29 31 32 32 32 32 32 32 32 33 34 35 36 37 37 36 36 37 36 36
23 21 18 16 14 13 13 13 14 14 14 15 15 16 17 17 18 19 21 23 25 27 28 29 28 27 27 28 28 28 29 30 30 32 34 35 36 37 37 37 37 37
22 20 19 17 14 13 14 14 13 13 13 14 15 15 15 15 17 19 21 23 24 25 25 26 27 28 28 28 28 28 29 30 30 31 33 35 36 38 39 39 39 39
23 21 18 15 12 12 12 12 11 12 12 11 11 11 12 14 17 20 21 22 23 24 24 27 31 32 31 31 30 30 30 31 31 32 34 36 37 38 40 40 40 40
23 21 17 12 11 11 10 10 10 8 6 6 8 10 12 15 19 20 21 21 23 25 27 31 35 36 34 33 32 32 31 31 31 32 34 36 37 38 39 39 39 39

ECMWFNIL_850_spd_021.txt.gz
Wind_Speed
20 18 17 15 13 10 9 9 9 8 8 8 7 7 7 6 5 4 5 6 6 7 8 9 9 9 10 10 10 11 11 11 11 10 10 10 11 12 12 13 14 16
22 20 19 17 15 13 11 10 10 9 9 9 8 8 9 9 8 7 7 7 8 9 10 10 11 11 11 11 12 12 12 12 12 12 12 11 11 11 12 12 13 14
23 22 20 18 16 14 13 12 11 11 11 10 10 10 11 10 9 9 9 9 10 11 12 12 12 12 12 13 14 14 14 14 13 13 13 12 12 12 12 12 13 14
25 23 21 19 17 15 14 14 13 13 13 12 12 12 12 11 11 11 10 11 12 13 13 13 13 14 14 14 15 16 16 16 16 15 14 13 12 13 13 14 14 14
25 24 21 19 17 16 16 16 15 15 14 14 14 14 14 13 13 12 12 13 13 14 14 14 14 14 15 15 16 17 17 18 18 18 17 15 14 14 14 14 15 16
26 25 22 20 18 17 18 18 17 16 16 16 16 16 16 15 14 14 13 14 15 15 15 15 15 15 15 16 17 17 19 19 20 20 19 18 17 17 16 16 16 16
27 26 24 21 20 19 19 19 19 19 19 18 18 18 17 16 15 15 15 15 16 16 15 15 15 15 15 16 17 18 19 20 21 21 20 20 20 20 19 18 18 17
27 27 26 23 22 21 20 21 21 21 20 20 20 20 19 17 16 16 16 16 16 16 15 15 15 14 15 16 17 19 20 20 21 21 22 22 22 22 22 21 21 20
27 28 28 26 24 23 22 22 23 22 22 21 21 20 19 18 18 17 17 17 16 16 15 15 14 14 14 16 18 19 20 20 20 21 22 23 23 24 24 24 24 23
29 29 30 28 26 25 25 25 24 23 23 22 21 21 20 19 19 18 18 17 16 16 15 14 14 14 15 16 18 19 19 19 19 20 21 23 24 25 26 26 26 26
31 31 32 31 29 28 27 27 26 24 23 22 21 20 20 19 19 18 18 17 16 15 14 14 13 14 16 17 18 19 19 19 20 21 22 24 26 27 28 28 29 29
35 34 35 34 32 31 29 28 27 25 24 22 21 20 19 19 18 18 17 16 15 14 13 13 13 15 17 18 19 19 19 20 21 23 25 26 27 29 30 31 31 32
40 38 37 37 35 33 31 28 26 25 23 21 20 19 19 18 18 17 16 15 13 13 12 13 14 16 18 19 20 20 21 23 24 26 28 29 30 32 33 33 33 33
43 41 39 38 37 35 32 29 26 24 22 21 19 19 18 17 16 15 14 13 12 12 12 13 15 17 19 20 21 22 24 26 27 29 31 32 34 36 36 35 35 33
45 46 42 39 38 36 33 29 25 23 21 20 19 17 16 15 14 14 13 12 12 12 13 15 16 18 20 21 22 24 26 28 30 32 34 36 38 39 38 37 36 35
45 46 44 41 39 37 33 29 25 22 20 18 16 15 14 14 13 12 12 11 11 13 14 16 18 20 21 22 24 26 28 30 32 35 37 39 41 41 40 39 37 36
41 42 43 43 39 36 32 28 24 21 19 16 15 14 14 13 12 11 11 11 13 14 16 18 20 22 23 25 26 28 30 32 35 38 40 41 42 42 41 40 39 38
38 39 40 41 39 35 31 27 24 20 18 16 15 14 13 12 11 11 11 13 15 17 19 20 22 23 25 26 28 30 32 35 38 40 41 41 41 40 40 40 40 39
35 35 35 35 36 34 31 27 24 20 17 16 15 13 12 12 12 12 13 15 17 19 20 21 23 24 26 28 30 33 35 37 39 39 39 39 38 38 39 39 39 40
34 32 29 30 33 32 29 25 21 18 16 15 14 13 13 13 13 14 15 17 18 19 20 22 23 25 27 29 32 34 35 36 37 37 37 37 37 37 38 38 39 39
34 29 27 30 32 29 24 20 17 16 15 15 14 14 14 14 14 15 15 16 17 19 21 23 25 26 28 30 31 32 33 34 35 36 36 36 37 37 37 38 38 38
33 30 29 32 30 25 21 19 17 16 15 14 14 14 14 14 14 14 15 16 17 20 22 24 25 26 28 29 30 30 32 33 34 35 36 36 37 37 37 38 38 38
35 34 32 31 29 26 23 21 19 17 16 15 15 14 13 12 13 13 15 17 19 21 23 25 25 26 27 28 29 30 32 34 35 35 37 37 38 38 38 39 38 38
36 36 33 32 30 27 24 22 19 17 16 14 14 13 11 11 12 13 15 17 19 21 23 24 25 26 27 28 30 32 33 35 36 37 38 39 39 40 40 40 40 40
34 34 33 31 29 26 23 21 18 16 14 13 13 12 11 12 12 14 16 18 19 20 21 22 24 25 27 30 32 33 35 36 37 38 39 40 40 41 41 41 41 41
35 35 32 29 27 24 20 17 15 13 12 11 10 10 9 10 11 13 16 17 17 18 19 20 23 26 29 32 35 36 36 36 37 39 40 41 41 41 42 42 42 42

ECMWFNIL_850_spd_024.txt.gz
Wind_Speed
19 18 17 16 14 12 11 11 11 10 8 8 8 7 8 8 7 6 5 4 3 3 3 4 5 6 6 7 7 7 8 8 9 9 9 9 9 8 8 9 9 10
21 20 19 18 17 15 14 13 12 12 10 9 9 9 10 10 9 8 7 6 5 5 5 5 6 7 7 7 7 8 8 9 9 10 10 10 10 9 9 9 9 10
24 23 21 20 19 18 16 15 14 13 12 12 11 12 12 12 11 10 9 8 7 7 7 7 8 8 8 8 8 9 10 10 10 10 10 10 10 10 10 10 10 10
26 25 24 22 21 19 18 17 16 16 15 14 14 14 14 14 13 12 11 10 9 9 9 10 10 10 10 10 10 10 11 12 12 12 12 12 12 11 11 11 11 11
28 27 26 24 23 22 20 19 18 18 17 16 15 15 16 16 15 13 12 12 12 12 12 12 12 11 12 11 11 11 12 13 14 14 14 14 14 13 13 13 12 12
28 29 28 27 25 24 23 21 20 20 19 19 18 17 18 18 17 15 15 14 14 14 14 14 13 13 13 12 12 12 13 13 14 15 16 16 16 16 16 16 15 14
29 27 27 28 28 26 25 23 22 21 21 20 20 20 20 20 19 18 17 16 16 17 16 15 15 14 14 13 12 13 13 13 15 15 16 16 17 17 18 18 18 18
31 29 27 27 28 28 27 25 24 23 22 23 22 22 22 21 20 19 18 18 19 19 18 17 16 16 15 14 13 14 14 14 15 16 16 17 17 18 19 19 19 20
32 31 30 29 29 29 29 28 26 25 25 24 24 23 23 22 21 21 20 20 20 20 19 18 18 17 15 14 15 15 15 16 16 16 17 17 17 18 19 20 20 21
33 32 31 32 32 31 31 30 29 28 27 26 26 25 24 23 22 21 21 22 21 21 20 20 18 17 16 15 15 16 16 17 18 18 18 18 18 19 20 21 22 22
34 33 32 32 32 32 32 32 31 31 30 28 27 26 25 24 23 22 22 22 22 21 21 20 18 17 16 15 15 16 17 18 18 19 19 20 21 21 22 23 24 25
34 34 33 32 31 32 33 34 34 33 33 31 29 27 26 25 24 23 22 22 22 22 20 19 18 16 15 14 15 16 18 19 20 21 21 22 23 24 25 26 27 28
34 35 35 34 33 32 34 36 37 35 34 33 31 29 27 26 24 22 22 22 22 21 20 18 16 14 13 14 16 18 19 21 22 23 24 25 25 26 27 29 30 32
33 36 37 37 36 35 34 37 40 39 37 35 33 30 28 25 23 22 22 23 22 20 19 17 15 13 14 15 17 19 21 22 24 25 27 28 29 30 31 32 33 35
27 32 35 37 37 36 36 38 38 37 37 36 32 29 26 23 22 22 22 22 21 20 18 16 14 15 16 17 19 20 22 24 26 27 29 30 32 33 34 35 36 37
21 24 28 29 30 32 35 37 36 34 34 33 30 27 25 22 22 22 22 22 21 19 17 16 16 17 17 18 20 22 24 26 27 29 31 33 35 37 38 38 37 36
20 21 22 22 23 26 29 33 35 34 31 31 31 28 24 22 22 22 22 22 20 18 17 17 17 17 18 20 22 23 25 27 29 31 33 35 37 39 39 38 37 36
22 22 23 22 22 24 27 30 32 31 30 32 31 28 26 25 24 24 23 22 20 18 17 17 17 18 20 22 23 25 27 29 30 33 35 37 38 38 38 38 37 37
23 24 24 24 23 24 27 29 27 28 31 32 30 28 27 27 25 24 22 20 18 17 16 17 18 20 22 23 25 27 28 30 33 34 36 36 36 36 37 37 37 37
24 25 25 25 25 25 27 27 24 26 30 31 29 28 28 26 24 22 20 18 17 16 16 18 20 22 23 25 27 28 30 32 34 34 35 35 35 35 35 36 36 36
24 25 26 27 25 25 26 25 23 26 31 31 28 27 26 24 21 19 18 18 17 17 18 19 21 22 24 25 27 29 31 32 32 33 34 35 35 34 34 34 34 34
24 25 27 27 25 25 26 24 23 28 32 30 28 27 24 21 19 18 18 18 18 18 19 20 21 22 24 25 27 28 29 29 30 32 34 34 34 34 33 33 33 33
23 24 27 27 25 24 25 25 25 30 32 31 30 28 23 20 19 18 19 19 18 19 19 19 20 22 23 24 24 25 26 28 30 32 34 34 34 34 33 33 33 32
22 23 25 25 22 22 24 26 30 34 33 30 28 25 21 20 20 19 18 17 17 17 18 18 19 19 19 20 21 23 26 29 31 33 34 35 35 34 34 34 33 32
20 21 22 22 21 23 26 30 34 35 32 28 24 22 21 20 18 16 15 15 15 16 16 15 15 15 17 19 21 24 27 30 32 34 35 35 36 36 35 35 34 33
18 17 18 19 21 23 28 33 32 26 23 22 21 19 18 16 14 13 12 12 12 12 11 12 13 15 17 19 22 25 28 31 33 34 35 36 36 37 37 37 36 35

ECMWFNIL_850_spd_027.txt.gz
Wind_Speed
19 19 18 17 15 14 13 12 11 10 9 9 9 8 8 8 7 6 6 5 5 4 3 2 2 3 3 4 4 5 6 7 8 8 8 9 9 9 9 9 8 7
20 19 19 18 17 16 15 14 13 12 11 10 10 10 10 10 9 8 8 7 7 6 5 4 4 4 5 5 5 5 6 6 7 8 8 8 9 9 9 10 10 10
20 20 20 19 18 17 16 16 15 14 13 12 12 11 12 12 11 10 10 9 9 8 7 6 6 6 6 7 7 7 7 7 8 9 9 9 9 9 9 9 10 10
23 21 21 20 19 19 18 18 18 17 16 15 15 14 14 13 13 12 12 11 10 10 9 8 8 7 8 8 8 8 8 9 9 10 10 10 10 9 9 9 9 10
25 24 23 22 22 21 21 21 20 19 18 18 17 17 17 16 15 15 14 12 12 11 11 11 10 9 9 10 10 10 10 10 11 11 12 12 12 12 12 11 11 11
29 27 26 25 25 25 25 24 23 21 21 20 19 19 19 18 18 17 15 14 13 13 13 13 12 11 11 11 11 11 12 12 13 13 13 14 14 15 15 14 14 14
32 31 29 29 28 27 27 27 25 24 23 22 21 21 21 20 20 18 17 15 14 14 14 15 14 13 13 13 12 13 13 14 14 14 14 15 16 16 17 17 16 16
34 34 33 32 31 30 30 28 27 26 25 24 23 23 22 21 20 19 18 17 16 16 16 16 16 15 15 14 14 15 15 15 15 15 15 16 16 17 18 18 18 18
32 32 33 33 32 32 31 30 29 27 26 26 25 24 24 23 22 20 19 18 18 18 18 18 18 17 16 16 16 16 17 17 16 16 16 16 16 17 18 19 19 20
26 29 30 31 30 30 31 30 30 29 28 27 27 26 25 24 23 21 21 20 20 20 20 20 20 19 18 18 18 18 18 18 18 17 17 17 17 17 18 19 20 21
21 25 28 29 29 28 28 29 30 31 31 30 30 29 28 26 24 23 22 22 22 22 21 21 21 20 19 20 20 20 20 20 19 18 18 18 18 19 19 20 21 22
21 23 24 25 26 27 26 27 29 30 31 34 34 33 30 28 25 24 23 23 22 22 22 22 22 21 21 21 21 22 21 21 20 19 19 19 20 21 22 23 24 25
18 22 24 24 23 24 24 25 26 27 30 34 34 32 30 28 26 25 24 24 23 23 23 23 22 22 22 22 23 22 22 21 20 19 20 20 21 22 24 25 26 27
11 15 21 24 24 22 22 22 22 24 27 29 29 29 28 27 26 26 26 25 24 24 24 23 23 23 23 23 23 22 22 21 20 20 21 22 23 24 25 27 28 30
12 12 14 18 19 19 19 19 19 20 22 23 24 25 24 24 25 27 29 28 28 27 26 25 25 25 24 23 22 22 21 21 20 21 22 24 25 27 28 30 31 32
15 15 15 15 15 15 16 17 18 18 19 19 19 20 21 23 26 28 31 31 30 29 28 27 27 25 23 22 22 21 20 20 21 22 24 26 27 29 30 32 33 33
18 18 18 17 17 16 16 17 18 18 17 17 16 17 19 24 27 29 31 31 30 29 28 27 26 24 22 22 22 21 20 21 22 24 26 27 29 31 33 34 34 33
20 21 20 20 19 18 19 19 19 19 17 15 15 16 18 22 27 30 32 31 30 29 27 25 23 22 22 21 21 21 21 22 23 25 27 29 31 32 33 33 33 33
21 21 22 21 20 20 21 21 22 21 18 15 15 16 17 22 28 32 32 32 30 28 25 23 21 20 20 19 19 21 21 23 25 27 29 30 32 32 32 32 32 33
22 22 22 21 21 21 22 23 24 23 19 15 15 16 18 23 30 33 33 31 29 26 23 21 19 18 18 18 19 21 22 24 26 28 30 31 31 30 31 31 32 32
23 23 23 22 21 21 22 24 25 25 21 17 15 16 19 25 31 34 33 30 26 24 21 19 17 16 16 18 20 21 23 25 27 29 29 29 29 29 30 31 32 32
22 23 23 23 22 22 22 24 25 25 21 16 15 16 20 27 32 33 32 28 25 22 19 17 15 15 17 19 21 22 24 25 26 27 27 28 29 30 31 31 32 32
21 22 22 23 22 22 23 24 24 22 17 15 16 19 23 31 34 32 28 25 22 19 17 15 15 16 17 19 20 22 23 24 24 25 27 28 30 31 31 32 32 32
21 22 23 23 22 22 23 24 22 18 15 15 18 22 27 32 32 28 24 20 17 15 14 13 14 15 17 18 19 20 21 22 23 25 27 29 30 31 32 33 32 32
21 22 24 24 23 22 23 24 22 18 16 19 22 27 31 32 28 23 19 16 14 13 12 12 13 14 15 16 16 17 19 21 23 25 28 29 30 32 33 32 30 29
22 23 24 25 24 24 24 23 19 16 18 23 27 29 28 25 22 19 15 13 10 9 10 11 12 12 13 14 15 16 19 21 23 25 28 29 32 34 31 28 26 24

ECMWFNIL_850_spd_030.txt.gz
Wind_Speed
21 20 18 17 15 13 12 11 10 10 10 9 9 8 8 8 7 6 5 5 4 3 2 2 1 0 1 2 3 3 4 5 5 7 8 8 8 8 7 6 6 5
22 22 20 19 17 16 14 13 12 12 11 11 10 9 10 10 9 8 8 7 6 6 5 4 3 2 2 2 2 2 3 4 5 6 7 9 9 9 10 9 8 7
22 22 22 21 20 18 16 14 14 13 13 13 12 11 12 11 10 9 9 9 8 8 7 7 6 5 4 4 4 4 4 5 5 6 6 7 8 9 10 10 10 9
23 22 22 22 21 20 18 17 16 15 15 15 14 14 13 13 12 11 11 10 10 10 9 9 8 7 7 6 5 6 6 6 6 6 6 7 7 8 9 9 10 9
24 23 23 22 22 22 21 19 18 18 17 16 16 16 16 15 14 13 13 12 12 12 11 11 11 10 9 7 7 7 7 7 8 7 6 7 8 8 9 9 10 10
27 26 25 24 23 23 22 21 20 20 19 18 18 17 17 17 17 16 16 14 14 14 13 13 13 12 11 9 9 9 8 8 9 8 6 6 8 9 9 8 8 10
28 28 27 27 26 25 25 24 23 22 21 21 20 19 19 19 19 19 18 17 16 15 15 15 15 14 13 12 11 11 10 10 11 9 6 6 8 9 10 10 9 9
28 29 29 30 30 29 29 27 26 25 24 23 22 22 21 21 21 21 20 19 18 18 17 17 16 16 15 14 13 14 14 13 13 11 9 9 9 8 8 11 12 11
22 24 25 27 29 30 31 31 30 29 28 28 26 24 24 23 22 22 22 21 20 20 19 19 18 18 17 16 16 16 16 16 15 13 12 12 11 9 8 10 13 13
16 20 21 22 23 24 27 28 29 29 29 30 29 28 27 26 25 25 24 23 23 21 21 21 21 20 19 18 18 17 17 17 16 15 14 14 13 12 11 12 14 14
16 19 19 18 17 17 19 22 23 23 23 25 26 28 29 29 28 26 23 23 23 23 23 23 23 22 21 20 20 20 19 18 18 17 16 16 16 15 15 16 16 17
13 15 15 15 15 15 17 17 17 17 18 18 19 23 27 29 28 27 25 24 24 25 25 25 25 24 23 22 23 23 22 21 21 20 19 19 18 18 18 18 19 19
7 9 12 14 15 17 19 18 18 18 17 16 17 19 24 27 26 26 28 28 28 28 27 27 27 26 24 24 25 25 24 24 23 22 22 21 20 19 19 20 20 20
6 7 9 10 11 15 19 20 21 21 17 15 16 19 22 24 23 24 28 29 29 29 29 28 27 27 26 26 26 26 25 24 24 23 22 22 21 21 21 21 21 22
9 10 10 10 10 12 14 15 16 17 16 15 16 17 19 20 20 23 27 29 29 30 28 26 26 27 27 28 27 26 26 24 24 24 23 22 22 22 22 22 23 24
13 13 13 13 12 12 13 13 12 12 14 15 16 17 17 18 19 21 24 25 26 27 25 25 28 31 31 30 28 27 26 24 24 24 23 22 22 22 22 23 24 26
14 15 15 15 15 14 15 15 14 13 12 13 15 17 18 18 19 20 21 20 20 23 25 29 34 35 33 31 28 26 24 23 23 23 22 22 21 22 23 24 26 28
14 15 16 16 16 15 15 17 17 17 15 13 13 15 17 19 20 20 20 20 22 26 31 34 37 36 32 30 28 25 24 22 22 22 21 20 21 22 24 25 27 29
16 15 16 16 17 17 17 17 18 19 19 17 14 13 14 17 19 18 17 19 24 30 34 35 36 35 33 30 27 25 23 21 21 21 20 20 21 23 25 27 28 29
17 17 17 17 17 18 18 18 18 18 20 18 14 12 15 17 18 17 17 20 26 32 34 36 36 35 32 29 26 24 22 20 19 20 19 21 23 25 27 28 28 28
18 18 18 18 18 18 19 19 19 19 20 18 14 13 15 16 16 17 19 23 29 32 35 36 35 32 29 26 23 21 19 18 19 19 20 23 25 26 27 28 28 29
17 17 18 18 18 19 19 20 20 21 20 18 14 13 14 15 16 18 22 25 29 33 35 35 32 28 25 22 19 18 16 17 19 20 21 24 25 26 27 28 28 29
18 17 17 18 18 19 19 20 20 20 19 16 13 13 15 17 18 19 22 26 30 33 34 32 28 24 21 18 17 16 14 16 17 17 19 22 24 25 26 27 28 29
19 18 17 18 18 18 18 19 19 19 17 14 13 15 18 20 19 19 22 27 31 31 30 26 23 20 17 15 15 15 14 15 15 16 18 21 22 23 24 25 28 30
21 21 21 20 20 19 18 19 18 17 18 17 16 16 19 20 20 21 24 28 29 28 25 21 18 15 13 13 14 14 15 16 16 17 18 19 19 20 22 24 26 27
22 23 24 24 23 20 19 18 19 20 22 20 18 18 19 20 20 24 28 29 26 22 19 16 13 11 11 11 12 14 16 16 16 16 17 18 19 21 23 25 25 22

ECMWFNIL_850_spd_033.txt.gz
Wind_Speed
17 16 15 16 14 13 13 12 10 10 9 8 8 7 7 7 6 4 4 3 2 1 1 1 1 1 2 3 3 2 3 5 6 7 8 8 9 9 9 9 8 7
19 17 16 16 14 13 14 13 12 11 11 10 9 8 8 9 8 6 6 6 5 4 4 3 3 3 2 2 2 1 2 4 5 6 7 7 8 8 9 9 9 8
21 19 17 16 15 14 14 14 14 13 12 11 11 10 10 11 10 7 8 8 7 8 7 6 7 6 4 5 4 2 3 4 4 5 6 6 6 7 8 8 9 9
23 22 20 17 15 15 15 15 15 14 13 13 13 12 12 13 12 9 10 10 9 10 10 8 9 8 7 8 5 4 5 5 4 5 5 5 5 6 7 8 8 8
22 22 22 20 17 16 15 15 15 15 14 14 15 14 14 15 14 12 12 12 11 12 12 11 11 10 10 10 7 7 7 6 6 5 3 4 5 5 6 7 7 8
21 21 21 21 19 18 17 17 17 16 16 16 16 16 16 16 16 14 14 14 13 14 14 14 14 13 13 12 10 10 8 7 8 7 3 6 6 5 6 5 5 7
18 19 20 20 20 19 19 18 18 18 18 17 17 17 17 17 17 16 16 16 15 15 15 16 16 16 15 14 12 11 10 9 11 9 5 7 8 8 7 5 3 3
15 16 17 19 19 19 20 19 19 18 18 18 17 17 17 18 18 18 18 18 17 17 17 16 17 17 17 16 14 13 13 12 13 12 7 9 10 9 7 8 7 3
18 16 16 18 19 19 19 20 20 20 20 19 18 18 18 18 19 18 19 19 20 19 19 18 18 18 18 19 16 15 16 17 16 14 10 12 13 9 7 9 10 7
17 17 18 20 20 20 20 20 21 22 21 21 20 20 19 19 19 19 20 21 21 21 20 20 20 19 19 20 18 17 17 18 17 16 14 14 13 9 9 10 10 10
14 15 19 21 20 19 19 19 21 22 20 19 20 21 21 21 21 22 22 23 23 22 21 21 20 19 20 20 19 18 18 18 17 16 15 14 12 11 12 12 12 12
12 12 15 19 20 19 18 18 20 21 19 18 19 19 21 21 22 23 24 24 24 23 22 21 20 19 19 19 18 18 19 18 18 16 15 14 13 14 15 15 14 14
7 7 9 13 15 16 16 17 20 20 20 19 18 18 19 20 21 23 24 24 23 22 22 21 21 21 20 19 19 18 18 18 18 18 17 16 16 15 14 15 15 15
4 5 7 9 11 13 15 16 18 20 21 22 21 20 19 19 20 22 22 22 23 23 23 23 22 22 22 22 21 19 19 18 18 19 19 18 18 17 16 17 18 17
5 6 7 8 9 11 12 13 13 14 17 20 21 20 20 20 20 23 24 24 24 23 23 25 24 23 23 24 23 21 21 20 18 18 18 17 17 17 17 18 19 18
6 7 7 8 8 9 11 12 12 12 13 15 17 17 19 20 21 25 28 28 25 23 23 25 26 26 26 25 23 23 24 21 19 17 17 17 17 17 17 18 19 20
7 7 7 8 9 10 11 11 12 12 13 15 15 15 18 20 21 25 27 27 26 25 25 27 28 29 30 29 28 29 27 21 19 20 19 20 20 19 18 18 19 20
8 8 8 9 9 10 11 11 12 12 13 15 16 16 17 18 20 22 22 21 23 24 26 29 31 32 33 32 33 35 32 26 23 23 22 21 20 20 20 19 19 20
9 9 9 9 10 10 11 11 12 13 13 14 15 16 16 16 16 17 16 17 19 21 23 28 33 35 35 34 34 35 35 31 27 25 23 21 20 21 21 21 21 22
9 10 10 10 10 11 11 12 13 13 14 14 15 16 17 16 16 15 16 17 18 19 23 28 31 34 35 35 34 34 35 32 29 27 25 23 22 22 22 23 24 24
10 11 11 11 11 11 12 12 13 13 14 14 14 15 16 17 17 17 16 16 17 22 27 29 30 32 34 35 35 35 34 31 29 29 26 23 22 22 23 24 24 24
11 12 12 12 12 12 12 13 13 13 14 14 15 15 15 16 17 16 15 15 19 26 31 31 30 31 33 35 35 34 31 29 28 26 23 21 22 22 23 23 23 23
12 12 13 13 13 13 13 13 13 13 14 13 14 15 14 15 17 14 12 17 24 29 31 31 30 29 31 32 32 31 28 26 24 21 19 18 19 19 19 18 19 21
13 13 13 13 13 13 13 13 13 13 13 13 14 14 13 16 18 16 16 22 28 29 29 29 28 28 29 30 29 27 25 21 18 16 14 14 14 14 14 14 15 20
13 14 14 14 15 15 14 14 14 14 13 13 14 15 15 18 22 22 22 25 27 26 26 27 27 28 29 28 26 23 19 17 15 13 11 10 10 11 12 13 15 18
14 15 15 15 15 15 15 15 14 14 15 14 14 16 19 22 24 23 23 25 25 23 23 25 26 26 25 23 20 17 15 13 12 11 10 10 11 13 14 16 16 15

ECMWFNIL_850_spd_036.txt.gz
Wind_Speed
20 19 18 17 13 11 11 9 8 8 8 8 7 6 5 3 0 1 1 2 3 3 3 3 4 4 4 5 5 3 5 6 6 7 7 7 8 8 8 7 6 6
19 19 18 18 15 13 12 11 11 10 9 10 9 8 8 6 2 1 2 2 1 1 1 1 2 2 2 2 2 2 4 5 5 6 6 7 8 8 8 8 7 6
19 17 16 17 16 13 12 12 13 11 10 10 10 10 11 10 6 4 4 4 3 3 2 2 2 1 2 2 2 3 3 3 3 4 5 5 6 7 7 7 7 7
19 17 15 15 14 13 12 12 13 13 12 11 11 12 13 12 10 8 7 6 6 6 4 5 4 4 5 4 3 4 3 3 3 4 4 3 4 5 6 6 6 6
18 18 16 14 13 13 12 12 12 13 13 12 12 13 13 14 14 11 10 9 8 8 8 7 7 7 7 6 5 5 5 5 4 4 4 4 4 3 2 3 4 4
17 16 15 14 14 13 13 13 12 12 12 11 12 13 13 15 16 15 14 13 12 12 11 11 10 9 9 9 8 8 7 7 7 5 4 5 6 4 3 3 3 3
16 15 14 15 15 14 13 14 13 12 12 12 12 13 14 15 16 17 17 16 15 14 14 14 13 12 12 11 10 10 9 8 9 8 5 6 8 7 6 6 4 3
17 16 15 15 15 15 14 14 14 14 14 14 14 15 16 16 17 18 18 18 17 17 15 15 15 14 14 13 12 11 11 10 10 11 8 6 9 10 8 8 5 2
17 16 15 15 16 17 16 15 16 16 16 16 16 18 18 18 18 19 20 20 19 19 17 16 15 14 14 14 13 12 12 12 12 13 11 8 11 12 9 9 9 6
17 16 16 17 20 21 18 17 18 18 18 18 19 20 20 20 19 20 22 22 21 21 19 17 16 15 14 15 14 12 12 13 13 15 13 10 12 13 9 9 12 11
17 17 17 19 22 23 20 20 22 23 22 22 23 24 25 25 23 23 24 25 24 23 21 19 18 17 15 16 16 13 11 12 13 14 13 10 13 14 10 11 14 13
10 12 13 16 19 20 20 21 24 25 23 22 23 26 29 31 29 27 27 27 25 24 23 21 20 18 17 17 17 16 14 13 14 14 13 11 12 13 11 14 16 14
3 5 6 9 13 16 18 19 22 22 20 19 22 25 29 31 29 27 27 26 26 25 24 23 22 21 20 19 18 18 17 16 15 16 15 13 12 13 13 15 16 15
1 3 3 5 8 11 13 15 17 18 18 19 21 24 27 28 27 26 26 26 26 26 26 26 26 25 24 21 19 19 20 20 20 20 18 15 15 15 15 15 16 15
1 2 3 4 5 6 9 11 12 13 14 15 17 20 24 26 25 24 25 25 25 26 28 29 28 28 26 23 22 21 20 22 23 23 22 19 17 16 16 16 17 17
1 3 4 4 5 5 7 9 10 11 12 12 13 16 19 23 23 22 22 24 25 26 27 27 28 28 26 25 25 25 24 24 23 23 23 22 19 17 16 17 18 18
2 3 4 5 6 6 8 9 9 11 13 13 14 15 16 17 19 19 19 21 23 23 23 24 27 27 26 26 28 28 27 26 25 24 25 23 19 17 17 17 15 15
4 4 5 6 7 7 8 9 10 11 13 13 14 16 18 17 17 18 18 18 19 19 19 22 25 26 27 28 29 29 27 26 26 26 26 23 20 19 19 17 15 16
4 5 6 7 7 8 8 9 10 11 12 13 14 15 17 18 18 17 17 18 18 17 18 20 21 22 25 26 27 28 28 27 27 28 28 26 24 21 20 19 19 20
5 6 7 7 8 8 9 9 10 11 12 13 14 15 15 17 19 19 18 18 17 17 19 19 18 18 21 22 24 27 28 28 29 29 29 29 26 23 22 21 22 23
7 7 8 8 9 9 10 11 11 11 12 13 13 14 14 16 18 19 19 17 16 17 19 19 18 20 21 21 23 24 25 27 29 30 30 29 28 25 24 24 24 24
7 8 9 9 10 10 11 11 11 12 12 13 13 14 14 15 17 18 18 18 19 20 20 19 20 22 22 22 22 21 22 24 27 29 30 29 27 25 24 25 25 23
8 9 10 10 10 11 12 12 12 13 13 13 13 14 14 15 16 17 19 22 23 21 20 20 22 22 23 22 20 20 21 23 26 28 28 27 26 24 23 23 21 21
9 10 10 11 11 12 12 12 13 13 13 13 14 13 14 16 18 19 22 24 24 22 21 21 22 22 23 22 21 21 23 24 26 26 24 23 22 21 20 18 16 17
10 11 11 12 13 13 14 15 15 15 14 14 14 14 16 19 20 21 23 25 24 22 20 19 19 21 21 22 22 23 23 24 24 23 22 20 19 17 16 15 16 17
11 11 12 12 13 13 14 14 15 15 15 14 15 17 20 23 22 21 22 23 22 21 19 17 18 18 19 20 21 22 22 21 21 20 19 18 17 16 17 18 18 19

ECMWFNIL_850_spd_039.txt.gz
Wind_Speed
17 15 14 15 14 13 12 12 10 9 9 10 10 10 10 10 9 9 8 8 8 8 8 8 7 6 6 8 8 8 8 8 8 8 8 7 7 6 6 5 4 4
17 16 15 14 14 13 11 10 9 9 7 5 5 6 7 7 7 7 6 6 6 5 5 5 5 5 4 5 6 6 6 7 7 7 7 8 8 7 7 7 7 7
18 17 16 14 13 12 11 10 9 8 8 7 5 3 2 3 3 3 3 3 3 3 3 3 3 2 2 3 4 5 5 6 6 6 7 7 7 7 7 7 8 8
19 18 17 15 13 11 10 11 10 8 9 9 7 6 4 2 1 1 1 1 1 1 1 1 0 0 1 1 2 3 3 3 4 4 5 5 5 5 6 6 6 7
18 17 16 16 14 11 9 10 11 10 9 8 8 8 7 6 5 4 4 4 4 4 4 3 2 3 3 2 3 3 3 2 2 2 1 3 3 4 4 4 4 5
16 15 13 13 14 12 10 9 10 10 10 9 8 8 9 8 8 7 6 6 7 6 6 6 6 6 6 5 5 5 5 5 4 3 3 2 1 2 2 1 2 2
16 15 13 13 14 13 10 9 10 9 9 8 7 7 8 8 9 9 9 9 9 8 8 8 8 8 8 8 7 7 7 7 6 5 6 5 4 3 2 1 1 1
20 18 16 16 16 14 12 12 12 12 11 10 8 8 8 9 10 10 11 11 11 11 9 10 11 10 10 10 9 9 9 9 9 7 7 7 7 7 6 5 4 4
20 18 18 18 18 16 14 15 16 16 15 13 12 11 10 9 10 11 12 13 13 12 11 12 12 12 12 12 12 11 10 10 11 10 9 9 9 9 9 8 6 6
18 17 17 18 18 15 16 19 20 19 18 15 14 14 13 12 12 13 13 14 14 13 14 14 14 14 14 14 14 14 12 11 11 12 11 11 11 11 12 12 10 8
16 16 17 20 21 18 18 22 23 22 21 19 17 17 16 15 15 16 16 15 15 15 16 16 15 15 16 16 17 17 16 14 12 12 12 12 12 12 13 14 12 10
15 16 18 21 23 20 20 22 24 24 24 22 20 20 18 16 16 19 20 18 18 20 19 18 18 17 17 19 20 18 18 18 16 14 14 14 13 13 13 15 14 13
12 13 15 18 19 18 18 20 21 23 22 21 20 19 18 17 16 19 21 20 22 24 24 23 22 21 22 23 23 20 19 21 21 19 17 16 16 14 13 14 16 16
4 4 5 7 9 10 12 14 15 16 16 17 17 16 16 16 17 18 19 20 22 23 24 24 25 26 26 26 25 22 21 21 22 23 22 19 18 17 15 15 17 18
2 2 0 0 1 3 4 6 7 8 9 11 12 11 12 13 15 15 16 18 20 21 22 23 25 27 27 27 27 26 23 22 22 24 26 24 22 20 19 18 18 18
2 1 2 3 2 1 2 3 3 4 5 6 7 6 7 9 10 11 11 13 15 17 19 20 23 26 26 27 28 28 27 26 24 23 26 29 26 23 22 21 20 19
4 3 2 2 2 2 3 4 5 6 7 8 8 8 8 9 9 9 9 11 13 13 15 17 19 22 24 25 27 29 29 28 27 23 23 27 28 25 24 23 22 19
4 4 5 5 4 4 4 5 6 7 8 8 8 8 8 10 11 12 12 12 12 13 13 14 14 16 18 21 24 27 28 28 28 25 23 25 26 25 25 24 22 20
6 6 6 6 6 6 6 7 8 9 9 9 9 9 9 10 11 12 14 14 14 14 14 14 14 15 16 18 20 23 26 28 29 26 23 24 25 25 25 24 23 23
3 4 5 6 7 8 8 9 9 10 11 10 11 11 11 10 10 10 12 14 14 14 14 15 16 16 16 17 19 21 24 27 28 24 21 23 24 24 25 24 24 23
4 4 4 5 5 6 7 8 9 10 11 11 11 12 12 12 10 10 11 13 14 15 16 16 16 16 16 17 18 20 20 21 22 21 21 23 24 24 24 23 22 21
4 4 5 6 6 7 7 8 9 9 10 11 12 13 13 13 12 11 12 13 15 16 18 18 17 17 18 18 19 19 18 17 17 17 19 22 23 24 24 23 22 20
5 6 6 7 8 8 9 9 9 9 9 10 11 13 14 14 13 13 14 16 17 18 18 18 19 19 20 20 19 19 18 17 15 14 15 17 20 23 24 22 19 19
9 10 10 10 10 9 9 10 10 10 10 11 12 13 14 15 15 15 16 17 18 19 19 18 19 19 19 19 18 17 17 16 16 15 16 17 19 21 21 19 18 18
11 12 13 13 14 14 14 14 15 16 16 16 16 17 17 17 18 18 19 19 19 20 20 19 18 18 17 15 15 15 15 16 17 18 18 19 20 20 19 18 19 19
12 13 13 13 14 14 15 16 15 15 15 15 16 18 19 19 20 20 20 20 19 19 19 18 17 16 14 13 13 14 15 17 19 19 19 20 20 19 17 17 18 19

ECMWFNIL_850_spd_042.txt.gz
Wind_Speed
17 16 16 17 16 14 15 15 14 13 13 14 14 14 14 14 13 12 11 11 9 8 8 9 10 9 9 9 8 8 7 7 7 6 5 5 5 4 3 2 1 2
20 17 15 17 17 15 15 15 15 14 13 13 12 12 13 13 13 12 11 11 10 8 7 7 8 8 8 8 7 7 7 6 7 6 6 6 6 6 6 4 4 4
22 19 16 17 17 16 16 15 14 14 12 12 12 11 11 11 11 11 10 9 8 7 6 5 5 5 6 6 5 5 5 5 5 5 6 6 7 7 7 6 6 5
23 19 16 16 15 15 15 14 13 12 11 10 9 9 9 9 9 9 9 8 7 6 5 4 3 2 2 2 3 3 3 4 4 3 4 4 5 6 6 6 5 6
21 19 16 14 13 13 15 14 12 11 10 10 8 7 7 6 6 7 7 7 6 6 5 4 3 2 1 1 0 0 1 2 2 2 3 3 2 3 4 4 4 4
19 18 16 16 15 14 14 14 13 12 11 11 10 9 8 7 5 5 5 5 5 5 5 4 3 2 2 2 2 2 3 2 3 2 2 2 2 2 2 2 2 1
20 19 18 18 17 15 14 13 14 14 13 13 12 11 10 8 7 5 3 3 3 4 4 4 3 3 2 3 3 4 4 4 5 5 5 4 4 3 2 2 2 3
22 22 20 19 19 18 15 15 16 15 15 14 12 12 12 10 7 6 4 5 5 4 4 4 3 3 3 4 4 5 5 5 6 7 7 7 7 5 4 4 4 4
24 23 21 20 21 20 18 19 20 17 16 15 15 15 15 13 10 8 6 7 8 8 8 7 6 5 5 6 6 6 7 6 6 7 7 8 9 8 7 7 7 6
24 23 22 22 22 21 20 21 21 19 18 18 19 19 18 16 13 11 10 10 11 11 11 10 9 8 8 8 8 8 8 8 7 7 7 7 8 8 9 9 9 9
24 24 25 24 23 23 23 21 20 21 23 23 22 21 20 19 15 13 14 15 14 14 14 13 12 12 12 12 11 11 11 11 10 10 9 9 8 9 10 10 10 10
24 23 22 23 22 22 22 20 19 22 25 24 23 21 19 20 18 17 17 18 17 15 15 15 15 15 15 15 14 15 15 15 14 14 14 13 12 11 11 11 11 11
20 18 17 19 19 19 21 21 21 22 24 24 22 19 18 19 20 19 19 20 19 17 17 17 17 17 17 18 18 18 18 18 17 17 17 16 15 15 14 14 13 13
16 15 15 16 17 17 20 23 22 21 23 24 24 23 23 22 21 20 20 21 21 21 21 22 22 22 22 22 22 21 20 20 20 20 19 19 18 18 18 18 17 16
11 12 11 10 10 12 14 17 17 16 16 17 18 19 19 19 19 18 19 20 20 21 20 21 23 25 25 25 25 24 23 22 22 22 21 20 20 20 20 21 21 19
8 7 6 4 3 4 5 6 7 7 7 7 7 8 8 9 10 10 10 11 12 13 15 16 18 20 21 22 22 22 22 22 22 23 22 21 20 21 23 24 24 23
7 6 5 3 3 3 4 4 5 5 5 4 5 5 6 7 8 8 7 6 6 7 9 11 13 15 17 18 19 20 20 20 21 22 22 22 22 22 23 25 26 25
7 6 6 5 5 5 4 4 4 4 4 5 5 6 7 7 8 9 8 7 7 7 8 9 11 12 14 15 16 17 17 18 20 21 22 23 25 25 24 24 26 27
8 7 7 7 7 6 5 5 5 5 5 5 6 7 8 8 8 9 8 8 7 7 9 11 12 13 13 13 14 14 15 17 18 18 19 20 21 23 23 23 25 27
8 9 9 10 10 10 10 10 9 8 8 9 9 9 9 9 9 10 10 10 10 9 10 12 12 13 13 14 14 14 14 14 15 16 18 19 19 18 20 23 26 27
5 6 7 8 9 10 11 11 11 11 10 10 11 12 12 12 12 12 12 13 13 11 11 12 12 13 13 14 14 15 14 14 14 14 15 17 16 14 17 23 27 27
5 5 6 6 6 7 8 8 9 9 9 9 9 10 11 12 13 13 13 14 14 13 12 13 13 14 14 14 14 15 16 15 13 11 10 10 10 11 15 23 27 26
6 6 7 7 7 8 9 10 11 11 10 10 10 10 10 11 12 12 12 13 13 13 13 13 14 14 15 15 15 16 16 14 10 7 6 7 9 11 15 20 23 23
8 8 9 9 10 11 11 12 12 12 12 12 12 12 13 15 15 15 14 14 13 13 13 13 14 15 15 15 15 15 14 11 8 6 6 8 11 13 15 17 20 22
11 12 12 13 13 14 14 14 14 15 15 16 16 17 17 18 18 18 17 16 15 14 14 14 14 15 15 15 14 13 12 10 8 7 8 9 12 15 16 17 19 21
12 13 14 15 15 15 16 16 16 17 18 18 18 18 18 17 18 18 18 17 15 15 15 15 14 14 14 13 12 11 10 9 8 9 10 12 14 16 17 18 19 20

ECMWFNIL_850_spd_045.txt.gz
Wind_Speed
19 17 18 17 15 13 12 11 11 11 11 10 10 9 9 9 9 9 9 9 9 8 8 8 8 7 7 8 8 8 8 8 8 8 8 7 6 5 5 5 4 4
20 19 19 18 17 15 14 14 13 12 12 11 11 11 10 10 9 9 9 9 10 9 9 8 8 7 7 7 7 7 7 8 8 9 9 8 7 7 7 6 4 4
22 20 19 18 18 17 16 16 15 13 12 12 12 11 10 9 9 8 8 7 7 7 7 7 6 6 5 5 5 5 5 6 7 8 8 8 8 8 7 7 6 6
23 20 18 16 16 17 17 16 16 15 14 13 11 10 9 8 7 7 6 5 4 3 3 4 4 4 3 3 3 2 2 3 4 4 6 6 7 7 7 7 6 5
23 21 18 14 14 16 17 17 17 16 14 12 10 9 9 8 7 6 5 4 4 3 2 2 2 2 2 2 1 1 1 1 0 1 1 3 4 4 4 5 5 4
24 23 20 14 13 15 16 16 16 15 14 11 9 7 6 5 5 4 4 4 4 4 4 4 3 3 2 2 3 2 2 2 2 2 2 2 2 2 2 3 3 3
25 25 21 15 13 14 14 14 14 14 12 9 7 6 5 5 4 3 3 3 4 4 4 5 5 5 4 4 4 3 3 3 4 4 4 4 4 3 3 3 2 2
23 23 21 16 15 15 13 14 14 13 11 10 9 8 8 7 6 6 6 6 7 6 6 6 6 6 5 5 4 5 4 4 4 4 5 5 5 5 5 5 4 3
20 19 18 17 18 16 14 15 14 13 13 12 12 11 10 9 9 9 10 10 10 9 9 9 8 8 7 7 6 5 6 5 5 5 5 5 4 4 5 5 5 5
20 18 19 20 21 18 17 17 16 15 15 14 14 14 12 12 12 13 15 15 13 13 13 12 11 11 11 10 8 7 7 7 7 8 7 6 5 4 5 5 5 5
19 18 21 23 21 20 19 19 17 17 16 16 17 17 16 17 17 19 20 21 19 17 17 16 15 15 14 13 12 11 10 10 9 9 10 9 9 8 7 7 6 6
18 19 23 22 20 19 20 20 19 18 18 20 21 21 21 21 21 22 22 23 23 22 22 22 19 18 18 17 16 15 15 14 14 13 13 13 13 12 11 10 9 8
18 21 22 21 19 19 19 20 20 21 22 22 23 24 24 23 23 23 22 22 23 23 25 24 22 20 21 20 19 19 19 18 18 18 17 17 16 16 15 14 13 12
18 19 19 18 18 20 21 21 22 23 23 23 24 25 24 24 24 23 22 23 23 24 24 22 21 21 22 22 22 22 22 21 20 20 20 20 20 19 18 17 16 15
15 17 17 17 18 19 20 21 21 22 22 23 24 23 23 23 23 22 22 24 24 24 23 21 22 23 24 24 25 25 25 25 24 23 22 21 21 21 20 20 19 18
8 10 11 11 10 10 10 11 12 13 14 15 15 14 14 15 15 15 16 18 18 17 17 18 19 20 21 21 21 21 22 23 23 22 21 20 20 20 21 22 21 21
8 9 10 9 8 7 7 6 6 7 7 7 6 6 7 7 8 8 9 10 10 10 9 9 10 12 13 14 15 17 19 20 21 21 20 19 19 20 21 20 21 22
8 8 8 7 7 7 6 6 6 6 6 5 5 5 5 5 5 6 7 8 9 10 8 7 7 8 9 10 10 13 16 17 18 19 19 19 20 20 20 20 21 21
5 5 5 4 4 5 4 4 4 4 5 5 5 5 6 6 7 7 8 9 9 10 10 10 9 8 9 9 8 9 11 12 12 13 15 16 16 16 17 19 20 21
5 5 4 4 5 5 5 5 5 5 5 6 6 7 8 9 9 10 11 11 11 11 11 11 11 10 9 9 9 9 10 10 10 10 11 12 13 13 14 14 15 17
7 6 6 6 6 6 6 7 7 8 8 9 9 10 11 11 12 12 13 13 13 13 12 12 11 10 9 9 10 11 11 11 11 11 10 10 10 10 10 10 10 12
8 7 7 7 7 6 6 6 7 8 9 9 10 10 10 10 10 11 11 11 12 12 12 12 11 10 10 10 11 11 12 13 13 11 9 9 9 9 8 7 8 10
8 8 8 8 7 7 6 7 8 9 10 11 10 10 10 10 10 11 12 13 13 13 12 11 11 10 10 10 11 12 13 13 12 11 10 10 9 8 6 6 7 10
9 9 9 9 9 8 8 9 9 10 11 12 12 12 12 13 14 14 16 16 16 16 14 13 11 10 10 10 10 11 12 12 12 11 11 10 8 7 6 7 9 11
9 9 10 10 10 10 10 11 11 12 13 14 15 15 15 15 16 16 16 16 16 17 17 15 13 12 11 10 10 10 10 10 10 10 9 8 8 7 7 9 11 13
10 9 9 9 10 11 12 13 14 14 15 15 16 16 16 16 16 16 17 18 19 19 18 16 14 13 12 12 11 10 9 9 9 9 9 8 8 8 9 11 13 14

ECMWFNIL_850_spd_048.txt.gz
Wind_Speed
12 11 11 10 9 8 6 4 5 6 7 9 10 10 10 10 9 8 7 7 7 7 8 8 8 8 9 9 10 10 10 9 8 9 9 8 8 8 8 7 7 7
13 12 12 11 10 9 8 6 7 8 8 9 9 10 10 10 9 9 8 8 8 7 8 7 7 7 7 8 8 9 9 9 9 9 9 9 9 9 9 9 8 8
13 12 12 11 10 11 10 8 9 9 9 9 9 9 9 9 9 8 8 8 7 6 6 5 4 4 4 5 6 6 8 8 8 8 8 9 9 9 9 9 9 9
12 12 12 11 11 11 11 10 11 11 11 10 9 9 8 8 7 7 6 5 5 4 4 3 2 1 1 2 2 3 4 5 5 5 5 6 7 7 7 8 8 8
14 13 12 11 11 12 12 12 12 12 12 10 9 8 7 6 5 4 3 2 1 1 1 0 1 2 2 2 2 2 2 2 3 3 2 3 3 4 4 5 5 6
17 15 13 13 13 12 13 13 12 12 12 11 10 8 7 6 4 3 2 1 0 1 2 2 3 3 3 4 3 3 3 2 2 2 2 2 1 2 2 2 2 3
19 16 15 16 14 11 12 13 13 13 12 11 10 9 7 6 4 3 2 1 0 1 2 3 4 4 4 4 4 4 4 3 4 4 3 3 3 3 2 2 2 2
19 17 17 17 15 13 12 12 12 13 13 11 10 10 8 6 4 3 3 2 3 3 3 3 4 5 5 5 5 5 4 4 4 5 5 4 4 3 3 3 3 3
19 18 18 18 16 15 13 11 11 13 13 12 11 10 8 6 5 6 6 6 6 6 6 6 6 7 7 7 7 6 6 6 5 4 5 5 4 3 3 3 4 4
18 18 17 17 17 17 15 13 12 13 14 14 12 11 9 8 8 9 9 9 9 9 10 10 9 9 9 9 8 8 8 8 8 7 6 5 4 4 4 4 4 4
18 18 17 16 18 19 17 15 14 13 14 15 14 13 13 12 11 12 13 12 12 14 15 14 12 12 12 13 13 13 12 11 12 11 10 8 7 6 6 6 6 6
18 19 17 17 19 19 18 17 16 15 15 16 15 15 16 15 14 15 16 14 16 19 20 19 19 18 17 17 17 18 17 16 17 17 15 13 12 11 11 10 8 8
18 18 17 18 20 20 20 21 19 17 17 17 16 16 17 16 16 17 18 17 19 21 22 23 23 23 22 21 20 20 19 19 20 21 20 17 16 16 16 15 13 12
14 15 16 19 21 21 21 21 20 17 15 15 16 16 16 17 18 20 20 20 21 23 23 23 24 24 24 23 22 19 18 18 20 20 20 18 18 18 18 17 17 16
10 12 15 18 19 19 19 18 16 15 15 15 16 16 16 18 20 21 21 22 23 24 23 23 23 24 24 24 23 21 20 20 20 20 20 21 21 21 20 18 17 17
11 13 15 16 17 17 17 15 14 15 17 18 19 18 18 19 20 20 20 19 18 18 19 18 18 19 19 18 18 17 18 18 18 19 20 21 22 21 20 18 17 17
11 12 13 15 16 15 13 11 9 10 10 12 14 14 13 14 14 13 11 10 10 10 10 10 10 10 8 8 8 10 11 12 13 15 16 17 18 19 19 19 18 19
11 12 12 12 12 11 9 7 6 5 4 4 5 6 5 6 6 6 7 7 8 8 8 8 9 9 7 5 6 8 8 8 9 10 11 12 14 15 16 17 18 19
9 10 10 9 8 7 6 4 3 3 2 2 2 2 3 4 5 6 7 8 8 9 9 9 10 10 9 6 6 7 8 8 8 8 9 10 11 12 12 14 15 15
6 6 6 5 5 5 4 3 3 2 2 1 2 3 4 6 7 9 9 10 10 11 11 10 10 10 10 8 7 8 9 9 9 9 9 10 11 11 11 12 13 13
5 5 5 6 6 6 5 5 5 5 4 4 5 5 6 8 9 10 10 10 10 11 11 12 12 12 12 10 10 10 10 11 11 10 10 10 11 11 11 12 12 12
7 7 8 8 8 8 7 7 7 7 6 5 5 5 5 6 6 6 7 7 8 8 9 9 10 11 12 12 12 12 12 12 12 11 11 10 10 11 11 11 11 10
7 7 7 7 8 8 7 7 7 6 5 4 3 3 4 4 5 5 6 8 9 9 9 9 9 9 9 10 10 11 11 11 11 10 10 10 10 10 9 9 9 8
5 5 5 6 6 7 7 7 7 6 5 4 4 4 4 5 6 7 8 9 9 10 10 11 12 11 9 9 9 9 9 9 9 9 9 9 9 8 8 7 6 6
5 6 6 6 6 7 7 7 7 7 6 6 6 6 7 7 8 8 9 10 11 12 13 14 13 11 9 8 8 8 8 8 8 8 8 8 8 7 6 6 5 6
13 14 14 13 13 12 11 10 9 9 8 8 8 8 8 8 9 9 11 12 14 15 16 16 13 10 7 7 7 7 7 7 7 7 7 8 7 6 6 6 7 8

ECMWFNIL_850_spd_051.txt.gz
Wind_Speed
6 3 1 0 2 2 2 3 5 7 8 8 9 10 10 10 10 10 10 10 11 12 12 13 13 13 13 13 13 13 13 13 13 13 12 12 11 11 10 9 9 9
8 5 4 2 1 1 1 4 6 8 9 9 10 10 10 9 9 10 10 10 10 11 11 11 11 11 11 12 12 12 12 12 12 13 12 13 13 12 12 11 11 11
10 8 6 4 2 1 2 5 8 9 10 10 11 10 10 10 10 9 9 9 9 8 8 8 8 9 9 9 9 9 10 10 10 11 11 11 11 11 11 11 11 11
12 11 9 6 4 3 4 7 9 10 10 11 11 10 10 10 9 9 8 7 6 6 6 6 6 7 7 8 8 8 8 8 8 8 8 8 9 9 9 9 9 9
13 12 10 8 7 5 6 9 10 10 11 11 11 10 10 9 8 7 6 5 5 5 5 6 6 6 7 7 7 8 8 7 7 7 7 6 6 7 7 7 7 7
14 14 12 10 9 8 9 11 11 11 11 11 11 10 9 9 8 7 6 5 5 6 6 6 6 6 6 7 7 7 8 7 7 7 7 6 6 5 5 5 5 5
17 15 14 12 11 10 11 12 13 13 12 11 11 10 9 8 8 7 6 6 5 5 5 5 5 5 6 6 6 6 6 6 6 6 6 6 6 5 5 4 4 4
18 16 14 13 13 13 13 13 14 14 13 13 12 11 10 9 8 7 6 4 3 3 2 1 2 2 3 3 4 4 4 4 4 4 5 5 6 5 5 4 4 4
17 17 16 15 15 15 14 12 14 15 15 14 13 12 11 10 9 7 6 5 4 3 2 1 1 2 1 0 0 1 3 3 3 3 3 3 4 4 4 4 4 4
17 17 17 17 17 16 15 13 14 16 16 16 14 13 12 10 9 9 8 6 5 5 4 4 5 6 6 4 3 3 5 6 7 6 6 5 5 4 4 5 5 5
19 17 17 17 18 17 16 15 15 15 16 16 15 14 13 11 11 11 10 8 8 8 8 8 8 9 10 10 9 8 8 10 11 12 11 9 9 8 8 8 7 6
19 17 16 17 17 17 17 18 17 15 16 16 16 15 14 13 13 13 12 11 11 11 10 10 11 12 13 15 16 15 15 14 15 15 16 15 14 13 13 12 10 9
15 15 15 16 17 16 18 19 18 17 16 16 15 14 14 14 14 14 14 14 14 13 13 12 13 14 16 17 19 19 19 19 18 17 17 17 16 16 16 15 13 12
9 12 13 15 16 16 17 19 19 19 18 16 15 15 14 14 14 15 16 16 16 15 15 15 15 17 18 19 19 18 19 20 19 17 17 16 16 16 16 15 14 14
8 10 12 13 15 17 19 21 21 21 20 17 15 15 14 14 14 15 15 15 16 16 17 18 19 19 18 18 18 18 18 19 18 17 16 17 17 16 16 16 17 17
8 10 12 13 15 18 20 21 20 20 19 16 14 14 14 13 13 14 15 15 16 15 15 14 13 12 11 11 11 12 12 12 12 12 13 13 14 14 14 14 15 16
8 9 11 12 14 16 17 17 18 18 18 17 16 16 16 15 14 14 13 12 10 9 7 6 5 5 4 4 4 4 5 6 7 8 9 10 10 11 12 12 13 15
10 10 11 13 13 14 13 13 14 14 14 14 13 12 11 11 9 8 7 6 5 5 4 3 3 4 4 4 5 5 5 6 6 6 7 8 9 10 11 11 12 14
8 9 10 11 11 10 10 9 9 9 9 8 8 7 7 8 8 7 6 6 5 4 4 4 4 4 4 5 6 7 7 7 8 8 8 9 10 11 11 11 11 12
8 9 9 9 9 9 8 8 9 9 9 9 9 9 9 8 8 7 6 5 5 5 5 5 6 6 5 5 6 7 8 8 9 10 10 10 11 11 11 11 11 11
7 8 8 9 9 9 9 9 9 10 10 10 9 8 7 7 6 6 6 5 4 4 4 4 4 5 5 6 6 7 8 9 10 11 12 12 11 10 10 10 10 10
7 7 7 8 8 8 8 8 8 8 8 8 7 6 6 6 5 5 4 3 3 2 3 4 4 5 5 6 6 7 9 10 11 11 11 10 9 9 9 9 9 9
7 6 6 7 7 7 7 8 8 7 7 6 5 5 4 3 3 2 2 3 4 4 5 5 6 7 7 7 7 7 8 9 10 10 9 8 8 8 8 8 7 7
6 5 5 5 5 6 7 7 7 7 6 5 4 4 3 3 3 4 5 6 6 7 7 8 8 8 9 9 8 8 8 8 8 8 8 8 8 8 7 6 6 5
6 6 5 4 4 4 4 4 5 5 5 5 5 5 5 5 6 6 7 8 9 9 10 10 10 10 10 10 9 8 7 7 6 7 7 8 8 6 5 4 4 5
12 13 13 12 11 11 11 11 12 11 10 9 9 8 8 8 8 9 9 9 10 11 11 12 12 11 10 9 8 8 7 6 6 6 7 7 6 4 3 3 3 4

ECMWFNIL_850_spd_054.txt.gz
Wind_Speed
10 11 12 12 11 10 11 11 12 14 15 16 15 14 14 13 14 14 13 13 13 13 14 13 13 14 14 15 14 13 12 13 12 11 11 10 10 9 9 9 9 9
10 9 11 12 11 10 10 11 12 14 16 16 16 16 15 15 15 15 14 14 13 13 13 13 12 13 13 13 14 14 13 13 13 13 12 12 11 11 11 11 11 11
10 9 9 11 11 10 10 11 12 14 16 16 17 17 16 16 15 15 14 14 12 11 11 11 11 11 11 11 11 11 11 12 12 11 11 11 11 11 11 11 11 11
11 9 9 10 11 11 10 11 12 14 16 16 17 17 16 16 15 14 13 12 11 10 9 9 9 9 9 9 9 9 9 9 9 9 9 9 9 9 10 10 10 11
12 10 10 11 12 11 11 11 12 14 16 16 17 17 17 16 15 14 12 11 10 9 8 8 8 8 8 9 9 8 8 8 7 8 8 7 7 7 7 8 8 9
12 10 11 12 12 12 11 12 13 15 16 17 17 17 16 16 15 13 12 10 10 9 8 8 8 8 8 8 9 8 8 7 7 8 6 6 6 5 6 6 6 6
13 12 12 13 13 12 12 13 14 15 16 17 17 17 16 15 14 13 11 11 10 9 8 8 8 8 8 8 8 8 7 6 7 7 5 4 5 4 5 5 4 4
14 13 13 13 13 13 13 14 15 16 17 17 17 17 16 14 13 13 12 11 10 9 8 8 8 8 8 8 7 7 7 6 6 6 4 3 3 3 3 3 4 3
13 12 13 14 14 13 14 15 17 17 18 18 17 16 15 14 14 13 12 11 10 9 8 7 7 7 6 6 6 5 5 4 3 3 2 2 2 2 2 2 3 3
11 10 12 14 14 13 14 16 17 18 18 18 18 16 16 16 15 14 13 11 10 9 8 8 8 6 5 5 6 5 4 4 3 2 2 2 3 3 4 4 3 4
10 10 11 13 14 14 15 16 16 17 19 19 18 18 17 17 16 14 13 12 11 10 8 8 8 7 6 6 7 7 6 5 5 5 6 7 7 8 8 7 6 6
11 10 10 12 13 14 16 17 16 17 19 19 19 19 19 18 16 15 14 12 11 10 9 8 8 7 6 6 7 8 9 10 10 10 10 10 10 11 12 12 11 9
11 10 9 11 12 14 17 19 18 17 19 21 21 21 20 18 16 14 14 13 11 10 10 9 8 8 7 7 8 10 12 12 13 13 12 11 12 12 13 14 13 12
9 9 10 11 13 14 17 18 18 18 18 20 21 21 20 18 15 14 14 13 12 11 11 12 12 11 11 12 12 13 13 13 13 12 11 11 12 11 12 13 13 13
9 10 11 12 13 14 15 17 18 18 18 18 19 19 18 16 14 14 14 14 13 13 14 14 13 13 15 15 14 14 13 12 11 11 10 10 10 10 11 12 13 14
8 9 10 11 11 12 13 14 15 16 16 15 15 17 16 14 13 14 14 13 13 13 14 14 14 14 13 11 9 8 7 6 6 5 5 6 7 7 8 9 10 12
6 7 8 9 10 11 12 14 15 15 14 13 12 13 12 11 10 11 11 11 12 12 12 11 10 8 5 4 3 2 2 2 1 1 2 3 4 5 5 6 7 7
4 5 6 7 7 8 10 12 14 15 15 15 14 12 11 11 10 10 10 10 10 9 9 7 5 4 3 3 3 3 2 2 2 3 3 3 4 5 4 4 5 5
3 4 4 4 5 5 6 7 9 9 11 13 12 11 12 13 11 9 8 8 7 7 6 5 4 4 4 4 4 4 4 4 4 5 4 4 5 5 5 5 6 6
3 3 3 3 3 3 3 3 4 5 5 6 6 6 8 8 7 8 8 7 6 5 5 5 5 5 5 5 5 5 6 5 5 5 5 5 6 7 7 7 7 7
6 5 5 4 4 4 4 4 4 3 3 5 6 6 8 9 9 8 7 6 6 5 6 5 4 4 5 5 5 6 6 5 4 5 6 7 8 7 6 7 7 7
7 7 6 6 6 5 6 6 6 6 7 9 9 9 9 9 8 7 6 6 5 4 4 3 2 2 2 2 4 5 5 5 5 5 6 7 7 6 6 6 6 5
7 7 8 7 7 6 6 7 7 8 8 8 8 8 7 7 7 6 5 5 4 3 2 2 2 2 2 2 2 2 3 4 4 4 5 7 7 6 6 6 5 5
5 6 7 7 7 6 6 7 7 7 7 6 6 6 6 6 5 5 4 4 3 3 3 4 4 4 4 4 4 3 3 3 3 4 5 6 7 7 7 6 5 5
5 6 6 7 8 8 8 8 8 7 6 6 5 5 5 5 4 5 5 5 5 5 4 5 5 6 6 5 5 5 4 3 4 4 3 2 3 5 6 6 5 4
6 7 7 7 7 9 10 10 10 9 8 7 7 7 7 8 6 6 6 6 7 6 6 6 6 6 6 5 5 5 4 3 4 4 3 2 1 2 3 5 6 5

ECMWFNIL_850_spd_057.txt.gz
Wind_Speed
17 16 14 12 12 13 13 14 15 15 15 15 14 14 14 13 13 12 13 12 12 13 13 13 14 13 13 13 12 11 11 12 11 11 12 11 11 11 10 10 11 11
17 16 15 12 11 13 14 15 16 16 16 15 15 16 16 16 16 15 14 14 13 14 14 14 15 15 14 14 14 13 13 13 12 11 12 12 12 12 13 13 13 13
18 17 16 13 12 13 15 17 17 17 17 17 18 19 19 19 18 17 16 14 14 14 14 14 14 14 13 13 13 12 12 12 12 11 12 12 12 12 13 13 13 12
18 18 17 13 13 14 15 17 18 19 19 19 20 21 21 20 19 18 17 15 14 13 13 12 12 11 10 10 10 9 9 9 9 10 10 9 10 10 10 11 11 11
17 18 17 14 14 15 15 17 18 19 21 21 22 22 22 21 20 19 17 15 13 12 11 10 9 9 8 8 7 7 6 6 6 7 6 6 7 7 7 8 8 9
16 16 17 15 15 15 15 17 18 20 21 23 23 23 22 21 20 18 16 14 12 10 9 8 8 8 7 7 7 6 5 4 5 6 5 4 4 4 5 5 5 6
17 16 16 16 15 15 16 17 18 20 21 23 23 22 22 21 18 16 15 13 11 9 8 7 7 7 7 7 6 6 6 5 6 6 4 3 3 3 4 3 3 4
19 16 16 17 16 16 17 18 19 20 21 22 22 22 21 18 16 15 14 12 11 10 9 8 7 7 7 6 6 6 5 5 6 5 4 2 3 3 2 2 3 3
19 17 16 17 18 18 17 18 20 20 20 21 21 21 20 17 15 15 14 12 12 11 10 9 8 7 7 6 6 5 4 4 5 5 4 3 3 3 2 2 3 3
19 18 16 17 19 18 16 17 20 21 20 20 19 19 19 17 15 14 14 13 12 11 10 10 9 8 7 7 6 6 5 4 4 5 4 4 4 4 4 4 3 3
20 20 18 17 19 18 17 18 20 21 21 19 19 19 18 17 16 15 14 13 12 12 11 10 9 8 7 7 7 7 7 6 6 6 6 6 6 6 6 6 5 4
20 21 19 18 20 20 19 18 18 20 21 20 19 19 18 16 16 15 14 13 12 12 11 10 9 8 8 8 8 8 9 9 9 9 9 9 9 8 8 8 8 7
18 19 19 20 21 20 20 19 18 18 19 18 18 18 17 16 16 15 14 14 13 13 12 11 10 10 9 9 9 9 10 11 12 13 13 13 12 10 9 9 9 8
17 18 19 20 22 21 20 19 18 17 17 16 17 16 15 15 15 15 16 16 14 14 13 12 12 12 11 10 9 10 11 13 15 15 15 14 13 11 10 9 9 8
16 17 18 18 19 18 18 18 18 18 17 15 15 16 16 16 16 15 17 17 16 15 14 14 14 13 11 10 11 12 14 16 16 14 13 11 10 8 7 7 7 7
14 14 13 14 15 15 16 17 17 17 17 16 16 18 18 20 20 19 18 15 15 17 17 16 14 12 10 11 12 14 15 14 10 9 8 6 5 4 3 3 4 4
10 10 9 10 12 12 13 15 16 16 17 17 17 19 20 19 20 21 18 14 14 16 17 15 12 10 8 9 9 8 7 5 3 3 3 1 1 1 1 2 1 3
8 9 8 8 10 11 10 12 14 15 15 15 16 17 17 16 17 19 18 15 14 13 11 10 8 6 6 6 5 4 2 1 1 2 3 3 2 1 1 2 2 2
8 8 8 8 10 11 11 11 12 13 13 14 14 14 13 13 15 17 14 12 13 11 6 6 7 7 6 5 4 4 2 0 1 2 1 1 1 1 1 1 1 2
7 7 7 7 8 8 8 9 9 9 10 11 12 13 13 13 13 13 9 5 6 6 5 5 6 6 5 5 4 4 3 2 1 2 1 1 1 2 2 3 3 3
8 7 7 7 8 8 8 8 8 8 7 8 9 10 10 10 9 8 6 4 4 5 4 4 4 5 5 5 6 6 4 3 2 2 1 2 4 4 3 4 4 3
9 8 8 9 8 8 8 7 8 8 8 8 9 8 9 9 8 8 8 7 7 6 3 2 4 4 4 5 6 5 4 3 2 2 2 2 3 3 4 5 5 2
8 8 9 8 8 8 8 8 9 10 10 10 11 10 10 10 8 7 6 6 6 5 3 3 4 4 4 4 4 4 5 4 3 3 4 3 2 0 5 7 5 4
7 7 7 7 7 8 9 10 10 10 10 10 10 9 9 9 8 7 7 6 7 6 3 3 2 2 2 3 3 3 4 4 3 4 4 4 2 1 3 5 5 6
5 6 6 6 6 7 8 9 9 9 9 9 8 9 9 8 8 8 7 7 7 5 4 3 3 2 2 2 2 2 3 4 4 4 5 4 2 2 1 3 4 5
3 4 6 5 5 6 6 7 7 7 8 8 8 8 8 8 8 8 7 7 6 5 5 5 5 4 3 3 3 2 4 5 4 4 5 4 3 4 3 5 5 4

ECMWFNIL_850_spd_060.txt.gz
Wind_Speed
19 17 16 15 15 15 15 14 13 13 12 12 11 11 10 9 8 9 9 10 11 11 11 11 12 13 13 12 11 13 14 14 15 16 15 15 15 15 17 16 13 13
19 18 17 17 16 16 15 15 15 15 13 12 12 12 11 10 10 11 12 12 13 13 14 13 13 13 14 13 13 14 14 14 15 15 16 16 16 17 17 16 14 13
20 18 17 17 17 17 16 16 16 15 14 14 13 12 12 12 13 14 13 14 14 14 14 14 14 13 14 14 13 13 14 14 14 14 15 15 15 16 17 16 14 14
20 19 17 16 17 17 17 18 18 17 16 16 15 14 15 15 16 16 15 15 14 14 14 13 12 12 12 11 11 11 11 11 12 12 13 13 13 14 14 15 15 15
21 21 18 16 17 18 18 19 19 18 18 17 16 17 18 18 18 17 16 15 14 13 12 11 10 9 9 9 8 8 8 8 9 9 9 10 10 11 11 11 13 13
23 22 19 16 17 18 18 20 20 19 19 18 18 19 20 19 19 17 16 15 13 12 10 9 8 8 7 7 7 6 5 6 7 7 6 6 7 8 8 8 8 9
23 23 21 17 16 17 19 20 20 20 19 19 20 21 21 20 19 18 16 14 13 11 9 8 7 6 5 5 6 5 4 6 9 7 4 5 6 6 5 5 6 6
24 24 21 18 16 17 19 20 20 20 20 20 22 22 22 20 19 18 16 14 12 10 9 7 6 5 5 4 4 4 4 7 9 5 1 3 5 4 3 4 5 3
26 26 23 20 18 19 20 20 21 21 21 22 23 23 23 21 19 18 16 14 12 10 8 7 6 5 5 5 3 3 4 5 6 5 3 2 5 4 2 2 3 2
25 25 24 23 22 22 22 21 22 21 21 23 24 24 23 20 17 17 16 13 11 10 8 7 6 5 6 6 5 3 3 2 2 2 2 1 3 4 0 5 2 2
22 22 22 23 25 25 23 22 23 22 22 23 23 24 23 19 16 16 15 13 12 11 9 9 9 8 6 7 6 5 4 3 2 3 3 3 3 4 3 4 4 1
23 23 23 24 24 24 23 23 22 21 21 21 21 21 20 19 16 15 15 13 12 12 11 11 11 10 8 7 6 6 6 7 6 6 6 5 5 5 6 7 6 3
21 22 24 24 24 23 22 20 19 20 20 18 18 18 18 18 17 16 15 14 11 11 12 13 14 12 11 8 6 7 8 8 7 7 8 9 8 8 10 10 9 7
18 18 20 23 25 25 22 18 16 17 18 17 17 17 17 17 16 15 15 15 14 15 15 14 13 14 13 10 9 9 8 8 9 9 12 13 12 9 10 10 9 9
18 17 16 18 22 24 23 20 15 13 15 16 17 17 17 16 16 16 17 17 18 19 18 15 13 13 10 8 7 7 7 9 11 12 12 11 8 6 7 7 7 7
18 18 17 17 18 19 20 20 17 14 16 17 17 17 17 18 18 18 19 20 19 18 17 17 15 11 7 6 7 7 8 9 9 8 6 3 1 2 3 4 5 5
16 16 15 16 16 17 16 17 18 18 20 22 21 21 20 20 20 19 19 20 18 16 17 17 14 11 9 9 9 7 6 5 2 1 2 4 5 5 5 4 4 4
13 13 13 13 14 15 15 15 18 20 22 24 23 22 21 20 19 20 20 18 16 15 15 14 13 14 14 11 8 5 4 4 4 4 4 5 5 6 7 5 3 1
6 6 8 8 9 10 12 14 19 21 22 23 21 19 19 19 19 20 19 16 14 13 13 13 12 13 12 8 6 6 6 6 6 5 5 5 5 5 6 5 4 1
4 5 5 7 8 10 11 14 17 19 20 20 18 17 18 19 19 18 17 17 15 13 13 13 12 11 10 9 8 8 7 7 7 7 7 6 6 7 7 8 8 5
5 6 6 7 9 11 12 13 14 15 16 16 16 15 16 15 14 14 15 15 14 11 11 11 12 12 12 11 10 9 8 8 8 8 6 6 6 6 5 4 7 8
6 6 8 10 9 9 10 11 11 12 13 13 13 12 12 11 10 9 10 11 10 9 9 9 10 11 11 11 11 10 9 9 8 6 5 6 6 5 4 3 4 7
6 6 7 10 9 8 9 10 10 10 10 10 9 9 9 10 12 12 11 11 11 9 8 8 9 10 10 11 11 11 10 10 10 8 9 8 6 5 4 3 5 7
6 6 6 7 7 8 9 9 10 10 9 9 10 10 8 9 12 14 12 11 9 8 8 10 11 11 11 10 10 11 11 11 10 9 11 8 5 4 2 2 4 5
3 5 7 8 8 7 8 9 10 10 9 10 11 11 9 9 11 13 13 12 10 9 10 11 11 10 10 10 10 10 10 11 11 9 8 5 4 5 3 2 3 2
4 2 4 7 7 6 7 8 8 9 10 10 10 11 10 9 11 13 14 14 13 12 11 10 10 10 10 9 9 9 9 11 12 9 8 7 7 9 7 4 5 3

ECMWFNIL_850_spd_063.txt.gz
Wind_Speed
19 18 17 15 15 17 18 18 16 13 12 14 15 16 15 14 12 12 14 15 16 17 17 15 12 11 11 12 13 13 13 13 13 13 12 12 13 14 15 17 18 18
19 18 16 15 16 17 18 17 15 13 13 14 14 14 13 11 11 12 14 16 16 17 17 15 13 12 14 15 15 14 14 14 15 14 13 13 12 12 14 17 19 18
19 17 16 16 17 18 17 15 13 13 13 13 13 13 12 12 14 15 16 17 18 18 17 16 16 15 16 17 17 17 16 16 15 14 13 12 12 13 14 16 18 18
18 17 16 17 17 18 16 14 14 14 13 12 12 12 13 15 17 17 18 19 20 20 19 19 18 18 17 18 18 18 18 17 16 15 14 14 13 14 15 15 16 17
18 18 17 17 17 17 15 15 16 16 14 13 12 13 16 18 19 19 20 20 20 20 19 19 18 17 16 15 15 15 15 15 15 14 14 14 13 13 14 14 15 15
20 19 18 18 18 16 15 16 17 16 14 13 12 15 18 19 20 20 20 20 19 18 17 16 15 15 14 13 12 13 13 13 12 11 11 12 12 12 12 12 12 13
20 19 17 16 16 15 16 17 16 15 14 13 13 17 19 20 21 21 20 18 16 16 15 14 13 13 12 12 11 12 13 11 9 8 10 11 10 9 10 10 10 11
20 18 17 16 15 14 16 17 15 15 14 12 13 17 19 20 20 20 19 17 15 14 13 12 11 11 12 11 10 12 14 11 6 5 8 10 8 7 7 7 7 8
21 19 17 17 15 13 15 16 15 14 13 11 13 17 18 19 19 18 17 15 13 12 11 11 10 10 11 9 8 12 14 12 8 6 7 9 8 7 6 5 6 8
20 17 15 15 15 14 14 14 13 12 10 9 12 16 18 18 18 17 16 13 12 10 9 9 9 10 10 7 8 12 12 11 9 6 8 10 8 6 6 5 6 8
18 17 14 13 13 15 16 15 12 9 7 8 11 15 18 17 16 16 14 12 10 8 7 8 8 9 10 7 7 8 8 7 7 5 6 7 8 9 8 7 6 5
19 18 17 15 15 16 18 16 12 9 7 9 11 14 17 17 14 14 14 12 10 9 8 9 10 10 11 11 9 7 5 5 4 4 4 5 7 9 9 8 6 6
18 18 19 18 17 16 15 12 12 11 11 12 12 14 16 16 13 12 14 13 12 12 12 13 13 13 12 12 10 8 6 5 4 4 5 6 7 9 9 9 9 9
17 17 18 19 19 16 13 13 14 15 15 15 15 14 15 16 14 13 15 15 14 14 15 16 16 15 13 12 10 8 6 4 5 7 7 8 9 10 11 11 12 12
15 16 16 18 19 18 17 17 19 19 18 18 16 14 14 16 16 15 16 17 16 17 17 17 17 16 15 13 11 9 6 5 7 9 9 9 9 9 10 11 12 11
15 17 17 16 18 19 20 22 23 21 21 20 18 17 16 17 19 18 18 19 19 19 18 17 16 15 15 14 12 9 6 5 7 7 5 4 5 7 7 9 11 10
14 16 16 15 17 18 20 22 23 23 24 22 20 21 21 21 22 21 20 20 21 20 19 17 15 14 13 14 12 9 6 6 6 5 3 5 7 8 8 8 9 10
9 10 11 13 16 17 18 20 21 23 26 24 23 25 24 22 23 23 22 21 21 21 20 18 16 14 13 13 13 10 8 8 8 7 7 8 9 9 9 9 9 9
7 9 10 11 13 13 15 20 22 22 23 23 24 26 25 23 22 23 22 21 21 21 21 20 17 15 13 14 13 12 10 10 10 10 10 10 11 11 11 11 10 9
6 7 8 9 11 12 15 21 25 24 23 23 23 24 24 23 21 21 21 21 21 21 20 19 16 14 13 14 14 12 12 12 12 12 12 11 11 11 11 11 10 9
6 6 7 8 9 12 17 22 26 27 26 25 23 21 23 23 22 20 20 21 21 20 18 17 16 16 15 13 13 14 14 14 13 12 12 10 9 10 10 10 9 8
6 6 7 8 9 12 14 17 23 25 26 25 23 20 22 23 23 22 21 21 21 19 18 18 18 17 15 15 16 16 15 14 14 14 13 11 10 11 11 11 10 8
7 8 9 9 8 10 12 13 17 21 21 21 20 20 20 20 19 19 20 20 20 18 17 17 16 15 16 17 17 17 15 15 15 15 14 12 11 9 9 10 10 9
6 6 8 9 8 7 8 10 12 14 15 15 16 17 18 16 16 16 16 16 15 15 15 14 14 16 17 18 17 17 16 17 17 15 13 11 9 8 7 7 8 8
12 8 6 7 7 6 6 7 7 8 9 10 11 11 12 14 15 15 15 15 15 14 13 13 14 16 16 16 17 17 17 18 18 16 13 11 9 9 8 7 6 6
13 11 8 6 6 6 6 6 6 6 7 8 9 8 9 11 13 13 14 15 14 12 12 13 13 14 15 15 16 17 19 18 17 17 16 14 13 12 10 9 7 6

ECMWFNIL_850_spd_066.txt.gz
Wind_Speed
22 21 20 19 19 19 19 18 17 14 13 13 12 11 11 14 17 16 15 13 11 8 6 7 9 10 11 12 12 13 13 13 13 13 14 14 13 12 12 12 11 12
21 21 19 18 19 19 18 17 15 13 13 14 13 12 12 13 15 16 15 13 11 8 8 9 10 11 11 12 12 13 13 12 11 12 13 15 14 13 13 12 11 11
21 20 18 17 18 19 18 17 14 12 13 15 14 13 12 13 14 15 14 13 12 11 12 13 13 13 13 12 12 12 12 11 10 10 12 14 15 15 14 12 12 11
20 18 17 16 18 19 18 16 14 12 13 15 14 12 12 13 15 16 15 14 13 14 16 16 16 16 16 15 15 14 13 11 10 9 11 13 15 16 16 14 13 14
18 17 16 16 18 19 17 16 13 12 13 13 12 11 12 15 17 17 17 16 15 17 18 18 18 18 18 17 17 16 15 14 13 12 12 13 14 15 17 15 15 16
18 17 16 16 19 18 16 14 13 12 11 10 10 12 14 16 18 19 19 19 19 19 19 19 19 18 17 17 16 16 15 14 14 13 13 14 13 14 15 16 16 15
20 18 18 18 19 18 16 14 13 12 9 8 10 13 16 18 18 20 21 20 20 19 19 18 17 17 16 15 16 15 14 13 12 12 12 12 13 13 12 14 16 16
22 21 20 20 20 18 16 15 15 13 10 9 12 15 17 18 19 21 21 19 18 17 16 16 15 15 16 15 16 16 14 12 11 10 11 11 11 11 10 11 14 16
24 23 22 21 19 17 16 17 16 13 11 10 13 17 19 19 20 21 19 18 17 15 15 15 14 14 15 15 15 14 13 12 10 9 10 11 10 10 10 11 13 15
24 24 23 22 20 17 17 17 15 13 11 9 11 17 19 19 20 19 17 16 16 15 14 15 14 13 13 14 14 14 13 12 10 8 10 11 11 11 10 11 13 15
24 24 25 23 20 18 17 16 15 13 11 9 11 16 18 18 19 17 14 14 14 13 13 14 15 14 13 13 15 15 12 11 10 9 10 11 10 10 9 10 12 14
22 24 24 22 19 19 18 17 15 14 12 10 11 14 16 17 17 15 13 12 11 11 12 14 15 14 12 13 15 15 12 11 9 9 10 10 10 10 9 9 9 11
21 22 21 19 18 19 20 19 18 16 14 13 13 15 15 16 16 15 13 13 12 12 13 14 14 13 12 13 14 13 11 10 9 8 9 10 10 11 11 11 10 10
22 21 19 19 19 21 22 21 20 18 16 15 17 19 17 15 15 16 15 16 15 14 15 14 14 13 12 12 12 10 10 10 9 9 9 10 12 13 14 14 13 12
22 20 18 19 21 22 23 22 19 17 17 18 20 22 20 16 17 17 18 19 19 18 18 16 15 14 13 12 11 10 10 10 10 10 11 12 13 15 17 18 18 16
21 20 19 20 20 21 23 23 19 17 19 19 20 23 23 19 20 21 20 21 21 21 20 19 17 16 16 15 13 12 12 12 12 13 13 13 15 16 18 21 21 20
18 18 18 19 20 21 23 24 21 19 21 23 24 25 25 22 23 24 23 22 23 23 22 21 19 18 18 17 16 16 15 14 14 14 14 14 14 14 15 18 20 20
13 15 16 17 18 19 20 21 20 19 21 25 26 26 26 25 25 27 25 24 25 25 24 22 20 19 18 17 17 17 17 16 15 14 14 13 11 12 12 14 17 18
12 13 15 16 17 18 19 20 21 22 23 26 26 26 27 28 28 27 27 26 26 26 25 23 21 19 17 16 16 16 17 18 17 16 15 14 12 12 13 14 16 18
10 12 14 15 16 18 19 19 21 24 25 26 28 28 29 29 27 25 25 26 25 25 24 24 22 21 19 18 17 17 18 19 18 17 17 16 14 13 14 15 15 16
8 10 12 14 14 16 18 20 21 23 24 26 28 31 31 29 26 24 24 25 25 24 24 24 23 22 21 20 18 18 19 19 19 19 19 17 16 15 15 15 15 14
8 9 9 10 11 13 15 18 20 21 22 23 26 29 30 28 26 25 24 23 23 23 23 23 23 22 21 20 19 19 20 20 21 21 20 19 18 16 16 15 13 13
6 6 6 7 8 8 8 11 15 18 20 21 22 24 25 24 24 24 24 23 23 22 22 22 21 21 21 20 20 21 21 22 24 23 21 20 18 16 15 14 13 12
6 5 4 3 4 4 3 4 8 12 16 18 19 20 21 20 19 21 21 21 22 23 22 20 19 20 21 20 20 21 23 24 24 23 21 19 17 15 15 15 14 13
8 6 4 4 2 2 2 1 2 5 10 13 16 18 19 18 17 18 19 19 20 22 22 19 19 19 19 19 22 24 24 23 23 21 20 18 17 16 15 15 15 14
11 9 7 6 4 3 3 2 1 2 4 7 10 12 13 13 14 15 16 16 17 19 19 17 17 16 17 20 25 26 24 23 22 21 21 20 17 15 15 15 15 14

ECMWFNIL_850_spd_069.txt.gz
Wind_Speed
18 17 15 13 13 13 13 13 12 11 10 9 9 8 8 11 11 10 9 7 5 3 1 4 8 9 10 11 10 10 10 9 8 7 6 7 6 5 5 5 7 10
19 17 15 13 13 13 12 11 11 10 9 8 8 8 9 12 12 10 9 7 5 3 2 6 9 9 10 10 11 11 11 10 10 8 7 7 6 6 5 7 9 11
19 17 14 12 12 12 12 11 11 10 8 8 8 8 9 12 13 11 9 7 5 3 4 7 9 9 9 9 9 10 10 11 11 10 8 7 6 6 6 8 11 13
20 17 14 12 12 12 12 11 11 10 8 8 9 8 8 11 13 12 10 7 5 4 6 8 9 9 9 8 9 9 9 9 11 11 11 9 8 6 6 9 12 13
19 17 15 14 13 13 13 13 11 10 9 10 11 10 10 11 12 12 10 8 6 7 8 9 10 10 9 9 9 9 9 9 10 11 13 12 11 10 8 8 10 11
18 18 17 15 14 14 14 13 12 10 10 12 13 12 12 12 12 11 10 9 9 10 10 10 11 11 11 11 11 11 11 11 10 10 12 13 13 12 11 9 9 10
19 18 16 14 13 14 14 13 11 10 10 13 14 13 14 14 13 12 12 12 12 11 11 12 12 12 12 11 11 11 11 12 11 10 11 12 14 14 12 11 10 11
19 17 15 14 14 14 15 13 11 10 10 12 13 13 15 15 15 15 15 15 14 14 13 13 12 12 11 11 10 9 9 10 9 9 10 10 12 14 13 12 11 11
19 17 16 15 14 15 15 13 11 11 10 9 11 14 15 16 17 17 18 17 16 15 14 13 12 11 11 11 10 9 8 8 7 7 8 8 9 11 12 13 12 12
21 19 18 16 15 16 15 14 12 11 9 8 10 14 16 17 18 19 19 19 18 16 14 12 12 12 12 12 11 10 9 8 8 7 7 8 8 8 9 11 12 13
22 19 18 17 16 16 15 13 12 11 9 8 10 15 18 19 20 20 20 19 17 15 13 12 12 12 12 12 12 11 10 8 8 7 7 8 8 8 8 8 10 12
21 20 20 18 17 16 14 13 13 11 10 8 10 14 19 21 21 20 18 17 15 13 12 11 11 11 12 12 12 11 9 8 7 6 6 7 7 7 7 6 7 9
21 22 21 20 19 17 15 14 14 12 11 10 11 15 20 21 21 20 17 15 13 12 12 11 11 12 12 12 12 12 10 8 7 6 7 7 8 8 7 7 7 7
22 23 23 22 20 17 15 16 16 15 13 12 12 16 20 21 21 20 17 15 14 13 12 12 12 14 14 13 13 13 12 10 9 8 8 9 9 9 9 9 9 8
24 24 24 23 21 18 18 18 19 18 16 14 14 17 20 20 20 19 17 16 15 14 13 13 14 15 15 14 14 14 13 12 11 11 11 11 11 11 11 11 12 12
22 21 22 23 22 20 21 21 20 19 18 16 17 19 21 20 20 21 20 18 17 16 15 16 17 17 16 15 15 14 13 12 12 12 12 13 13 13 14 14 15 17
20 20 21 23 22 20 20 21 20 20 19 19 19 21 21 22 24 25 23 21 20 19 19 20 21 19 18 17 17 16 15 14 13 14 15 15 16 16 15 16 17 20
19 19 19 20 21 21 21 21 21 21 21 20 21 22 22 25 27 25 23 24 24 22 23 24 24 21 20 20 20 19 18 17 16 17 17 18 18 18 18 18 18 20
15 16 15 16 19 21 22 22 23 24 24 22 21 22 24 27 27 24 24 26 26 25 26 26 24 23 22 22 22 22 21 20 19 18 18 19 20 20 20 20 18 17
12 13 13 15 17 20 21 21 22 24 26 24 23 23 27 29 28 26 26 27 27 27 27 26 25 24 23 22 22 22 22 21 20 19 19 20 21 22 20 19 17 15
9 11 12 14 16 17 19 20 21 23 25 25 23 23 26 29 28 28 28 27 27 28 28 27 27 26 24 23 22 21 21 20 20 20 20 20 21 22 20 17 16 14
5 7 9 11 13 14 15 17 20 22 23 23 22 22 24 26 27 27 27 26 27 28 28 29 29 28 26 24 22 21 21 21 21 21 21 21 21 21 20 17 15 13
6 5 5 6 7 9 11 13 16 18 20 21 22 22 24 25 26 26 25 25 27 28 28 30 31 29 26 24 23 22 22 22 22 21 22 22 22 21 19 16 14 14
6 5 5 5 5 5 6 7 10 13 16 18 18 20 21 22 24 26 26 26 27 27 28 30 29 26 23 23 23 23 23 23 23 23 23 23 23 21 19 17 15 14
6 5 4 4 5 5 5 5 5 7 10 12 13 15 17 18 19 21 23 24 26 27 28 27 23 21 22 23 23 23 24 24 24 24 24 24 24 22 20 18 17 16
8 6 5 4 4 3 3 4 5 5 6 7 9 12 14 15 17 18 19 20 21 23 24 24 21 20 21 22 23 24 25 25 25 26 25 25 25 23 21 20 19 18

ECMWFNIL_850_spd_072.txt.gz
Wind_Speed
16 13 9 8 8 10 11 11 9 8 8 7 5 4 5 7 9 9 7 5 3 1 1 1 5 7 7 7 6 6 5 5 5 5 4 3 3 3 2 2 5 8
16 13 10 8 7 8 9 9 8 8 7 6 4 4 5 8 10 9 8 5 3 2 1 2 5 7 7 7 6 5 4 4 4 4 3 3 2 2 1 1 4 8
14 13 11 9 7 8 8 8 8 7 6 5 5 6 7 9 10 9 7 5 3 3 2 4 5 6 7 7 6 5 4 3 3 3 3 2 2 2 1 1 4 7
13 13 11 9 8 8 8 7 8 8 7 6 6 7 8 9 9 8 7 5 3 3 4 6 7 7 6 6 6 6 6 5 5 4 3 3 2 2 1 2 4 7
13 13 13 11 9 8 8 7 7 8 8 7 7 7 7 8 9 8 7 5 4 3 5 8 9 8 8 7 7 7 6 7 7 5 4 3 2 3 3 5 7 9
15 14 14 12 9 9 8 8 7 8 7 6 7 7 6 8 9 9 8 6 5 5 7 10 10 10 10 10 9 8 7 8 8 8 6 4 3 5 5 6 7 7
17 16 15 12 11 10 9 8 8 8 7 6 7 8 8 8 9 9 9 7 6 7 9 10 11 12 12 11 10 9 9 9 9 9 8 6 5 5 6 6 5 5
19 17 15 13 12 11 10 10 10 8 7 7 9 10 10 10 10 10 10 9 9 9 10 11 12 13 13 12 11 10 9 9 8 8 8 8 7 6 6 6 6 6
20 17 16 14 13 11 11 11 10 9 8 9 11 11 11 11 11 12 12 11 10 11 12 12 12 12 12 12 10 9 8 8 8 7 7 8 9 8 7 6 6 6
20 19 17 16 13 11 11 12 11 9 9 10 12 12 12 12 13 13 13 12 11 12 13 12 11 11 10 10 9 8 7 6 7 7 6 7 8 8 8 8 7 7
20 20 18 16 14 12 12 13 11 9 9 9 11 12 13 14 14 15 15 14 14 14 13 12 10 9 8 7 7 7 7 6 5 5 5 5 6 6 7 8 8 8
21 21 19 16 14 13 13 12 10 10 9 8 9 11 13 15 15 16 16 16 15 14 12 11 9 8 7 7 7 7 6 6 5 4 3 4 5 5 5 5 7 8
21 21 19 17 15 14 14 12 11 11 9 7 7 9 12 15 16 17 17 17 16 14 11 10 8 8 7 7 7 8 7 5 4 3 3 3 4 4 3 3 4 5
21 21 19 17 16 16 15 13 12 12 10 8 7 7 11 15 16 17 18 17 16 14 11 10 9 7 6 6 6 8 8 7 5 4 3 4 4 5 5 5 4 4
20 21 20 19 18 17 16 15 14 14 13 10 8 7 9 13 15 17 17 16 15 14 12 10 8 6 4 4 5 7 8 8 7 6 5 6 6 6 7 7 7 7
19 20 20 18 16 16 17 16 13 13 14 12 10 9 9 12 15 17 18 16 15 14 12 10 7 5 5 6 7 7 8 8 8 8 8 8 8 8 8 9 9 10
19 19 20 19 16 15 17 16 14 14 15 14 12 11 11 13 16 18 19 17 16 14 13 11 8 8 10 11 10 9 8 8 9 10 10 10 10 10 11 12 12 12
16 16 17 19 18 17 17 16 15 15 15 16 15 13 13 15 16 18 19 19 18 16 15 14 12 11 13 15 14 12 11 11 12 13 13 13 13 14 14 14 14 14
12 11 13 16 17 17 15 14 14 16 16 17 17 15 14 16 17 18 19 20 19 18 17 17 16 14 15 17 16 15 14 14 15 16 17 16 16 17 17 16 16 16
10 9 11 15 16 15 15 14 15 17 18 18 19 17 16 17 19 20 21 21 21 21 20 19 18 17 17 19 18 17 17 17 18 18 19 19 19 18 18 18 18 17
9 8 11 14 15 15 16 16 15 17 17 17 18 19 19 18 19 20 21 22 23 23 22 21 20 20 20 21 20 18 18 19 19 20 20 21 20 19 18 19 19 17
8 8 9 11 13 15 16 17 17 18 19 19 20 21 21 20 20 20 21 23 25 25 24 24 23 22 23 23 21 20 20 21 21 21 21 22 21 20 19 20 19 18
6 7 7 8 10 12 13 14 16 18 19 19 20 22 23 23 22 21 20 22 24 25 25 25 25 24 24 24 23 22 23 23 23 23 24 24 23 22 21 20 20 19
5 5 5 6 6 7 8 9 11 13 15 17 19 21 22 22 21 19 18 20 22 24 24 25 25 25 24 24 23 23 24 25 26 26 27 26 26 24 22 21 20 19
8 6 5 4 4 3 3 4 6 8 10 12 14 15 16 17 18 17 18 20 22 23 24 24 24 24 24 25 24 24 25 27 28 29 30 29 27 25 24 23 22 20
11 9 7 6 5 4 2 0 2 3 5 8 10 11 12 14 15 15 16 18 19 20 20 21 21 22 24 25 25 26 29 29 30 31 31 30 28 27 26 25 23 21

ECMWFNIL_850_spd_075.txt.gz
Wind_Speed
13 12 12 12 13 13 13 13 11 10 9 10 10 9 9 9 10 9 8 8 6 4 4 8 10 10 9 8 8 8 8 8 7 6 6 6 4 4 3 2 4 7
15 14 13 13 13 12 11 11 10 10 9 9 9 8 7 8 9 9 8 7 5 3 4 8 10 9 8 8 7 8 8 8 7 7 7 6 5 4 3 3 4 7
18 15 13 12 12 11 12 11 10 10 8 8 8 6 7 10 11 11 10 7 4 3 4 7 8 9 8 7 7 7 8 8 8 8 7 6 4 3 3 3 4 5
19 16 14 12 10 11 12 12 11 10 8 7 7 7 9 13 13 12 10 7 4 3 4 6 6 7 7 7 6 6 6 7 7 8 7 5 5 5 4 4 4 5
18 16 15 12 10 10 11 11 10 9 8 7 7 9 12 14 14 12 10 7 5 4 5 6 7 7 7 7 6 5 5 6 6 7 6 6 8 7 7 7 7 7
17 16 15 13 11 10 10 9 9 9 8 8 8 9 12 14 13 11 9 7 6 6 6 8 8 8 8 8 8 7 6 5 6 7 6 7 9 9 10 10 9 9
17 16 15 14 12 10 9 9 9 9 8 8 9 10 10 12 12 11 9 8 8 8 8 9 9 9 10 10 9 8 7 6 6 6 6 7 9 10 10 10 9 9
18 16 15 14 13 11 10 9 9 9 8 9 10 10 9 11 12 11 10 9 9 9 10 11 11 11 11 11 9 8 7 7 7 7 6 6 8 9 9 8 8 7
18 16 16 15 13 11 10 9 9 9 8 8 9 10 9 10 11 12 11 11 10 11 12 12 12 12 12 12 11 9 9 8 8 7 6 6 7 8 8 7 7 6
17 17 17 16 14 12 11 10 10 9 8 8 9 10 10 10 11 13 13 12 11 12 12 13 13 13 12 12 11 10 10 9 8 8 6 6 7 7 7 7 7 6
17 18 18 16 15 13 11 11 11 10 8 8 9 10 10 10 12 14 14 12 12 12 13 13 12 11 10 9 9 8 8 8 7 7 6 6 7 7 7 7 7 7
18 20 18 16 15 13 12 12 12 11 9 8 10 10 10 10 12 14 14 13 13 13 13 12 10 9 8 7 7 7 7 7 6 5 5 5 5 6 6 6 7 8
18 20 19 17 15 13 13 13 12 10 9 8 8 9 9 10 12 15 15 14 14 13 12 11 9 8 8 7 8 8 7 6 6 5 4 4 4 4 3 3 4 5
15 17 18 18 15 13 14 13 12 11 9 7 7 6 7 9 11 15 16 15 15 14 12 10 9 9 8 8 8 8 8 7 6 5 4 3 3 2 1 1 1 2
11 11 14 18 16 15 15 14 12 11 10 7 6 5 6 8 11 15 17 17 16 15 13 11 10 9 8 8 7 7 7 7 7 6 4 3 2 2 1 1 2 2
11 11 13 18 18 16 16 15 13 12 10 9 6 5 5 7 10 13 16 17 16 15 13 12 11 10 9 8 7 6 6 7 8 7 5 3 3 2 2 3 3 4
12 12 14 17 19 17 17 17 15 11 10 10 9 7 6 7 9 12 14 16 16 15 14 13 12 11 10 10 9 7 7 6 7 8 7 5 4 3 4 5 6 7
12 11 12 13 15 14 13 15 15 10 9 11 11 10 8 8 9 11 13 15 16 15 13 13 13 12 11 11 10 9 8 7 6 7 8 7 6 7 7 8 8 9
11 10 9 9 11 11 10 11 12 10 10 11 12 11 10 10 10 11 12 14 15 15 14 14 14 13 12 12 11 10 10 9 9 9 10 10 10 10 11 11 11 11
8 7 7 7 9 11 11 12 12 11 11 11 11 12 12 11 11 11 11 12 14 15 15 15 15 15 14 14 13 13 12 12 12 12 13 13 13 13 14 13 13 13
7 6 6 7 8 9 11 12 11 11 11 11 11 12 13 13 13 12 12 12 14 15 16 17 17 17 16 16 15 15 15 14 14 14 14 15 15 16 16 16 15 15
5 5 5 6 7 9 10 10 10 10 10 10 11 12 13 14 14 13 13 13 14 16 17 18 19 19 18 18 18 18 18 18 17 16 16 16 17 18 18 18 18 18
4 3 4 5 6 7 9 9 10 11 11 11 12 12 13 14 15 15 15 15 15 16 17 18 20 20 21 21 21 21 22 22 20 19 18 18 19 20 20 21 21 21
4 3 3 4 5 6 7 8 9 10 11 12 12 13 14 15 16 17 18 18 18 18 19 20 20 20 20 21 21 21 22 23 23 22 22 21 21 22 23 23 24 23
8 7 5 4 3 2 3 4 5 7 9 11 13 14 15 15 16 18 19 20 20 21 22 21 20 19 20 21 21 21 22 24 25 25 25 24 24 24 24 25 25 24
12 11 10 9 9 8 6 4 2 2 3 6 8 11 13 14 14 15 16 16 18 20 20 19 18 19 20 20 20 20 22 23 25 26 27 27 27 26 26 26 26 25

ECMWFNIL_850_spd_078.txt.gz
Wind_Speed
19 17 15 15 14 14 14 13 13 13 12 11 10 11 11 11 12 11 9 9 9 9 9 10 10 10 9 8 7 7 7 7 7 6 7 8 7 5 5 6 7 8
18 18 17 16 15 14 13 13 13 13 12 11 11 12 12 12 14 12 11 11 10 9 10 11 11 11 10 9 9 9 8 9 8 7 7 7 6 5 5 5 7 9
18 18 17 15 15 14 14 14 14 13 13 13 13 14 14 15 15 14 12 11 8 8 10 12 12 12 11 10 10 9 9 9 8 8 7 6 5 5 5 4 6 7
19 18 16 14 14 15 15 15 15 14 15 14 14 14 15 16 16 14 13 11 8 8 10 12 12 12 11 10 9 9 10 9 8 8 6 5 5 5 5 5 5 6
20 18 16 15 14 15 15 15 15 15 14 14 14 14 16 17 17 15 13 10 8 9 11 12 13 12 11 10 10 10 10 9 8 7 6 5 5 5 6 6 6 6
21 19 17 16 15 15 15 16 15 15 14 13 13 14 17 18 18 15 13 10 8 9 11 12 12 12 11 11 10 10 9 9 9 8 7 6 7 7 8 8 8 8
23 20 17 16 15 15 15 15 15 14 13 13 13 15 18 18 17 15 12 9 8 9 11 12 12 12 12 11 10 10 10 9 9 9 8 8 10 10 10 10 9 9
22 21 18 17 16 16 16 15 15 14 13 13 13 16 18 17 15 14 12 10 9 10 11 12 12 12 12 11 10 10 11 11 9 9 9 10 10 10 10 11 10 9
21 21 19 18 17 16 16 15 15 14 13 13 14 15 16 15 14 14 12 11 11 11 12 12 12 13 13 11 10 11 11 11 10 9 10 10 10 9 8 9 10 10
21 21 20 19 17 16 15 14 14 14 13 13 13 14 15 15 14 14 13 12 12 13 13 13 13 14 14 13 12 12 11 11 11 10 9 9 9 8 8 8 9 9
21 21 19 18 16 15 14 13 13 14 14 13 13 13 14 15 15 14 13 13 14 14 14 15 15 15 15 14 13 13 12 11 10 10 10 9 8 8 7 7 7 7
19 20 19 19 18 16 14 13 13 14 13 13 13 13 14 15 15 14 13 13 13 14 15 15 15 14 14 13 12 12 12 11 10 10 9 9 8 7 6 6 6 6
18 20 21 21 20 17 14 13 13 13 12 12 13 14 14 14 15 15 14 12 13 14 14 15 15 13 13 12 12 11 11 10 10 9 8 8 8 7 6 6 5 6
17 19 19 19 18 17 15 14 13 13 12 12 13 13 13 13 14 16 14 13 13 14 14 14 14 13 12 12 11 11 11 10 9 8 8 7 7 6 6 6 5 5
16 17 17 17 18 18 16 15 14 13 13 12 12 11 11 12 13 16 15 14 14 14 14 15 15 13 13 13 12 11 11 10 9 8 7 7 7 6 5 5 5 5
16 16 16 19 20 19 18 17 15 14 13 12 11 10 10 11 12 14 15 14 14 14 15 15 15 14 13 12 12 12 10 10 9 9 8 7 7 7 7 6 5 5
13 13 15 20 21 20 20 20 18 15 13 13 12 10 10 11 12 14 15 14 13 13 15 15 14 13 12 11 11 11 10 9 9 9 9 7 7 6 6 6 6 5
11 12 14 18 22 22 21 21 20 17 13 12 11 9 9 11 12 13 15 15 14 13 14 14 13 12 12 11 10 10 10 9 9 9 9 8 7 7 6 6 6 7
9 11 11 13 17 19 17 16 17 18 14 11 11 10 9 9 11 11 13 15 14 13 13 13 13 13 12 11 10 10 10 10 9 9 9 9 9 8 8 9 8 9
9 8 9 9 10 11 11 14 18 19 15 11 10 11 10 9 10 10 11 13 14 13 13 13 13 12 12 12 11 11 11 11 11 11 11 11 11 12 13 12 11 11
9 7 7 8 8 9 12 17 20 20 17 13 11 12 10 9 10 10 10 12 12 13 13 13 12 12 12 13 12 12 12 12 12 13 13 14 15 16 16 14 13 14
10 10 9 8 7 8 12 15 16 17 17 15 14 14 12 12 11 10 11 11 11 12 12 12 13 13 13 14 14 14 14 13 13 14 14 16 17 17 17 16 16 17
11 10 10 8 8 7 9 10 11 11 12 11 12 12 12 12 11 11 12 12 11 12 11 12 13 14 15 16 16 16 17 16 16 16 16 17 18 19 19 18 19 19
10 8 7 7 7 7 6 6 7 7 8 8 8 8 9 11 10 10 13 13 13 13 12 12 14 15 15 16 17 17 19 19 19 19 19 19 19 19 20 21 22 22
9 7 7 7 7 7 7 7 6 6 6 6 6 6 7 9 8 8 10 12 13 14 13 14 16 16 16 16 17 17 17 18 18 19 18 17 15 15 17 19 22 23
13 11 10 10 9 9 9 8 8 6 5 5 4 4 3 5 7 8 8 9 10 11 12 13 15 15 14 14 15 15 16 17 17 16 16 14 12 13 14 15 18 21

ECMWFNIL_850_spd_081.txt.gz
Wind_Speed
19 18 17 17 16 16 17 17 15 14 14 13 11 11 10 8 9 9 8 8 7 6 7 8 8 7 6 5 6 4 3 5 6 6 6 5 4 5 6 6 6 6
20 19 18 17 17 19 19 17 15 15 14 13 11 11 10 9 10 10 8 7 6 5 6 6 7 6 4 4 7 6 4 4 4 5 6 5 4 4 5 5 6 6
20 20 20 20 20 20 19 17 15 15 14 13 12 13 12 11 10 10 9 8 6 6 6 7 8 7 6 5 7 6 5 5 5 5 5 5 4 4 4 5 7 8
22 21 21 20 19 18 17 17 16 15 15 14 14 13 12 11 11 10 10 9 7 7 8 8 8 8 7 6 6 5 5 6 5 5 4 3 3 4 5 5 6 7
23 22 20 18 17 17 17 17 15 13 14 14 13 12 12 12 12 10 10 9 7 7 8 9 9 8 8 7 6 6 6 5 4 4 3 3 2 3 5 6 7 7
23 21 19 17 17 18 17 16 13 11 12 13 12 12 12 13 12 11 10 9 8 8 8 9 9 9 8 7 6 6 6 5 5 4 3 3 3 3 4 6 7 7
22 21 20 18 18 18 16 14 13 11 11 11 11 11 13 13 12 11 10 9 8 8 8 9 9 10 9 8 7 7 7 6 6 5 5 5 5 4 5 5 6 6
22 21 19 18 17 18 16 14 13 12 11 10 10 11 13 13 12 11 10 9 8 8 8 8 9 10 10 9 8 9 8 8 7 6 7 7 6 6 6 6 6 6
23 20 18 18 18 18 16 14 14 13 11 11 11 12 13 13 12 11 10 9 8 9 9 9 9 10 10 9 9 10 10 9 8 8 8 8 7 7 7 7 7 6
20 19 17 18 19 18 16 15 14 14 12 11 11 13 14 13 11 11 10 9 9 9 10 10 10 10 9 9 10 10 10 9 9 9 9 8 8 7 7 7 7 7
17 17 16 17 18 17 17 16 14 13 12 12 12 13 13 12 11 11 10 9 10 10 10 11 11 10 10 9 10 10 10 10 9 9 9 9 8 8 7 7 7 7
18 18 16 16 17 16 16 15 14 14 13 12 12 12 13 12 11 11 10 9 10 11 11 11 11 11 10 10 10 10 10 10 10 9 9 9 8 8 7 7 6 7
19 19 17 16 15 15 16 15 14 14 13 12 12 12 12 12 11 11 10 10 10 11 12 12 12 11 11 11 11 11 11 10 10 10 9 9 9 8 7 7 7 7
20 20 20 17 16 15 15 14 13 14 12 11 12 11 12 12 11 11 11 10 11 12 12 13 12 11 11 11 10 10 10 10 10 10 9 9 9 8 8 9 8 8
21 21 21 19 18 16 15 14 13 13 12 11 11 11 11 11 11 12 11 10 11 12 12 13 12 12 13 13 12 11 10 10 10 9 9 9 8 8 8 8 8 8
21 22 21 19 18 17 16 15 14 13 12 11 11 10 11 11 11 12 12 11 12 12 12 12 12 14 16 16 15 14 11 9 9 9 8 8 8 7 8 8 8 9
21 23 20 19 19 19 18 17 16 14 12 11 11 10 10 10 11 12 12 11 12 12 12 12 12 15 18 18 17 16 13 9 8 8 8 8 8 8 8 9 9 9
18 19 19 19 21 21 21 20 19 16 14 12 12 11 9 9 11 12 12 11 12 12 11 11 13 15 17 17 16 15 13 10 8 7 8 8 8 8 8 9 9 10
14 14 14 15 18 21 21 20 19 19 18 16 16 14 12 10 11 12 12 11 11 11 9 9 11 13 14 14 13 13 12 11 8 6 7 8 9 9 9 11 12 14
12 13 13 13 16 21 22 20 19 19 17 15 14 14 13 14 14 13 12 11 11 9 9 10 11 12 12 12 12 11 11 11 10 8 7 8 9 10 12 14 16 16
11 11 12 13 14 18 22 22 21 19 17 15 14 12 11 13 13 13 12 13 13 11 10 11 12 12 12 13 13 12 12 12 12 10 10 10 10 11 14 16 17 18
15 12 11 11 10 13 16 18 19 20 18 16 15 12 11 11 11 11 11 11 10 10 10 11 11 11 12 13 13 13 13 13 13 13 14 14 14 14 15 16 18 20
16 14 13 13 13 12 12 13 16 19 18 17 17 15 14 12 11 11 11 11 11 11 12 13 12 12 13 13 13 13 13 13 14 14 16 17 17 18 17 16 19 22
13 13 13 13 13 13 13 13 14 15 15 16 17 15 14 15 15 14 13 14 15 15 15 16 15 13 13 13 13 13 13 14 15 16 18 20 21 21 21 19 20 23
13 13 12 12 12 11 10 11 12 12 14 15 14 14 16 17 17 17 16 16 16 15 15 15 15 14 12 12 12 13 13 15 15 17 19 20 19 20 21 20 20 22
16 15 13 12 12 12 10 9 8 8 9 9 9 9 12 12 12 14 16 17 17 16 15 15 15 14 11 11 12 13 13 14 14 15 16 15 15 16 18 19 19 19

ECMWFNIL_850_spd_084.txt.gz
Wind_Speed
23 23 21 18 17 17 16 16 16 16 14 12 11 11 11 11 11 11 12 12 11 11 9 10 10 9 8 9 9 5 4 6 6 5 6 7 6 7 8 7 7 8
23 22 20 18 17 17 16 16 16 14 13 13 11 11 10 11 13 12 11 11 10 10 8 7 7 7 7 11 10 4 5 8 6 6 7 7 7 8 9 8 8 8
22 21 19 18 18 18 17 16 15 13 14 14 13 12 11 13 14 11 10 10 9 8 9 9 9 9 9 13 9 4 6 9 7 7 8 6 6 7 9 9 9 10
20 19 18 18 18 19 19 17 16 14 13 13 14 14 14 14 14 12 11 9 9 9 11 11 12 10 10 12 9 6 8 7 5 7 8 7 6 6 8 10 10 10
19 19 18 19 19 19 19 17 16 16 14 14 15 15 14 14 13 12 12 10 7 8 11 13 13 11 11 11 8 8 9 6 7 9 6 6 6 6 8 9 10 10
20 19 19 18 17 19 20 17 15 16 17 15 14 13 13 13 12 11 11 9 7 8 11 13 12 11 10 9 9 9 8 6 9 8 5 5 6 7 8 9 10 10
20 20 19 18 17 20 22 18 13 14 17 16 13 12 13 13 12 11 9 7 7 9 10 11 11 11 11 9 9 9 7 7 9 8 6 6 6 6 7 7 9 10
21 21 21 19 19 20 20 18 13 12 14 14 13 13 14 13 12 11 9 8 9 9 9 10 10 11 11 9 9 9 9 9 10 8 7 7 7 7 6 7 9 9
22 21 20 20 20 20 19 18 15 12 12 12 13 14 14 13 12 11 10 9 10 9 9 9 10 11 11 9 10 10 10 10 9 8 9 9 9 9 8 8 8 8
23 22 21 20 21 21 20 19 17 15 13 13 13 14 15 14 12 11 10 9 10 9 9 9 9 10 10 9 10 11 10 10 9 9 10 10 9 9 9 8 6 7
24 25 23 22 22 21 20 20 18 16 14 14 14 15 15 15 13 11 9 9 9 9 9 9 9 10 9 9 10 11 9 9 10 10 10 9 8 9 8 7 5 6
26 25 23 23 23 20 19 19 18 16 14 14 14 14 14 13 13 12 9 9 10 9 9 9 9 9 9 9 11 11 10 9 10 10 9 9 9 8 7 7 8 8
26 24 22 23 22 19 17 17 16 15 14 14 14 14 13 12 13 13 11 9 10 10 9 10 9 9 9 9 10 11 10 10 11 10 9 9 9 7 6 7 7 8
24 23 22 23 22 20 17 15 15 14 12 12 14 14 13 12 12 13 12 11 11 10 10 10 10 9 10 9 9 10 10 11 11 10 9 10 9 6 7 8 5 5
23 22 22 21 21 21 19 16 17 15 11 11 12 12 13 12 10 13 14 11 11 11 11 11 11 11 11 11 10 10 9 9 10 9 8 9 7 6 7 7 5 4
23 22 23 21 21 21 18 16 17 16 12 12 12 12 13 12 10 12 13 12 11 12 12 12 12 12 12 12 12 11 10 9 9 7 8 8 7 5 6 6 5 6
22 23 24 23 22 21 18 17 17 16 13 12 12 12 13 12 11 12 13 12 12 13 14 14 12 12 13 12 11 12 12 11 9 7 7 7 6 5 5 4 6 9
22 24 24 24 22 22 21 19 19 18 15 14 14 13 12 12 11 11 12 12 11 13 15 16 13 12 14 14 12 12 13 12 10 7 5 5 5 5 5 4 5 6
22 23 23 23 21 21 21 22 21 20 19 18 17 15 15 14 12 11 11 10 10 12 13 15 15 13 14 15 13 12 11 11 9 7 5 5 5 6 6 6 6 6
18 18 17 19 20 20 21 21 21 20 19 19 19 17 16 16 15 15 15 12 11 12 11 11 11 11 12 14 15 13 12 10 9 8 6 5 6 7 7 6 7 8
10 12 12 14 17 19 19 18 17 16 15 15 16 16 17 17 16 16 17 14 12 11 10 8 7 7 8 11 12 11 10 9 9 8 7 6 6 6 6 7 8 9
8 9 11 13 15 17 18 18 18 17 15 15 14 14 15 17 17 16 16 16 13 11 10 9 6 4 5 6 7 8 8 8 8 8 9 8 8 8 8 8 9 10
11 9 10 10 12 14 17 19 18 17 17 16 14 13 13 15 15 14 14 15 15 12 11 9 7 5 4 4 6 7 8 8 8 8 9 9 9 9 9 9 9 11
13 14 14 13 11 12 13 16 16 16 16 15 13 12 13 14 14 13 12 12 13 12 10 9 8 7 7 8 11 11 11 11 10 10 10 10 10 10 10 11 12 14
18 16 15 14 13 12 10 12 13 15 15 13 11 12 13 13 13 12 10 10 11 12 11 11 11 11 12 13 15 14 13 12 12 12 12 12 12 12 11 12 13 13
22 20 19 17 16 13 11 9 7 10 13 11 8 8 10 10 11 11 10 9 10 11 11 10 11 12 13 15 15 14 12 12 12 14 14 13 13 12 11 10 10 10

ECMWFNIL_850_spd_087.txt.gz
Wind_Speed
17 19 18 18 19 19 18 18 17 18 17 16 17 17 17 17 16 16 17 16 18 19 17 15 14 13 11 10 11 11 10 10 11 11 11 11 11 11 12 13 12 12
13 16 17 18 19 19 18 17 17 17 16 16 16 16 15 15 16 17 18 17 16 17 18 17 15 14 12 11 10 10 10 10 10 10 10 10 10 11 12 12 12 11
13 15 17 18 18 18 18 18 18 18 17 16 15 15 15 17 17 17 17 16 14 14 15 16 15 15 15 12 9 9 11 12 11 11 10 9 10 11 11 12 12 11
15 16 18 17 16 18 19 20 20 19 19 18 16 17 18 18 17 16 16 15 14 14 15 16 17 18 16 12 9 9 11 12 12 12 11 11 11 11 11 12 12 12
16 17 19 18 17 19 21 22 22 22 21 19 18 20 20 18 16 16 15 14 14 16 17 18 18 19 16 12 10 10 10 11 12 12 11 12 12 12 12 13 12 12
18 19 20 19 19 21 22 23 23 23 23 21 21 21 20 18 17 16 15 13 14 18 20 19 18 19 16 12 11 11 11 12 11 10 10 12 13 13 14 14 13 12
20 20 20 20 21 22 23 24 23 23 22 21 21 20 19 18 18 16 14 11 15 20 21 19 19 18 15 13 12 12 12 13 11 8 9 10 11 12 13 13 13 12
20 20 20 21 22 23 24 24 22 21 21 20 19 18 18 17 15 14 11 11 17 21 21 20 19 17 15 14 13 12 13 13 11 10 9 8 8 10 12 13 12 11
21 20 20 21 22 23 24 22 20 19 19 18 18 18 18 15 12 11 11 13 16 18 19 20 19 17 16 15 14 13 12 11 12 12 10 8 9 11 13 13 12 12
22 21 21 21 21 23 22 19 18 18 17 17 17 19 18 14 12 13 13 13 13 13 16 19 18 17 16 16 16 13 11 11 12 12 10 10 11 11 10 10 10 11
23 23 21 20 21 23 20 17 16 15 16 16 18 20 18 14 14 15 14 13 11 11 14 15 17 16 14 16 17 13 10 12 12 10 11 13 11 8 7 7 8 10
24 23 21 21 22 22 20 18 16 14 14 16 19 20 18 15 16 16 15 14 12 12 13 13 15 14 13 17 17 12 11 13 12 11 12 13 10 8 7 7 8 11
24 23 24 24 23 22 20 19 18 15 14 16 20 20 17 17 17 15 15 15 13 13 12 13 14 12 13 18 17 13 15 14 12 11 12 12 10 8 7 8 9 10
23 24 26 25 22 22 22 21 19 16 16 18 19 19 18 19 17 15 17 17 14 13 13 14 14 12 14 18 17 15 16 13 11 12 12 12 11 9 9 10 10 8
25 26 26 24 23 24 23 21 19 18 19 20 19 19 19 19 18 17 18 18 16 16 15 15 15 13 15 17 16 15 15 13 13 13 13 13 14 12 11 11 10 8
28 27 26 24 23 23 21 20 19 18 19 20 20 19 18 18 20 19 17 18 18 17 16 16 16 14 14 16 15 14 16 15 14 14 13 13 13 12 12 11 10 8
27 26 26 24 22 23 22 21 20 19 19 19 20 19 16 17 21 19 16 17 18 18 17 16 16 15 14 16 15 15 16 15 14 15 14 12 11 12 12 10 9 8
24 26 28 26 24 26 23 21 22 21 20 19 19 19 17 18 20 17 15 17 17 18 17 16 16 16 14 16 16 15 15 15 14 14 14 12 11 10 9 8 8 6
22 23 25 25 25 26 24 22 23 22 20 20 20 19 19 20 20 15 14 17 18 18 18 16 15 15 14 15 16 15 14 14 12 11 11 10 9 7 6 6 6 4
22 21 21 22 24 25 23 22 22 21 21 20 19 19 19 19 19 15 13 16 17 17 18 16 14 13 12 12 14 14 13 12 11 9 8 6 5 5 3 3 3 2
24 23 21 22 23 23 23 23 22 21 21 19 18 18 17 17 18 15 13 14 15 14 15 15 12 11 11 11 12 13 13 13 10 6 5 4 3 3 3 3 3 2
20 23 23 23 24 23 22 23 22 20 20 19 18 16 15 14 16 15 11 12 13 12 12 12 11 11 11 11 11 11 10 10 8 5 4 4 4 4 4 4 4 5
12 16 17 19 21 22 22 24 23 20 18 17 16 15 15 14 14 14 12 11 11 11 10 11 12 12 12 11 11 10 7 5 4 3 3 4 4 4 4 4 5 6
13 13 13 14 16 17 18 20 20 18 17 16 16 16 17 16 15 14 14 12 11 11 10 10 11 11 11 10 9 9 7 5 3 3 4 5 6 7 6 7 7 8
15 15 15 14 13 12 13 15 16 16 16 16 16 16 17 17 15 13 12 11 10 10 9 9 8 8 6 6 6 5 6 7 8 8 7 9 10 10 9 9 9 9
22 20 17 15 13 12 13 15 15 16 16 15 15 14 16 16 14 11 10 9 9 8 7 6 6 4 3 3 4 5 7 8 8 8 8 9 10 9 9 9 10 9

ECMWFNIL_850_spd_090.txt.gz
Wind_Speed
19 18 17 18 18 18 19 20 20 20 19 17 17 17 17 16 16 17 17 16 18 19 18 17 16 15 14 13 12 12 12 12 12 13 13 12 12 14 14 15 16 16
21 21 19 19 19 18 20 20 19 19 18 16 16 16 17 17 17 18 19 20 21 20 19 17 17 16 14 13 14 13 13 13 13 13 13 13 14 15 14 15 17 16
22 22 21 21 21 21 21 20 19 19 17 17 17 17 18 18 18 19 20 21 20 19 18 16 16 15 13 13 15 15 14 14 14 13 13 13 15 15 14 15 16 16
21 21 21 22 21 22 22 21 20 20 19 19 19 19 19 19 19 21 21 20 18 17 16 15 15 14 13 13 15 16 15 14 14 14 14 14 15 14 14 16 16 15
20 20 21 22 22 23 23 22 22 22 21 20 20 21 21 20 20 20 20 19 19 18 17 16 15 14 14 14 14 15 15 15 15 15 15 14 14 14 14 15 15 14
20 20 21 22 22 23 23 22 23 23 23 22 22 22 22 21 20 19 19 18 18 19 19 19 18 17 16 14 13 14 15 15 15 15 14 14 14 14 14 14 14 13
21 21 23 23 22 22 23 23 24 25 25 25 24 23 23 22 20 19 18 17 17 19 22 22 21 20 17 14 13 15 16 15 15 14 13 14 14 14 14 13 13 13
23 23 24 24 23 23 24 25 26 26 25 23 23 24 24 21 19 18 17 16 19 22 24 23 22 20 17 14 14 16 16 15 14 13 13 14 14 14 15 14 13 13
24 24 25 25 24 25 25 26 27 26 23 21 20 22 22 19 18 17 15 17 21 23 23 22 21 19 16 14 15 16 16 15 14 12 11 13 15 15 15 15 14 13
24 24 26 26 25 25 25 27 27 25 23 21 19 20 20 18 17 16 15 19 23 23 22 21 20 19 17 15 16 16 15 14 13 11 9 11 15 16 15 14 13 13
23 23 25 26 25 24 26 28 27 24 23 22 20 21 20 17 16 16 18 24 26 24 23 22 20 19 18 17 16 15 14 14 14 12 10 10 12 13 12 12 12 12
20 22 24 24 24 25 26 26 23 22 22 22 22 22 20 17 16 17 19 24 26 25 23 22 20 20 19 17 15 15 15 15 15 14 13 11 11 10 10 10 10 11
20 21 22 23 25 25 25 22 20 21 22 23 24 23 20 18 18 17 16 17 21 24 24 21 20 20 19 17 16 16 16 16 16 17 16 14 13 11 11 12 12 13
22 21 22 24 26 25 22 20 20 21 22 24 25 22 20 19 19 18 16 15 17 21 23 21 20 20 19 18 17 17 17 17 18 19 18 17 14 12 13 14 15 15
23 22 23 25 27 26 24 23 22 21 22 25 24 20 19 20 19 17 18 18 18 19 21 20 19 20 20 18 18 19 18 18 19 20 19 16 14 14 14 13 13 13
22 23 25 27 28 26 25 24 23 20 22 26 23 20 20 20 19 19 20 19 18 19 20 19 19 22 21 19 20 20 19 19 19 19 17 14 14 15 14 12 11 10
20 22 25 27 26 24 24 24 22 20 22 24 22 20 20 19 19 20 21 20 18 19 20 18 20 23 21 19 19 19 19 19 18 18 17 14 14 15 14 13 12 10
20 21 23 24 23 23 24 23 21 21 22 22 22 22 22 21 20 20 21 21 19 19 20 19 21 22 20 18 18 18 18 17 17 17 17 15 14 15 14 12 11 10
19 19 21 21 21 23 24 23 21 23 23 23 23 24 23 22 19 18 21 22 19 19 21 20 21 21 20 18 18 18 17 17 16 16 15 14 13 13 11 10 9 8
16 17 19 20 21 23 25 24 22 23 25 25 24 23 24 22 18 18 23 23 20 19 21 20 20 21 21 19 19 18 18 17 16 14 13 13 12 11 10 9 9 8
16 17 19 21 22 23 26 26 25 25 26 25 24 22 22 20 17 18 23 23 21 20 20 20 20 21 21 20 19 19 18 17 17 14 12 11 10 10 9 8 8 8
18 19 20 24 25 24 25 27 27 27 25 24 24 23 21 19 17 19 22 23 22 21 20 20 20 19 19 19 19 18 17 17 17 14 11 10 9 8 7 7 7 7
18 20 21 23 23 23 24 26 26 26 24 23 23 23 22 20 20 22 23 22 21 21 20 20 19 18 18 17 17 17 17 17 16 13 10 8 7 7 6 6 7 7
14 18 20 22 23 23 24 25 25 25 24 22 22 23 23 23 23 23 22 20 19 18 17 17 18 18 18 17 17 16 15 14 14 13 11 9 7 7 6 7 8 8
11 13 14 17 22 26 26 24 23 20 19 18 18 20 22 22 21 21 20 19 19 19 18 17 18 19 17 15 14 13 11 10 12 13 12 10 9 8 8 8 9 10
8 8 9 10 14 20 23 22 19 18 18 16 14 15 16 16 16 17 18 18 17 17 18 18 17 17 16 13 11 10 9 9 10 10 9 9 9 9 10 11 11 12

ECMWFNIL_850_spd_093.txt.gz
Wind_Speed
23 25 25 24 22 21 21 21 22 22 22 21 20 20 20 19 18 18 18 17 16 16 16 15 16 17 17 17 16 14 14 14 14 13 13 13 13 13 11 10 10 10
25 25 25 24 22 22 22 22 21 21 22 22 21 20 20 19 18 18 17 17 18 18 17 17 17 17 18 17 15 14 14 15 15 14 14 13 13 13 11 10 10 9
25 25 25 25 23 22 22 23 22 22 21 22 21 20 20 19 18 18 18 18 18 19 18 17 17 17 17 15 14 14 14 14 15 14 13 13 13 12 11 10 9 10
26 25 26 26 24 21 21 24 25 23 23 23 22 20 20 20 19 20 20 20 20 20 19 17 17 17 16 14 13 14 14 13 12 11 11 11 11 12 11 10 10 11
25 24 26 26 24 23 22 24 26 25 24 24 22 21 21 20 20 20 21 21 21 21 20 18 17 16 14 13 14 14 13 12 12 11 11 11 11 11 11 11 11 11
23 23 25 25 25 25 23 24 26 25 24 23 21 21 21 20 20 21 22 22 22 21 20 18 17 16 14 13 15 15 13 13 13 12 12 11 11 11 11 11 11 10
23 23 24 24 25 26 24 25 26 24 22 21 21 21 22 22 22 21 22 22 22 21 20 17 16 15 14 14 15 15 14 14 14 13 13 12 12 11 11 11 10 10
22 23 22 22 24 25 23 24 24 21 21 21 21 22 22 23 24 23 22 21 21 20 18 17 16 14 14 14 14 15 15 14 13 13 13 12 12 11 11 10 10 9
17 17 18 20 23 23 22 22 20 20 21 22 22 22 22 23 24 23 21 20 19 18 18 18 16 15 15 13 13 14 14 14 13 12 11 11 10 11 10 10 10 9
14 14 16 20 21 20 19 18 18 21 22 22 23 23 23 22 22 20 19 18 17 18 20 20 18 17 15 13 12 13 14 13 12 10 9 9 9 10 10 10 10 9
12 14 17 19 20 19 18 18 20 22 22 23 23 23 22 22 21 19 18 17 18 19 21 20 20 18 16 13 13 14 14 13 11 9 7 8 9 10 10 9 9 9
11 13 16 17 18 18 19 20 22 22 23 24 23 22 22 22 20 18 18 18 19 21 22 21 20 18 15 13 14 15 14 12 10 8 7 9 10 10 10 9 8 9
10 11 13 16 18 18 19 21 23 25 25 25 24 24 23 20 18 18 17 18 21 22 22 21 20 17 15 14 14 15 14 12 11 10 10 11 11 11 10 8 8 9
11 11 13 15 18 19 20 20 23 27 28 25 23 23 21 17 17 18 18 20 22 21 20 20 19 18 16 15 15 15 14 14 13 13 13 12 12 11 10 9 10 11
11 12 13 14 16 18 19 20 22 25 25 23 22 21 18 16 17 18 20 24 24 21 20 20 19 18 17 16 16 16 16 16 16 15 14 12 11 11 11 11 12 13
9 12 12 14 16 17 19 20 21 22 22 22 24 22 19 18 18 17 20 24 25 22 21 21 20 19 17 16 17 16 16 17 18 16 14 12 11 12 13 13 12 11
8 11 13 15 17 18 20 22 23 23 23 23 24 24 20 19 19 18 18 20 23 24 22 21 21 20 18 18 17 16 16 17 18 17 15 12 11 13 14 13 12 11
8 12 15 16 18 20 21 22 22 23 23 22 22 23 21 20 20 19 17 18 20 23 23 21 20 20 19 18 17 16 16 17 18 18 15 13 12 13 14 13 12 11
8 11 15 17 19 21 22 21 21 21 21 22 22 22 21 21 20 18 18 17 18 21 22 21 21 20 19 18 17 16 16 16 18 18 15 14 15 15 14 13 12 11
8 10 13 17 20 23 23 23 23 22 21 22 23 22 22 21 19 19 19 18 18 20 20 20 21 21 19 17 17 17 16 16 18 18 17 17 17 17 16 14 13 12
8 10 13 17 21 23 25 24 24 24 25 24 23 22 21 20 19 19 20 19 19 18 19 20 21 19 18 17 16 16 17 18 19 20 19 19 18 17 16 14 12 11
8 10 12 15 17 19 22 23 23 24 25 25 23 22 20 19 18 19 20 20 20 19 19 20 21 19 17 16 16 17 18 19 20 20 20 19 17 15 13 11 10 9
8 11 13 16 16 16 18 21 21 22 25 26 25 23 20 19 18 20 22 22 20 20 21 21 20 20 19 18 18 18 18 19 21 21 19 17 15 13 11 10 8 7
9 12 13 16 17 17 19 21 21 21 23 25 26 23 20 19 19 21 25 24 22 21 22 22 22 22 21 20 20 20 21 22 21 19 16 15 14 13 11 10 8 6
9 11 11 13 14 15 17 19 22 24 22 20 24 26 23 22 23 24 26 26 22 21 22 23 24 24 22 21 20 20 21 20 17 15 14 15 15 14 12 10 8 7
8 9 11 14 15 14 15 15 18 21 18 14 19 26 25 25 28 29 28 27 24 22 24 25 24 24 22 20 18 17 16 15 14 14 16 17 16 15 13 11 10 9

ECMWFNIL_850_spd_096.txt.gz
Wind_Speed
25 25 26 25 23 20 16 14 14 15 16 18 20 20 20 20 20 18 17 17 16 16 16 16 15 15 15 15 14 13 12 12 12 12 12 12 12 12 12 11 10 9
25 27 28 26 24 21 18 16 14 14 16 18 20 20 18 19 19 18 17 17 16 15 16 16 16 15 15 15 14 13 13 13 12 12 12 12 12 12 11 10 9 9
25 28 27 25 24 21 19 17 15 14 15 19 22 20 18 18 18 17 16 17 16 16 16 16 16 15 15 15 14 14 13 12 12 12 12 12 12 12 11 11 10 9
24 27 25 24 24 22 20 18 16 15 17 19 21 19 17 17 18 17 16 17 17 17 16 16 15 15 15 15 14 14 14 12 12 12 13 12 12 12 12 12 11 10
22 24 23 23 24 23 21 20 17 16 15 15 16 17 17 17 17 17 17 17 18 17 17 17 16 16 16 15 15 15 14 13 13 13 13 13 13 13 13 12 11 10
21 23 22 22 24 24 22 19 16 13 12 12 14 17 17 17 17 17 17 18 17 17 17 17 16 16 17 16 15 15 14 13 13 13 14 13 13 13 13 13 11 10
19 20 19 19 22 23 20 15 13 12 12 13 15 17 18 17 17 18 18 18 18 17 17 17 16 16 16 15 15 15 14 13 13 13 13 12 11 12 12 11 10 10
15 15 15 16 18 19 15 11 13 14 13 15 16 18 19 18 17 18 18 18 18 18 17 17 16 15 15 14 14 14 13 13 13 12 11 11 11 11 11 10 10 11
12 13 14 15 16 17 14 10 13 14 14 17 19 20 19 17 17 17 18 18 19 18 18 17 16 14 14 13 13 13 13 13 12 11 11 11 10 10 10 10 11 11
10 12 13 14 15 14 11 11 13 15 17 19 20 20 19 17 17 17 17 18 19 19 19 17 16 15 13 12 12 12 13 12 11 11 10 10 10 10 11 11 11 11
8 9 10 12 13 11 11 12 13 16 18 19 20 20 19 18 18 18 19 20 20 19 19 18 16 15 13 12 12 12 12 11 10 10 10 10 10 10 10 10 11 10
8 9 9 10 11 10 12 14 14 16 18 19 20 20 19 20 21 20 20 20 18 17 17 17 16 15 14 13 12 12 12 11 10 10 10 10 11 11 11 10 10 9
8 9 10 10 10 10 12 14 16 17 18 20 20 21 21 22 22 20 19 18 16 15 15 16 16 15 15 14 13 13 14 13 11 10 10 11 11 12 11 9 9 9
7 8 8 9 11 11 12 15 17 18 19 20 22 22 22 22 22 21 19 16 14 14 15 15 16 16 17 15 14 15 15 13 11 10 10 11 12 12 11 9 9 9
5 7 8 9 11 12 13 15 17 18 19 21 23 22 21 22 22 20 17 15 15 16 16 16 16 17 17 15 14 16 16 13 11 10 11 12 13 13 12 10 10 11
5 6 8 9 10 12 14 15 17 19 20 21 22 21 21 22 20 18 16 15 15 17 18 18 17 17 16 14 14 16 16 14 12 13 13 13 14 14 13 12 13 13
5 4 7 8 9 11 13 15 17 18 19 21 23 23 22 21 19 17 17 16 16 17 18 18 17 17 16 13 13 15 15 15 15 15 13 12 12 13 14 14 15 15
5 4 6 8 9 11 13 15 16 17 19 21 24 24 23 20 18 17 17 17 18 18 18 18 17 17 15 14 14 15 15 16 17 16 13 11 11 13 15 15 14 14
7 4 6 8 8 10 13 14 15 17 19 21 24 25 23 20 17 15 16 18 20 20 19 18 18 17 15 14 15 15 15 17 18 16 13 12 12 14 15 13 12 11
7 3 3 7 8 10 12 14 15 16 18 20 24 25 23 21 18 16 16 18 19 20 20 19 18 17 15 16 16 14 15 17 18 16 14 13 13 14 13 11 10 9
8 4 1 6 10 11 11 13 16 17 18 19 21 23 22 21 20 17 16 17 17 19 20 20 18 17 16 17 16 15 15 17 18 17 16 15 15 14 13 11 10 8
12 7 3 4 9 11 13 15 16 16 17 18 20 21 20 19 19 17 16 16 16 17 19 19 18 17 17 17 16 15 15 16 18 19 17 16 16 15 13 12 10 9
13 9 5 3 4 7 10 14 15 16 16 17 18 18 19 17 17 17 16 15 16 16 17 17 17 17 17 17 16 15 15 16 18 19 18 17 17 16 14 13 11 10
11 9 7 3 1 2 3 6 11 15 15 16 17 18 18 16 16 16 16 16 16 16 16 16 17 17 17 16 16 16 16 16 18 19 19 19 18 17 15 14 12 11
8 8 7 5 1 4 3 4 6 8 8 12 16 17 17 16 16 15 16 17 17 17 17 18 19 18 18 18 18 18 19 19 20 22 23 22 20 18 17 15 13 11
8 6 6 5 3 4 5 6 7 7 7 8 12 16 18 18 16 16 18 18 18 17 18 20 20 20 20 20 20 20 21 21 22 21 20 20 18 17 16 14 12 11

ECMWFNIL_850_spd_099.txt.gz
Wind_Speed
14 14 15 17 19 18 17 16 16 15 14 15 16 18 19 18 19 21 20 20 20 20 20 20 19 18 17 16 16 15 14 14 14 14 14 13 13 13 13 12 12 12
15 16 16 17 17 16 16 16 16 15 13 13 14 15 16 18 20 20 19 19 19 19 20 20 19 18 17 16 16 16 14 14 15 15 15 13 14 14 14 13 13 12
17 19 18 17 16 14 15 15 13 13 14 14 13 13 15 17 20 20 19 19 19 19 20 19 19 19 18 16 16 16 14 14 15 16 15 15 14 14 14 14 14 12
20 20 19 18 15 11 11 11 10 11 12 13 13 13 14 16 19 20 20 19 19 19 19 19 20 19 18 17 16 15 15 15 16 16 16 16 15 14 14 15 14 13
22 21 19 17 15 10 8 9 10 10 9 10 11 11 14 17 19 21 20 20 20 20 19 19 20 19 18 17 16 15 16 16 16 16 16 15 15 15 15 15 15 14
19 18 16 16 17 14 9 9 10 9 9 10 10 12 15 18 20 21 21 21 21 21 20 20 19 18 18 17 16 16 16 16 16 16 16 14 15 15 15 15 15 14
13 11 11 14 17 16 11 10 10 10 11 12 13 14 17 19 21 22 22 21 20 19 19 19 19 18 18 17 16 16 16 16 16 16 15 14 15 15 14 14 15 14
7 7 8 11 12 10 11 11 10 10 13 15 15 16 17 19 21 23 23 21 19 19 19 18 18 17 17 17 18 18 17 17 16 15 15 15 15 14 13 14 14 13
6 7 7 9 9 9 12 14 11 11 15 17 17 18 18 20 21 22 22 22 20 20 20 18 18 17 17 17 17 17 17 17 16 15 15 15 15 14 14 14 14 14
8 9 10 10 11 11 13 13 12 13 16 17 17 19 19 21 21 21 21 21 20 20 20 18 18 17 16 16 15 15 15 15 15 15 15 15 14 14 14 14 14 15
10 11 12 11 11 12 12 12 12 13 16 18 18 19 21 22 22 21 20 20 20 19 19 19 18 17 16 14 14 14 14 14 13 13 13 14 13 13 13 14 14 15
11 11 11 9 9 9 10 11 13 14 16 18 19 20 21 22 22 21 20 20 19 19 20 20 19 17 15 13 12 12 13 13 12 12 12 13 13 13 13 14 14 14
8 8 9 8 8 8 9 11 12 13 15 17 18 19 21 22 22 21 20 20 20 21 22 21 19 17 15 13 12 12 13 13 12 12 12 13 14 14 14 14 14 14
5 6 6 6 7 9 10 10 12 14 15 16 17 19 21 22 23 22 21 20 21 22 21 19 18 17 16 14 13 13 13 13 13 13 13 14 15 15 15 15 15 14
5 4 4 4 5 7 9 10 12 14 15 16 18 20 21 21 22 21 19 19 19 19 16 15 16 16 16 15 14 14 15 14 13 13 14 15 17 17 17 16 16 15
7 5 2 3 4 6 8 9 12 14 15 16 18 19 20 20 20 20 19 19 18 15 12 12 14 16 17 16 14 15 16 15 13 12 13 15 17 18 17 16 16 15
8 7 4 2 2 4 6 8 11 13 14 16 17 17 18 19 19 19 19 19 17 13 11 11 13 17 18 16 14 16 17 15 12 11 12 14 16 17 16 16 16 16
10 10 7 3 4 4 4 6 9 11 12 13 14 14 16 18 19 19 19 17 15 12 12 12 14 17 18 15 14 16 17 14 12 12 12 14 16 16 15 16 17 18
13 11 9 6 7 7 4 4 7 8 8 11 12 13 16 18 19 20 18 16 13 12 13 14 15 17 17 14 13 15 16 15 14 14 13 13 14 14 15 17 19 19
16 13 11 8 7 7 5 3 5 5 6 10 12 14 16 17 17 17 16 14 12 11 13 15 16 17 16 14 13 15 16 15 16 16 14 12 13 15 17 19 18 18
21 17 13 10 7 6 5 4 4 4 5 8 10 14 17 16 16 14 12 11 12 12 13 15 16 16 15 13 13 14 14 16 18 17 14 13 15 17 18 18 16 15
23 20 17 14 9 5 4 6 5 2 4 6 7 12 15 14 15 13 11 11 12 13 13 14 16 16 14 13 14 14 13 16 19 18 15 15 17 18 17 17 16 15
21 21 19 16 12 9 7 6 5 3 3 5 3 5 11 15 14 13 12 12 12 12 13 14 15 15 14 13 15 14 13 15 18 18 17 17 19 18 18 17 17 15
21 21 19 16 12 10 9 7 4 2 2 4 3 2 8 14 13 10 10 10 11 11 12 14 14 14 14 14 15 15 14 15 18 20 20 19 20 19 19 18 17 16
19 21 20 17 12 9 9 8 7 5 2 1 4 2 10 12 9 8 8 9 10 10 11 13 13 14 14 14 14 14 13 14 17 20 21 21 21 21 20 19 19 17
17 19 20 18 13 11 10 8 7 7 7 6 4 5 12 11 8 8 8 8 9 10 10 11 12 14 16 15 14 14 13 13 15 19 21 21 22 23 22 21 20 18

ECMWFNIL_850_spd_102.txt.gz
Wind_Speed
12 13 14 14 14 14 13 14 14 12 11 12 13 16 18 18 18 18 20 22 24 26 24 23 23 22 22 24 24 22 21 21 20 20 20 19 17 16 15 15 14 13
13 14 15 15 15 14 13 13 15 14 13 14 15 16 17 19 19 19 20 20 22 24 24 22 22 22 22 24 25 23 21 20 20 19 19 18 16 15 15 16 16 15
12 13 14 14 15 14 12 14 15 15 14 15 16 17 17 18 18 19 19 20 21 22 20 19 19 19 20 20 20 21 20 18 18 19 19 18 17 15 16 17 16 16
12 13 14 14 15 14 13 15 14 14 15 15 17 17 17 17 17 18 18 19 20 20 19 19 19 18 17 15 15 16 17 16 16 16 16 16 17 15 16 16 16 15
12 14 14 15 16 14 14 15 15 16 17 15 16 18 18 18 18 19 19 19 21 20 19 20 19 18 17 16 14 15 15 13 12 13 14 14 15 15 15 15 14 13
11 14 15 15 16 15 15 15 14 17 17 14 16 19 20 19 20 21 20 20 22 21 20 20 18 18 18 17 16 15 15 13 12 13 14 13 13 13 13 13 13 12
11 14 14 14 14 14 14 15 14 14 15 15 17 19 20 21 21 22 22 21 22 22 21 21 19 19 20 19 16 14 14 15 14 13 13 12 12 11 11 12 12 11
11 11 10 10 11 11 13 16 15 13 15 16 18 20 21 21 22 23 23 22 21 22 21 21 21 20 20 19 18 16 16 16 15 15 14 13 12 12 12 12 13 12
11 11 9 9 10 10 12 14 13 13 14 16 18 20 20 22 23 23 24 22 22 23 23 22 21 21 19 19 19 18 16 16 17 16 16 15 15 14 13 13 14 14
11 11 11 11 11 11 12 12 12 13 14 15 18 20 21 21 22 23 23 23 23 24 24 23 22 21 20 20 20 19 18 18 18 18 18 17 16 15 14 14 15 15
11 11 11 11 11 11 11 12 13 14 15 16 18 20 19 19 20 22 24 24 24 24 24 24 23 22 21 22 22 22 20 18 18 18 18 17 15 15 14 14 15 16
10 11 12 12 11 11 11 13 13 14 15 17 20 21 19 19 21 22 24 25 25 24 23 22 21 20 20 22 22 22 21 18 17 16 15 14 13 14 14 15 15 15
9 9 11 11 11 10 11 12 12 12 13 15 20 21 19 20 21 22 24 24 23 23 21 20 18 17 18 20 21 21 20 19 17 16 13 13 14 14 14 15 15 15
7 7 8 9 10 10 10 11 11 11 12 14 18 19 19 20 21 21 21 21 22 23 22 20 18 17 18 18 20 22 21 19 18 16 15 15 15 14 15 15 14 14
6 6 6 6 7 7 7 8 10 11 12 13 14 16 18 19 18 18 19 21 22 21 20 20 18 17 18 18 18 20 20 19 18 17 16 16 16 15 15 15 14 14
7 7 5 3 3 3 4 5 8 9 10 11 12 14 16 16 15 18 20 20 19 18 19 20 20 19 19 17 16 16 17 18 18 18 18 18 18 18 17 17 16 17
9 9 6 4 4 4 3 4 5 7 7 8 9 11 14 17 17 17 18 18 18 19 19 20 21 20 19 17 14 14 15 17 17 17 17 17 18 19 19 19 18 17
12 11 8 6 6 6 4 3 3 5 6 7 8 9 11 15 17 16 16 17 19 20 19 19 20 19 18 16 15 15 15 15 15 15 15 15 16 18 19 18 18 17
13 13 12 8 6 7 8 7 4 3 4 5 5 6 9 12 13 15 17 18 20 21 20 18 18 19 19 17 16 16 16 14 13 13 13 13 13 15 18 17 16 17
14 14 14 11 7 6 8 9 7 5 4 2 3 5 8 10 12 15 18 19 21 21 19 17 17 19 19 18 17 17 16 13 12 11 11 12 12 15 17 16 16 18
18 14 13 14 11 9 9 9 9 8 7 6 3 3 7 10 12 15 19 20 19 18 18 17 19 20 19 17 16 16 16 14 11 11 11 11 12 14 16 17 17 19
20 15 12 13 13 11 10 10 10 10 10 12 11 3 6 11 12 15 18 17 15 16 18 19 21 21 18 15 14 14 14 14 12 11 11 11 11 13 15 18 19 19
21 16 12 11 13 13 11 11 11 10 10 12 14 7 5 11 12 14 15 15 14 15 16 18 21 22 17 13 12 12 13 13 14 15 13 11 12 14 17 20 22 22
21 17 14 12 12 14 14 12 11 10 10 12 13 8 9 11 12 12 12 13 13 12 11 12 15 18 16 12 11 12 12 12 16 19 17 14 15 18 19 20 21 21
20 18 15 13 12 13 13 13 13 11 11 13 14 12 11 11 10 10 10 11 9 9 11 12 12 14 13 10 10 10 10 11 15 19 18 16 17 18 19 19 18 17
17 18 17 14 12 10 11 12 13 12 12 14 14 13 11 10 10 9 8 9 8 6 7 10 11 13 11 10 10 10 10 10 14 18 19 19 21 20 19 18 18 17

ECMWFNIL_850_spd_105.txt.gz
Wind_Speed
12 13 14 14 16 18 19 21 24 25 25 26 25 22 20 19 18 17 19 18 15 15 16 16 17 18 18 18 19 21 19 17 19 18 18 19 19 18 18 17 16 15
12 12 14 14 16 18 20 22 23 24 24 25 24 22 20 18 16 15 17 17 16 17 17 17 18 20 19 18 19 20 20 19 20 17 15 17 18 18 17 15 16 17
11 11 12 12 14 18 20 22 24 25 25 26 26 24 22 20 17 16 16 17 16 17 17 17 19 20 19 18 19 20 21 19 19 17 16 15 16 16 15 14 16 17
10 11 11 12 15 19 21 22 23 23 25 28 27 24 22 21 18 16 16 16 16 17 17 18 19 20 19 19 19 20 20 19 18 18 16 16 16 17 15 15 17 18
9 10 11 13 16 20 22 24 24 22 24 27 26 22 21 20 19 18 17 16 17 17 17 18 19 19 18 18 19 20 20 20 20 19 18 18 17 17 17 17 19 20
9 10 12 15 16 19 21 24 25 24 25 27 25 22 21 19 19 19 17 17 17 18 19 20 20 20 19 18 19 20 20 21 21 20 19 19 19 19 19 19 20 21
9 9 13 15 15 17 19 20 22 23 23 25 24 21 21 20 20 19 18 17 18 18 20 21 21 20 20 19 20 20 20 20 20 20 19 19 19 19 19 20 20 19
10 10 13 15 15 16 17 17 18 18 20 23 22 21 21 21 19 18 19 19 19 20 21 21 21 20 20 20 21 21 21 20 20 19 19 18 18 18 18 19 19 17
11 12 14 16 16 16 16 17 17 18 20 22 22 22 21 19 18 18 19 20 20 20 20 19 19 19 19 19 20 22 21 21 21 21 19 19 17 16 17 18 18 18
11 13 14 15 15 15 16 17 17 18 18 18 19 20 19 17 17 16 17 19 20 20 19 18 18 18 19 19 20 20 20 21 21 19 18 19 18 17 17 17 17 18
12 13 13 14 14 13 15 16 17 17 16 16 17 17 18 17 16 16 16 17 18 19 19 18 17 17 18 20 20 20 21 21 19 17 17 19 20 19 19 18 17 18
12 13 13 14 13 13 13 15 16 17 16 15 16 16 18 18 16 15 14 13 14 17 19 17 14 15 16 18 17 17 18 18 17 17 17 18 20 19 18 19 18 18
12 13 13 13 13 12 12 14 15 15 15 15 15 15 16 16 14 13 13 12 13 13 15 15 14 16 16 15 13 14 14 14 15 15 15 17 18 17 19 20 18 17
12 12 12 12 13 12 12 12 13 14 15 15 15 14 14 13 11 13 13 13 13 12 13 14 14 16 16 14 14 15 14 14 14 13 14 16 17 18 20 19 16 17
12 12 11 11 12 12 13 13 12 13 15 15 14 14 14 13 11 13 13 12 12 12 13 14 14 15 16 15 15 15 14 15 14 13 13 15 15 17 19 17 15 16
13 13 12 11 11 12 13 13 12 12 13 13 13 13 13 13 12 12 13 12 9 9 10 12 13 15 15 14 14 14 15 15 15 14 15 16 16 16 17 16 15 14
13 14 13 11 10 11 12 12 11 10 9 9 10 11 12 13 12 12 11 11 10 10 10 11 12 14 15 14 13 13 15 15 15 16 16 17 17 17 17 16 15 13
13 14 14 12 11 11 11 11 10 8 7 8 8 7 8 9 10 11 10 10 11 10 11 12 12 13 16 15 13 12 13 13 14 15 16 17 17 17 16 15 14 13
14 14 14 13 11 10 11 11 10 9 8 7 7 6 5 4 5 7 8 10 11 10 11 12 13 16 18 16 13 10 9 10 12 13 14 15 14 14 14 14 14 14
13 13 13 13 11 9 9 9 10 12 13 12 9 7 5 3 4 7 7 10 13 12 12 13 15 18 19 16 13 10 8 8 9 10 11 11 11 12 13 13 13 14
12 13 13 13 11 9 8 9 11 12 14 15 14 10 5 4 5 7 8 9 12 13 13 12 14 18 18 16 13 12 11 9 7 7 9 10 10 11 12 12 12 13
11 12 13 13 11 9 8 10 11 12 14 14 14 12 7 4 4 6 8 9 11 12 12 13 15 17 18 16 14 12 12 9 7 6 7 7 9 10 10 11 10 10
12 11 12 12 11 9 8 9 10 12 14 13 13 13 10 6 4 3 2 2 5 6 9 12 14 17 18 16 13 12 11 9 9 9 8 8 8 8 8 11 11 11
14 10 10 11 11 11 10 9 11 13 13 13 13 14 13 11 10 10 10 9 7 6 5 3 8 15 17 14 12 11 10 9 9 9 9 7 7 8 9 12 14 15
15 12 10 10 10 10 10 10 11 13 14 14 15 16 15 13 12 12 11 11 10 9 8 5 6 12 12 11 10 8 9 8 6 7 8 4 4 7 10 12 16 18
14 13 12 11 10 10 10 9 10 12 14 15 16 16 16 14 12 10 8 8 10 10 9 8 10 9 7 7 8 6 6 6 5 9 13 9 6 8 11 14 16 16

ECMWFNIL_850_spd_108.txt.gz
Wind_Speed
12 13 13 13 13 14 16 17 18 20 23 25 26 27 27 25 23 21 20 19 19 20 21 22 21 19 18 18 18 18 18 19 19 19 18 18 19 19 19 19 18 16
13 14 14 15 14 14 15 16 18 20 23 24 25 27 28 28 25 24 22 19 18 19 20 22 23 21 19 19 19 19 19 20 19 19 18 18 19 20 19 18 17 17
11 11 12 12 12 13 14 16 18 21 23 25 26 27 29 29 28 27 25 20 19 20 21 23 24 22 20 20 20 19 20 20 20 20 19 17 18 19 19 18 17 17
9 9 10 11 12 15 17 18 19 21 23 25 26 27 29 29 28 28 26 21 19 21 22 24 24 23 21 20 20 20 19 20 21 20 19 18 18 18 19 19 17 17
9 9 9 10 12 15 17 18 19 21 22 25 26 27 27 28 27 27 24 19 18 21 23 23 24 23 21 20 21 20 19 20 20 19 18 18 18 18 18 18 18 19
10 11 11 11 12 14 16 16 19 21 22 23 25 26 26 27 26 24 22 18 17 21 23 22 23 22 21 20 21 20 18 20 20 19 17 17 17 17 17 18 18 19
11 12 12 13 14 15 16 16 18 21 22 22 23 24 25 24 22 20 18 15 15 20 22 22 22 22 21 21 21 19 18 20 20 19 17 16 16 16 16 17 17 18
11 12 13 14 16 16 16 16 18 20 21 22 22 23 22 20 18 18 16 14 14 18 21 21 20 20 19 18 18 17 18 18 18 18 17 16 16 16 16 17 18 19
11 13 14 14 15 16 15 15 16 17 19 20 21 20 19 16 14 15 14 13 14 16 18 18 17 19 18 15 14 15 16 17 17 17 16 16 16 16 16 17 18 20
12 13 13 13 13 15 15 14 15 16 17 18 18 18 16 14 12 12 11 10 11 12 13 14 15 17 17 15 13 13 14 13 14 14 14 15 15 14 15 16 18 19
13 14 15 16 16 17 16 14 14 15 17 17 17 16 15 12 11 10 9 9 9 9 9 11 12 12 13 14 12 12 13 13 13 14 14 14 13 13 15 16 17 18
14 15 16 17 17 18 17 16 16 16 17 17 16 15 14 12 11 9 8 8 8 6 6 9 10 10 11 13 13 12 13 14 14 14 14 14 14 14 16 16 16 17
16 16 16 15 16 17 17 17 17 17 17 16 15 15 13 12 11 10 8 8 7 5 5 7 10 12 12 12 12 11 12 14 14 15 15 14 14 15 16 16 16 17
15 16 15 13 14 16 16 17 16 16 16 16 15 14 13 11 11 11 9 7 7 6 5 6 9 12 12 10 10 9 11 13 13 14 15 15 14 14 16 16 16 17
15 16 15 13 12 13 15 16 16 14 13 13 14 14 13 12 11 10 8 6 6 6 6 6 8 11 12 11 9 8 9 11 12 12 13 14 14 13 14 15 16 16
15 16 16 14 12 12 14 15 16 14 12 11 11 12 12 12 11 9 7 5 6 6 5 6 8 11 11 11 10 10 10 11 12 12 12 13 14 13 14 15 15 16
14 15 16 16 15 14 15 15 16 15 13 10 10 9 10 11 10 8 6 5 4 3 4 5 8 10 10 8 8 11 11 11 13 13 14 15 15 14 15 16 16 15
13 14 15 16 16 15 14 15 15 15 14 11 8 8 9 9 7 7 6 5 2 4 7 7 7 7 8 6 6 7 8 9 10 11 12 13 14 15 16 16 15 14
14 15 16 16 15 13 13 14 15 16 15 14 12 10 10 9 8 8 8 7 4 3 6 7 7 6 6 6 6 5 5 7 7 6 8 10 12 14 14 14 13 11
14 15 16 16 14 12 12 14 16 17 17 17 16 14 13 13 12 11 10 9 6 5 5 7 7 6 7 7 7 7 7 7 6 4 6 9 10 9 10 11 11 9
14 14 15 15 13 12 12 14 16 18 19 19 19 17 17 18 17 15 13 10 6 4 6 7 7 7 8 9 8 8 8 7 5 2 2 5 7 7 9 10 11 10
14 14 13 14 13 13 13 14 16 18 20 21 20 19 20 22 21 19 16 13 10 5 2 3 4 7 10 10 9 8 6 5 3 3 2 3 6 7 8 11 12 12
12 13 14 15 14 13 13 15 17 18 19 20 20 20 21 22 23 22 20 18 16 12 8 6 3 6 11 10 9 8 6 4 4 4 4 5 7 8 8 10 13 12
13 12 13 14 14 13 13 15 17 18 19 20 20 19 19 20 21 22 21 20 18 16 13 11 9 11 11 8 6 5 4 7 6 6 10 10 9 8 7 10 13 13
14 13 13 13 13 13 13 14 15 16 17 19 19 19 19 20 21 21 21 20 19 17 16 14 13 14 11 8 10 9 8 9 4 4 8 10 8 6 6 10 16 16
16 15 13 13 13 13 11 12 13 14 15 16 17 18 19 19 20 20 20 21 19 17 15 15 15 14 10 8 12 13 11 10 5 5 8 8 6 5 7 11 16 17

ECMWFNIL_850_spd_111.txt.gz
Wind_Speed
8 9 10 11 11 12 12 14 15 15 16 18 19 20 20 20 20 22 23 23 25 26 26 26 25 23 24 24 22 21 21 21 19 21 25 26 27 26 25 24 23 21
8 8 8 8 8 8 9 11 13 15 17 18 19 19 20 21 21 23 24 24 25 26 24 24 24 24 24 23 21 20 19 20 19 20 23 25 26 26 25 24 23 22
5 6 5 5 5 6 8 10 12 15 18 18 17 18 19 21 22 24 24 23 23 23 22 22 23 23 23 21 19 18 18 18 19 19 21 24 25 25 24 24 24 23
4 5 6 6 7 9 10 12 14 16 17 16 16 18 20 21 23 24 24 22 21 19 19 20 22 21 19 17 18 18 17 18 19 19 21 24 25 25 25 24 24 23
5 6 8 9 10 12 13 15 16 16 17 17 16 18 20 21 23 24 22 21 19 17 16 16 18 18 16 15 16 17 17 18 20 20 21 24 25 25 25 24 25 24
6 7 9 10 10 11 13 14 15 16 17 17 17 18 19 20 21 21 19 17 15 14 13 12 13 15 15 14 14 15 16 18 19 19 20 22 24 25 25 24 24 24
7 8 9 10 11 10 11 12 13 14 15 15 16 17 18 18 18 17 14 13 11 10 10 10 11 13 14 14 14 14 14 15 16 18 19 19 20 22 23 23 23 23
7 9 10 10 11 11 11 11 12 12 13 15 15 15 16 16 15 13 11 11 9 8 9 10 11 11 13 14 14 14 14 14 15 17 18 19 19 19 21 22 22 23
13 13 13 13 14 14 13 13 13 13 13 14 14 14 14 14 13 13 11 11 10 9 10 10 9 9 10 12 12 13 15 16 15 15 17 19 19 19 20 21 21 22
15 14 14 14 14 14 13 13 13 13 13 14 14 13 13 13 12 12 12 12 11 10 10 9 8 8 9 10 11 11 12 13 13 14 17 19 19 19 20 20 20 21
15 14 13 13 13 13 13 12 12 12 13 14 13 13 13 12 12 12 12 11 10 8 8 8 7 6 7 8 10 10 10 11 11 12 16 18 19 19 19 19 19 19
15 14 12 12 12 11 11 12 12 12 12 12 12 13 12 12 12 12 11 11 9 6 6 7 5 4 4 6 9 10 10 10 10 11 13 16 18 18 17 17 17 16
14 13 11 9 9 10 11 12 13 12 11 11 11 11 11 11 12 11 10 10 9 6 5 6 4 3 4 6 8 10 11 11 11 11 12 13 15 15 15 15 15 15
13 13 12 9 9 10 10 12 13 13 13 11 11 11 11 12 12 10 9 9 8 6 5 4 4 3 4 6 7 8 10 11 11 11 12 12 13 14 14 14 14 15
11 13 15 14 12 12 13 14 15 15 15 13 12 11 10 12 13 11 9 8 8 7 5 4 4 3 4 5 5 6 7 8 9 10 10 11 11 12 14 14 15 14
12 13 14 14 14 14 15 15 15 15 15 14 13 10 9 10 12 12 11 10 8 8 6 4 2 2 4 4 5 5 5 5 6 7 8 8 8 10 12 12 13 13
14 14 13 12 13 14 15 16 16 15 15 14 13 11 10 10 11 12 13 12 10 9 8 5 2 2 3 4 5 6 4 3 5 6 7 6 6 8 10 9 9 11
13 13 13 12 13 14 16 17 17 17 17 16 15 15 12 11 11 12 13 12 11 11 8 5 1 2 3 4 5 5 5 4 5 6 6 6 6 6 7 6 7 9
11 12 14 14 13 15 17 19 20 21 21 20 18 16 15 14 13 13 13 12 11 11 10 6 2 3 5 5 5 5 5 5 5 4 3 3 4 4 4 4 6 8
12 12 13 13 14 15 17 20 21 22 21 21 21 20 21 21 20 18 17 16 14 13 12 9 4 6 9 8 7 7 5 5 5 4 3 2 2 3 4 4 5 7
13 13 13 14 15 15 17 20 20 20 20 22 22 23 24 24 24 23 20 18 17 15 13 9 5 9 11 10 10 7 5 4 3 2 2 2 1 3 4 5 7 8
12 13 14 15 15 15 17 18 18 19 19 20 21 23 24 24 25 25 23 21 21 21 18 14 12 17 17 13 11 10 9 10 9 5 3 3 4 4 4 5 7 9
11 12 14 14 14 15 16 16 17 18 18 19 20 22 24 24 25 25 24 24 24 26 27 24 22 24 23 19 17 16 15 16 16 13 10 7 6 6 7 7 7 8
11 12 13 14 14 14 15 15 16 17 17 18 19 21 23 24 24 24 24 25 25 26 28 28 27 26 26 25 24 20 18 18 19 18 17 14 12 9 8 10 11 10
13 13 13 13 13 14 15 15 16 16 16 17 17 19 22 22 22 22 23 25 26 26 25 26 27 27 25 24 23 20 20 22 22 22 21 18 16 13 11 13 14 12
14 14 15 14 13 13 15 16 15 15 15 15 16 17 19 20 21 21 23 24 25 26 25 25 26 26 24 22 20 19 17 17 18 22 23 20 18 15 14 15 14 14

ECMWFNIL_850_spd_114.txt.gz
Wind_Speed
12 14 15 15 16 17 17 18 19 19 19 20 20 20 19 18 18 19 20 20 22 24 26 26 26 26 25 26 27 27 27 25 23 22 23 21 21 21 20 20 23 24
15 15 16 16 17 17 17 18 18 19 19 19 20 20 20 19 19 19 20 21 23 24 25 24 24 24 23 24 25 25 24 24 22 20 20 20 20 19 19 20 22 23
15 15 15 15 16 15 16 17 17 18 19 19 20 20 20 20 20 20 20 21 22 22 21 20 21 21 20 20 22 21 21 22 22 20 20 19 18 18 18 19 21 22
13 13 13 13 14 14 16 17 18 19 20 21 22 21 20 19 19 20 20 20 19 18 16 16 16 16 16 17 18 19 19 20 20 19 19 19 18 19 19 19 20 22
11 12 12 12 14 15 16 17 19 19 20 19 19 17 17 17 17 18 18 17 16 16 15 14 13 12 13 14 16 18 18 18 19 20 20 20 19 19 20 20 21 22
9 10 10 8 8 9 10 12 13 14 14 13 13 13 14 15 16 16 16 16 15 15 14 12 11 11 11 12 14 16 17 18 19 20 21 20 19 20 20 21 22 23
7 6 4 2 2 4 5 7 8 8 9 9 10 12 13 14 15 14 15 15 15 14 13 12 11 11 11 12 13 15 17 17 18 20 20 20 19 20 21 21 21 22
2 2 3 2 1 2 3 4 6 7 7 8 10 11 12 13 14 13 13 14 14 14 13 11 11 11 11 12 13 15 16 17 18 19 19 20 21 21 21 21 22 22
4 3 3 2 1 1 4 5 6 7 8 8 9 10 11 12 12 12 12 13 14 13 11 11 11 10 9 9 10 12 15 16 18 18 17 19 20 21 20 20 21 21
5 3 2 1 1 2 4 5 7 9 10 9 9 10 11 11 12 12 11 12 13 12 10 10 10 9 8 7 8 10 12 14 17 17 15 15 17 18 17 17 18 19
4 2 0 2 3 4 4 5 8 10 11 11 10 10 11 11 11 11 11 11 11 11 9 9 9 8 6 6 7 8 10 12 14 15 14 14 15 14 14 15 17 18
3 1 1 3 4 5 6 7 8 9 10 11 11 10 10 10 10 10 10 10 10 10 9 8 8 7 5 6 6 7 9 10 11 11 11 12 13 12 13 15 15 16
4 4 3 5 6 7 7 8 9 10 10 11 12 11 9 9 9 9 10 10 9 9 8 8 8 7 6 6 6 6 7 8 8 7 7 8 8 10 12 14 14 15
6 7 8 9 8 8 8 9 10 11 12 12 13 11 9 10 11 10 10 10 8 8 9 8 8 8 6 6 6 5 5 7 7 6 7 7 6 8 11 13 14 14
6 7 10 10 9 8 9 10 11 12 12 12 13 12 9 10 11 11 11 10 8 8 8 8 8 7 5 5 4 4 4 5 6 6 7 7 7 7 10 13 14 14
6 8 11 11 10 11 12 13 14 14 13 13 13 13 11 11 11 11 11 10 8 8 8 8 7 5 4 4 3 4 4 3 2 4 6 6 6 7 9 12 13 13
9 11 12 12 13 15 16 17 17 16 16 15 13 13 12 12 11 11 11 10 9 8 8 7 6 5 5 5 3 3 3 2 2 2 1 2 2 4 7 9 10 12
10 13 13 14 16 17 18 18 18 18 18 17 17 16 16 15 14 14 13 12 10 9 8 7 7 6 7 6 4 3 4 3 3 2 1 2 1 2 4 5 7 9
11 13 14 15 17 18 17 18 19 20 20 21 20 21 22 23 23 21 18 15 13 12 11 9 8 8 8 8 7 6 7 6 5 4 2 0 1 2 3 2 3 6
12 13 14 15 16 16 16 17 19 20 21 22 22 23 25 26 25 24 22 18 16 13 11 9 11 12 12 11 10 10 9 9 7 5 3 2 1 1 2 3 4 5
12 13 13 13 14 14 15 17 18 19 21 21 22 23 24 24 25 26 25 23 20 17 17 17 18 19 19 19 17 15 14 13 13 11 8 4 2 1 1 3 4 4
12 13 13 12 12 13 15 17 18 19 20 20 20 21 21 22 23 25 26 26 24 23 25 26 25 25 26 26 24 21 20 20 21 20 17 12 7 2 1 3 3 2
12 12 12 12 12 13 15 17 18 18 19 19 19 19 20 21 22 24 25 26 25 25 26 27 28 27 27 26 26 24 23 23 24 25 26 24 17 8 3 5 6 5
12 12 12 12 13 14 16 17 18 18 19 19 18 19 20 21 22 23 24 25 25 24 25 26 27 26 23 22 23 21 21 20 20 22 24 26 24 18 14 13 10 7
12 12 13 13 14 14 15 17 18 19 19 19 19 20 20 20 21 22 24 25 25 24 25 25 24 23 21 19 19 17 17 15 14 15 18 19 20 19 18 16 12 7
13 13 13 14 15 15 17 18 20 20 20 20 21 21 21 21 22 23 25 26 25 25 24 23 22 21 19 18 17 16 16 15 15 16 16 16 17 20 20 20 17 15

ECMWFNIL_850_spd_117.txt.gz
Wind_Speed
15 16 17 20 21 21 21 22 22 22 22 22 22 21 22 23 23 23 23 23 23 24 26 27 28 29 30 30 28 27 26 26 27 27 27 28 28 28 27 26 27 27
18 19 20 22 22 22 22 22 22 23 22 22 22 21 22 23 24 25 25 24 25 26 26 27 27 27 27 27 25 23 23 23 24 25 25 25 25 26 26 25 25 25
21 22 22 22 22 22 22 22 22 23 23 23 23 23 24 25 25 24 24 24 25 25 25 25 25 24 24 23 21 20 19 20 21 21 21 21 22 24 24 24 24 21
23 23 21 21 21 21 22 22 22 23 24 24 23 23 22 21 20 20 21 22 23 23 22 22 22 21 20 20 19 18 18 18 18 16 17 19 21 23 22 23 22 19
22 21 19 19 19 19 20 20 20 21 21 20 19 17 17 16 17 19 20 21 21 21 21 20 21 20 19 18 18 18 17 17 16 15 16 18 20 20 20 22 21 18
16 16 16 16 16 16 16 16 16 16 16 15 14 14 15 16 18 20 21 21 20 20 19 19 20 19 19 18 18 18 17 16 15 14 16 18 18 19 19 20 20 19
12 12 13 13 13 13 14 14 13 13 14 14 14 15 16 17 18 20 21 20 19 19 19 18 18 18 18 18 18 17 17 16 15 14 15 16 17 18 19 21 21 21
10 11 11 11 11 12 13 12 12 12 13 14 15 16 17 17 18 19 19 18 17 17 18 18 17 17 17 17 17 16 15 15 15 14 15 16 16 17 19 21 22 21
8 9 10 11 12 12 11 11 11 12 13 15 16 16 16 16 17 18 19 17 16 15 16 16 16 16 16 16 15 13 12 13 13 13 13 14 15 16 18 20 21 20
7 7 8 10 11 10 9 9 10 12 13 15 15 15 14 14 15 16 16 16 15 14 14 14 14 14 15 14 13 11 10 10 10 11 11 11 12 14 16 18 19 19
8 8 8 8 8 7 7 8 10 12 13 15 14 13 13 12 13 14 14 14 14 14 14 13 13 13 13 12 12 10 9 9 9 9 9 9 9 10 11 12 14 16
6 6 5 5 5 5 7 9 11 12 13 14 13 12 12 12 12 12 13 14 14 14 14 13 12 12 12 11 10 10 9 8 8 8 8 8 7 7 8 10 11 12
3 2 1 2 3 6 8 10 11 12 12 12 12 12 11 12 12 11 12 13 14 13 13 13 12 12 12 10 9 9 8 8 7 6 6 6 6 6 7 8 9 10
1 3 2 1 4 6 8 9 10 11 11 11 12 12 12 12 12 11 11 12 13 12 12 12 12 11 10 8 8 8 8 8 7 6 5 5 5 6 7 8 9 10
3 4 3 3 4 6 8 10 12 13 13 13 13 12 12 12 11 10 10 11 11 10 10 10 11 10 8 8 8 9 9 9 8 7 6 6 6 6 7 8 8 10
5 5 4 4 7 9 11 13 13 13 13 13 14 14 12 10 9 8 8 8 9 9 8 9 11 11 11 11 11 11 11 10 9 9 7 6 6 6 6 6 7 9
8 7 6 8 10 12 13 13 13 13 14 16 18 19 17 13 10 8 7 8 10 10 11 12 14 15 15 14 13 12 12 11 10 10 8 7 7 7 6 6 6 7
9 8 9 11 12 13 13 13 13 13 15 17 20 22 22 20 16 14 12 13 13 13 13 14 15 16 16 15 14 14 13 12 11 10 9 8 8 8 7 6 6 6
9 10 12 12 12 12 13 13 13 14 16 18 19 20 22 24 22 20 17 15 14 13 15 16 17 17 17 16 16 15 13 12 11 10 9 8 8 7 7 6 6 6
9 10 11 11 11 12 13 13 14 14 15 16 16 17 20 23 24 23 22 20 18 18 20 22 21 21 21 21 21 20 19 17 15 14 12 10 8 7 7 7 8 8
9 9 9 10 11 12 12 13 13 13 14 14 15 16 18 20 21 22 23 23 23 23 23 25 24 22 22 22 22 22 22 21 21 21 21 20 17 12 10 8 9 10
8 8 8 10 12 12 12 13 12 13 13 13 13 15 17 18 19 21 22 23 23 23 23 24 24 21 20 20 19 18 18 18 19 20 22 24 24 19 14 11 12 13
8 7 9 13 13 12 12 12 12 12 12 12 12 13 15 17 19 20 21 21 21 22 22 23 22 21 20 19 19 18 17 17 18 18 20 23 24 22 18 15 16 17
8 8 11 13 13 12 12 12 12 12 12 11 10 11 15 18 18 19 19 19 20 20 20 21 21 21 20 19 19 19 20 20 21 21 22 25 27 27 26 25 26 27
8 8 11 13 13 12 12 12 13 13 12 12 11 12 15 17 17 18 19 19 20 20 20 20 21 22 21 21 21 21 21 22 23 25 26 28 30 31 30 30 30 30
8 9 11 14 14 13 13 13 14 13 13 13 13 14 15 15 16 16 18 19 20 20 21 21 22 22 22 21 21 21 21 21 21 24 26 27 27 28 29 29 29 28